     2              OBSERVATION DATA    GPS                 RINEX VERSION / TYPE
teqc 1997Jul24 19970814                                     PGM / RUN BY / DATE
                                                            COMMENT
BIT 2 OF LLI FLAGS DATA COLLECTED UNDER A-S CONDITION       COMMENT
BIT 2 OF LLI FLAGS DATA COLLECTED UNDER A-S CONDITION       COMMENT
Original Marker Name: VALL                                  COMMENT
Campaign Name: HPGN 1991                                    COMMENT
4-Character Station Name: VALL                              COMMENT
6-Character Antenna Code: TRMSST                            COMMENT
Vertical Measurement Point: BPA                             COMMENT
Vertical Offset to Rinex Ref. Point: 0.0000                 COMMENT
Radial Measurement Point: RRP                               COMMENT
Radial Offset to Rinex Ref. Point: 0.0000                   COMMENT
Antenna Height from Field Measurement: 2.2200 m             COMMENT
Original XYZ: -2251547.0223 -4689871.9716 3679650.9185      COMMENT
New XYZ position is based on association with SCEC monument COMMENT
E1F4I6R1+0011. Position of that monument is believed to be  COMMENT
valid to within 1 m horizontally; vertical accuracy         COMMENT
should be no worse than 3-times this value.                 COMMENT
                                                            COMMENT
Revised Rinex header created by UCSD GPS archive for        COMMENT
GSAC on 14-Apr-1999 (1999:104) 02:31:48 GMT                 COMMENT
For assistance contact dagnew@ucsd.edu or hjohnson@ucsd.edu COMMENT
                                                            COMMENT
VALLEY WELLS 1934                                           MARKER NAME
unknown NATIONAL GEODETIC SURVEY                            OBSERVER / AGENCY
484 TRIMBLE 4000 SST NP 4.30 / SP 4.20                      REC # / TYPE / VERS
18 TR 4000SST L1/L2 GEO                                     ANT # / TYPE
 -2251550.0000 -4689879.0000  3679646.0000                  APPROX POSITION XYZ
        2.2200        0.0000        0.0000                  ANTENNA: DELTA H/E/N
     1     1     0                                          WAVELENGTH FACT L1/2
     3    C1    L1    L2                                    # / TYPES OF OBSERV
     0                                                      INTERVAL
  1991     5     8    20     1   30.000000                  TIME OF FIRST OBS
  1991     5     9     0    57   60.000000                  TIME OF LAST OBS
     0                                                      # OF SATELLITES
                                                            END OF HEADER
 91  5  8 20  1 30.0000000  0  6G 2G 6G11G18G16G19
  22020251.789     -205903.776 7
  23673832.7974         -0.91955
  22842156.852          -0.41617
  22346721.023          -0.96016
  23974060.9304         -0.73055
  20969531.5704         -0.66956
 91  5  8 20  1 45.0000000  0  6G 2G 6G11G18G16G19
  22012434.6094    -246977.25047
  23665387.7664     -44374.91445
  22841058.9384      -5754.85747
  22353361.289       34907.138 6
  23972555.977       -7892.476 5
  20969120.680       -2152.100 7
 91  5  8 20  2  0.0000000  0  6G 2G 6G11G18G16G19
  22004617.7194    -288057.09447        -0.04472
  23656932.797      -88821.989 5
  22839980.813      -11433.785 7        -0.15031
  22360002.7424      69811.45546        -0.06472
  23971066.031      -15734.658 5
  20968706.5234      -4323.44647        -0.40773
 91  5  8 20  2 15.0000000  0  6G 2G 6G11G18G16G19
  21996802.1414    -329124.57547    -32000.61262
  23648460.766     -133323.490 5        -0.26631
  22838918.8754     -17018.49047     -4351.84261
  22366650.1564     104730.23446     27209.25062
  23969586.0554     -23508.71745        -0.26571
  20968291.5474      -6495.86847     -1693.20863
 91  5  8 20  2 30.0000000  0  6G 2G 6G11G18G16G19
  21988992.2974    -370168.19747    -63982.58862
  23639983.641     -177867.898 5    -34710.07521
  22837875.0944     -22497.54647     -8621.20761
  22373299.6884     139674.62546     54438.52062
  23968120.6334     -31203.33045     -5996.10661
  20967881.1644      -8657.88746     -3377.90363
 91  5  8 20  2 45.0000000  0  6G 2G 6G11G18G16G19
  21981188.1484    -411177.40047    -95937.74762
  23631503.063     -222444.783 5    -69445.21021
  22836853.055      -27860.507 7    -12800.11621
  22379954.9774     174654.82646     81695.70062
  23966675.9694     -38808.21445    -11922.02261
  20967474.1644     -10799.03546     -5046.33663
 91  5  8 20  3  0.0000000  0  6G 2G 6G11G18G16G19
  21973395.102     -452129.547 7   -127848.43922
  23623018.766     -267031.569 5   -104188.04421
  22835860.2424     -33084.86247    -16871.01961
  22386623.5084     209693.28446    108998.27961
  23965244.9064     -46300.85645    -17760.49061
  20967077.5084     -12896.74246     -6680.91663
 91  5  8 20  3 15.0000000  0  6G 2G 6G11G18G16G19
  21965614.9844    -493025.30847   -159715.19862
  23614529.8984    -311628.99745   -138939.19261
  22834893.430      -38171.213 7    -20834.38421
  22393302.0864     244789.05746    136345.50862
  23963845.8984     -53682.05045    -23512.11061
  20966683.9774     -14951.48446     -8282.02263
 91  5  8 20  3 30.0000000  0  6G 2G 6G11G18G16G19
  21957841.9774    -533860.57847   -191534.81862
  23606045.813     -356232.874 5   -173695.34421
  22833952.2584     -43115.49947    -24687.04961
  22399993.4534     279946.17946    163740.54661
  23962464.3204     -60947.69445    -29173.68061
  20966301.789      -16959.214 6     -9846.49322
 91  5  8 20  3 45.0000000  0  6G 2G 6G11G18G16G19
  21950084.6484    -574630.19247   -223303.28762
  23597555.6724    -400838.02145   -208452.49661
  22833039.7194     -47912.53547    -28424.98061
  22406694.4534     315169.29946    191187.00662
  23961103.492      -68092.675 5    -34741.24321
  20965928.9844     -18914.51446    -11370.11062
 91  5  8 20  4  0.0000000  0  6G 2G 6G11G18G16G19
  21942338.953     -615329.780 7   -255017.19022
  23589067.938     -445440.175 5   -243207.31421
  22832155.4534     -52558.08946    -32044.86861
  22413409.430      350462.736 6    218688.26521
  23959766.0864     -75113.07745    -40211.71361
  20965569.180      -20813.096 6    -12849.53022
 91  5  8 20  4 15.0000000  0  6G 2G 6G11G18G16G19
  21934609.4224    -655956.12147   -286674.02962
  23580577.7344    -490036.07045   -277957.29461
  22831299.336      -57048.998 6    -35544.29121
  22420141.641      385829.171 6    246246.37121
  23958454.6884     -82005.71745    -45582.68561
  20965219.328      -22651.674 6    -14282.23722
 91  5  8 20  4 30.0000000  0  6G 2G 6G11G18G16G19
  21926894.2274    -696492.74747   -318260.94462
  23572101.305     -534609.242 5   -312689.52121
  22830478.9224     -61368.87846    -38910.40161
  22426891.0554     421284.79946    273874.00661
  23957167.969      -88754.281 5    -50841.34121
  20964884.7344     -24413.68946    -15655.23462
 91  5  8 20  4 45.0000000  0  6G 2G 6G11G18G16G19
  21919192.7974    -736957.87247   -349792.14662
  23563617.602     -579178.011 5   -347418.31421
  22829684.867      -65536.102 6    -42157.56821
  22433649.0004     456811.09946    301556.71361
  23955909.6414     -95377.25445    -56002.13161
  20964558.8204     -26117.43747    -16982.83562
 91  5  8 20  5  0.0000000  0  6G 2G 6G11G18G16G19
  21911505.0084    -777364.07347   -381277.43462
  23555134.336     -623755.125 5   -382153.61621
  22828917.695      -69563.403 6    -45295.70721
  22440419.4144     492395.12946    329284.40161
  23954671.453     -101887.301 5    -61074.94521
  20964244.7814     -27775.43846    -18274.79262
 91  5  8 20  5 15.0000000  0  6G 2G 6G11G18G16G19
  21903830.6024    -817697.86647   -412706.29962
  23546652.0864    -668326.82045   -416884.69461
  22828182.320      -73437.196 6    -48314.21921
  22447206.094      528050.279 6    357067.50921
  23953457.7664    -108271.03045    -66049.31761
  20963938.5394     -29374.06546    -19520.48762
 91  5  8 20  5 30.0000000  0  6G 2G 6G11G18G16G19
  21896168.1484    -857956.18247   -444076.35462
  23538174.891     -712890.244 5   -451609.32621
  22827474.992      -77154.555 6    -51210.83521
  22454006.344      563779.411 6    384908.25821
  23952267.242     -114525.842 5    -70923.24721
  20963648.0944     -30910.18346    -20717.46862
 91  5  8 20  5 45.0000000  0  6G 2G 6G11G18G16G19
  21888521.2664    -898146.74447   -475393.61362
  23529693.805     -757453.025 5   -486333.46321
  22826793.531      -80723.228 6    -53991.59721
  22460816.781      599574.264 6    412800.22221
  23951099.680     -120659.445 5    -75702.71421
  20963367.609      -32391.614 6    -21871.84522
 91  5  8 20  6  0.0000000  0  6G 2G 6G11G18G16G19
  21880885.8284    -938269.99747   -506658.42162
  23521213.469     -802015.788 5   -521057.58021
  22826145.516      -84143.712 6    -56656.88921
  22467640.0554     635434.13946    440742.85061
  23949957.078     -126672.230 5    -80388.03621
  20963094.398      -33818.747 6    -22983.90522
 91  5  8 20  6 15.0000000  0  6G 2G 6G11G18G16G19
  21873266.1094    -978312.97747   -537860.67562
  23512735.430     -846565.414 5   -555771.46621
  22825525.648      -87403.127 6    -59196.66521
  22474479.7734     671371.88646    468746.16561
  23948836.039     -132551.729 5    -84969.52321
  20962834.4384     -35178.40446    -24043.38762
 91  5  8 20  6 30.0000000  0  6G 2G 6G11G18G16G19
  21865660.6174   -1018277.27247   -569001.62362
  23504259.797     -891103.577 5   -590476.41321
  22824934.172      -90503.100 6    -61612.20221
  22481334.867      707385.638 6    496808.69821
  23947741.2344    -138299.12945    -89448.05461
  20962590.469      -36472.106 6    -25051.48022
 91  5  8 20  6 45.0000000  0  6G 2G 6G11G18G16G19
  21858068.7194   -1058170.90247   -600087.50662
  23495787.023     -935638.109 5   -625178.54321
  22824372.672      -93451.551 6    -63909.67921
  22488198.898      743467.083 6    524923.97921
  23946672.406     -143923.187 5    -93830.49221
  20962354.383      -37707.858 6    -26014.41122
 91  5  8 20  7  0.0000000  0  6G 2G 6G11G18G16G19
  21850492.8284   -1097984.79347   -631111.25062
  23487312.4534    -980160.28845   -659871.03061
  22823840.680      -96239.712 6    -66082.25121
  22495078.539      779624.823 6    553098.71021
  23945627.7584    -149414.91745    -98109.79961
  20962133.859      -38876.795 6    -26925.28622
 91  5  8 20  7 15.0000000  0  6G 2G 6G11G18G16G19
  21842929.7504   -1137723.76147   -662076.61462
  23478844.0554   -1024674.92245   -694557.64561
  22823340.203      -98872.482 6    -68133.73721
  22501973.1644     815853.77146    581328.93961
  23944605.094     -154779.377 5   -102289.95321
  20961921.898      -39983.771 6    -27787.87522
 91  5  8 20  7 30.0000000  0  6G 2G 6G11G18G16G19
  21835382.5704   -1177387.85347   -692983.63862
  23470371.4844   -1069182.02545   -729238.38561
  22822869.211     -101349.923 6    -70064.19421
  22508882.2274     852153.60646    609614.40061
  23943612.0314    -160016.95245   -106371.22761
  20961723.508      -41028.533 6    -28601.98722
 91  5  8 20  7 45.0000000  0  6G 2G 6G11G18G16G19
  21827847.7424   -1216982.17947   -723836.30162
  23461903.0164   -1113686.50045   -763917.07061
  22822426.719     -103677.152 6    -71877.59821
  22515803.555      888519.137 6    637951.04221
  23942634.094     -165132.321 5   -110357.27921
  20961533.969      -42016.042 6    -29371.48722
 91  5  8 20  8  0.0000000  0  6G 2G 6G11G18G16G19
  21820329.7194   -1256493.48147   -754624.25862
  23453437.820    -1158175.279 5   -798583.53921
  22822016.656     -105841.207 6    -73563.85521
  22522737.172      924963.304 6    666348.95721
  23941689.594     -170112.665 5   -114238.12321
  20961359.984      -42933.163 6    -30086.13722
 91  5  8 20  8 15.0000000  0  6G 2G 6G11G18G16G19
  21812825.1954   -1295929.88747   -785353.86562
  23444972.711    -1202656.364 5   -833244.01321
  22821634.078     -107850.058 6    -75129.17321
  22529683.7584     961477.41546    694801.38961
  23940763.4844    -174966.56245   -118020.42561
  20961196.508      -43787.790 6    -30752.09622
 91  5  8 20  8 30.0000000  0  6G 2G 6G11G18G16G19
  21805334.1174   -1335290.18647   -816024.16062
  23436510.148    -1247128.637 5   -867897.62621
  22821279.766     -109702.663 6    -76572.73821
  22536648.3284     998062.22346    723308.90561
  23939863.648     -179692.817 5   -121703.27121
  20961048.781      -44578.672 6    -31368.38022
 91  5  8 20  8 45.0000000  0  6G 2G 6G11G18G16G19
  21797857.7504   -1374583.48347   -846642.24662
  23428046.359    -1291601.289 5   -902551.52121
  22820956.617     -111408.318 6    -77901.79521
  22543621.711     1034708.496 6    751864.31221
  23938989.852     -184300.647 5   -125293.84221
  20960904.750      -45314.960 6    -31942.12122
 91  5  8 20  9  0.0000000  0  6G 2G 6G11G18G16G19
  21790393.8914   -1413804.35247   -877203.90362
  23419585.992    -1336068.876 5   -937201.49321
  22820658.656     -112961.670 6    -79112.17921
  22550608.445     1071421.904 6    780472.02021
  23938135.789     -188784.806 5   -128788.03921
  20960780.813      -45991.105 6    -32469.00222
 91  5  8 20  9 15.0000000  0  6G 2G 6G11G18G16G19
  21782943.4304   -1452950.13347   -907707.04162
  23411123.2504   -1380528.73045   -971845.42961
  22820394.297     -114360.185 6    -80201.90821
  22557606.281     1108204.454 6    809133.61521
  23937308.469     -193142.762 5   -132183.89621
  20960661.234      -46604.642 6    -32947.09822
 91  5  8 20  9 30.0000000  0  6G 2G 6G11G18G16G19
  21775510.1094   -1492016.11147   -938148.00462
  23402665.4614   -1424976.25445  -1006479.75461
  22820156.797     -115599.278 6    -81167.41421
  22564619.2734    1145060.57046    837852.53561
  23936504.4614    -197369.97845   -135477.89061
  20960558.789      -47150.746 6    -33372.64922
 91  5  8 20  9 45.0000000  0  6G 2G 6G11G18G16G19
  21768091.0004   -1531001.57047   -968526.22062
  23394211.094    -1469410.707 5  -1041103.90321
  22819953.969     -116678.343 6    -82008.22821
  22571648.750     1181990.606 6    866629.05421
  23935721.4614    -201466.10945   -138669.74061
  20960465.211      -47628.729 6    -33745.12022
 91  5  8 20 10  0.0000000  0  6G 2G 6G11G18G16G19
  21760687.2894   -1569909.17547   -998843.77162
  23385757.9064   -1513834.70245  -1075719.89761
  22819778.344     -117599.980 6    -82726.36521
  22578689.898     1218991.637 6    895460.88721
  23934968.633     -205433.783 5   -141761.49421
  20960388.555      -48041.031 6    -34066.40722
 91  5  8 20 10 15.0000000  0  6G 2G 6G11G18G16G19
  21753301.1414   -1608726.35447  -1029090.85962
  23377306.8364   -1558235.60645  -1110317.90161
  22819634.1804    -118351.83746    -83312.21461
  22585746.727     1256075.907 6    924357.58321
  23934240.8984    -209260.74145   -144743.59761
  20960324.805      -48375.102 6    -34326.74422
 91  5  8 20 10 30.0000000  0  6G 2G 6G11G18G16G19
  21745926.8204   -1647476.82747  -1059285.96962
  23368857.9304   -1602637.38345  -1144916.58261
  22819519.984     -118957.784 6    -83784.36921
  22592814.930     1293219.189 6    953300.26321
  23933532.8914    -212970.87745   -147634.67261
  20960271.844      -48654.639 6    -34544.57322
 91  5  8 20 10 45.0000000  0  6G 2G 6G11G18G16G19
  21738568.4694   -1686143.59647  -1089415.85762
  23360411.867    -1647022.774 5  -1179502.51821
  22819435.9224    -119400.82046    -84129.58261
  22599897.070     1330438.592 6    982302.25521
  23932854.156     -216547.279 5   -150421.52721
  20960231.305      -48862.457 6    -34706.52522
 91  5  8 20 11  0.0000000  0  6G 2G 6G11G18G16G19
  21731226.7814   -1724728.16247  -1119481.68462
  23351968.516    -1691393.634 5  -1214077.10021
  22819382.648     -119682.654 6    -84349.17421
  22606995.336     1367731.883 6   1011361.82321
  23932199.1334    -219991.92945   -153105.73261
  20960203.227      -49000.180 6
 91  5  8 20 11 15.0000000  0  6G 2G 6G11G18G16G19
  21723896.4844   -1763249.76947  -1149498.45362
  23343522.6254   -1735768.91645  -1248655.14761
  22819356.125     -119822.466 6
  22614101.906     1405080.060 6   1040464.15921
  23931565.602     -223324.225 5   -155702.37521
  20960187.391      -49086.831 6
 91  5  8 20 11 30.0000000  0  6G 2G 6G11G18G16G19
  21716578.4454   -1801703.61247  -1179462.42462
  23335078.5314   -1780143.67345  -1283232.79161
  22819356.016     -119815.439 6
  22621218.813     1442487.516 6   1069612.68621
  23930953.9304    -226539.54645   -158207.88361
  20960183.719      -49117.531 6
 91  5  8 20 11 45.0000000  0  6G 2G 6G11G18G16G19
  21709274.0864   -1840087.20647  -1209371.65462
  23326638.7504   -1824515.62645  -1317808.24361
  22819385.7894    -119659.36846
  22628348.875     1479956.358 6   1098809.05121
  23930364.539     -229635.350 5   -160620.26421
  20960189.750      -49089.798 6
 91  5  8 20 12  0.0000000  0  6G 2G 6G11G18G16G19
  21701983.2664   -1878402.08647  -1239227.34762
  23318193.3054   -1868886.31945  -1352382.70961
  22819442.2734    -119355.88947
  22635491.9304    1517484.68446   1128051.74361
  23929797.781     -232613.582 5   -162941.02221
  20960207.359      -49005.201 6
 91  5  8 20 12 15.0000000  0  6G 2G 6G11G18G16G19
  21694703.0234   -1916658.91247  -1269037.79562
  23309746.6024   -1913266.13945  -1386964.29961
  22819527.977     -118915.503 7    -83751.34421
  22642643.0004    1555061.99446   1157332.61761
  23929248.4694    -235484.73645   -165178.33561
  20960229.2974     -48874.09746
 91  5  8 20 12 30.0000000  0  6G 2G 6G11G18G16G19
  21687438.4224   -1954834.88047  -1298785.24162
  23301306.828    -1957632.481 5  -1421535.37221
  22819640.852     -118315.586 6    -83283.86721
  22649806.914     1592710.637 6   1186669.08021
  23928728.9534    -238226.12645   -167314.54461
  20960267.117      -48673.756 6
 91  5  8 20 12 45.0000000  0  6G 2G 6G11G18G16G19
  21680188.4064   -1992930.94347  -1328470.42462
  23292863.6254   -2001986.18445  -1456096.60561
  22819786.914     -117557.311 6    -82692.98921
  22656983.8594    1630429.08346   1216059.92861
  23928230.258     -240839.444 5   -169350.95121
  20960317.414      -48405.006 6    -34350.18222
 91  5  8 20 13  0.0000000  0  6G 2G 6G11G18G16G19
  21672954.3134   -2030952.25647  -1358097.35863
  23284423.6804   -2046332.57545  -1490652.14661
  22819958.8914    -116646.07646    -81982.92561
  22664174.2584    1668212.01546   1245501.02461
  23927758.664     -243329.617 5   -171291.40521
  20960385.6254     -48072.90746    -34091.41662
 91  5  8 20 13 15.0000000  0  6G 2G 6G11G18G16G19
  21665733.5394   -2068898.72647  -1387665.97362
  23275986.148    -2090671.374 5  -1525201.77021
  22820161.1644    -115581.70846    -81153.53961
  22671377.883     1706059.180 6   1274992.17821
  23927306.391     -245697.067 5   -173136.23221
  20960457.227      -47677.431 6    -33783.26522
 91  5  8 20 13 30.0000000  0  6G 2G 6G11G18G16G19
  21658524.7344   -2106778.30647  -1417182.46563
  23267548.961    -2135010.757 5  -1559751.83421
  22820392.3984    -114372.41246    -80211.23061
  22678591.0784    1743962.16846   1304526.82661
  23926880.0554    -247950.08745   -174891.88861
  20960545.523      -47226.448 6    -33431.86422
 91  5  8 20 13 45.0000000  0  6G 2G 6G11G18G16G19
  21651330.0554   -2144582.24647  -1446640.02063
  23259116.2584   -2179341.77845  -1594295.39961
  22820650.7894    -113009.45946    -79149.18161
  22685815.4614    1781929.84946   1334111.87661
  23926473.4614    -250079.76045   -176551.42961
  20960640.141      -46711.222 6    -33030.40822
 91  5  8 20 14  0.0000000  0  6G 2G 6G11G18G16G19
  21644147.7814   -2182328.26247  -1476052.44463
  23250676.133    -2223682.258 6  -1628846.31821
  22820935.5314    -111510.68346    -77981.30461
  22693049.2664    1819944.23646   1363733.32761
  23926085.680     -252104.041 5   -178128.84521
  20960752.742      -46149.337 6    -32592.59122
 91  5  8 20 14 15.0000000  0  6G 2G 6G11G18G16G19
  21636979.2584   -2220001.31347  -1505408.00363
  23242239.7034   -2268017.05546  -1663392.82061
  22821251.1484    -109861.20046    -76695.98861
  22700293.9454    1858019.65646   1393402.32861
  23925726.539     -254008.070 5   -179612.56921
  20960865.344      -45525.969 6    -32106.86122
 91  5  8 20 14 30.0000000  0  6G 2G 6G11G18G16G19
  21629823.5634   -2257600.37247  -1534705.91363
  23233804.9774   -2312345.30946  -1697934.22261
  22821593.6884    -108060.00346    -75292.45261
  22707552.0004    1896157.13946   1423119.69561
  23925385.922     -255791.056 5   -181001.95721
  20960998.281      -44839.865 6    -31572.25022
 91  5  8 20 14 45.0000000  0  6G 2G 6G11G18G16G19
  21622681.3524   -2295132.49447  -1563951.66763
  23225368.8524   -2356673.79746  -1732475.80961
  22821961.8364    -106114.25546    -73776.28061
  22714819.4924    1934349.26146   1452879.63261
  23925069.9144    -257460.11645   -182302.60061
  20961139.914      -44097.679 6    -30993.94022
 91  5  8 20 15  0.0000000  0  6G 2G 6G11G18G16G19
  21615553.3984   -2332592.20347  -1593140.99163
  23216934.844    -2400997.227 6  -1767013.45121
  22822361.8134    -104018.67846    -72143.35961
  22722100.2584    1972601.11546   1482686.11161
  23924773.195     -259010.255 5   -183510.54321
  20961292.7344     -43294.22546    -30367.88162
 91  5  8 20 15 15.0000000  0  6G 2G 6G11G18G16G19
  21608440.1724   -2369969.30447  -1622265.94863
  23208503.9304   -2445305.36846  -1801539.17961
  22822790.6334    -101763.23346    -70385.86761
  22729391.7194    2010922.65646   1512546.89861
  23924502.5554    -260431.39345   -184617.99761
  20961457.5474     -42419.16146    -29686.03062
 91  5  8 20 15 30.0000000  0  6G 2G 6G11G18G16G19
  21601341.7034   -2407277.45747  -1651337.17563
  23200072.0004   -2489611.84046  -1836063.60461
  22823248.5554     -99361.67746    -68514.51661
  22736694.5704    2049300.13146   1542451.26561
  23924253.9224    -261737.29145   -185635.63161
  20961637.6884     -41486.32546    -28959.15462
 91  5  8 20 15 45.0000000  0  6G 2G 6G11G18G16G19
  21594258.523    -2444498.417 7  -1680340.46923
  23191643.1024   -2533898.36846  -1870572.48661
  22823737.7584     -96795.82746    -66515.14861
  22744012.2734    2087751.15546   1572412.94661
  23924032.195     -262910.118 5   -186549.58521
  20961827.664      -40477.075 6    -28172.74422
 91  5  8 20 16  0.0000000  0  6G 2G 6G11G18G16G19
  21587190.1484   -2481639.29847  -1709281.35963
  23183220.4924   -2578172.09246  -1905071.40161
  22824253.6414     -94072.89746    -64393.38361
  22751341.891     2126268.591 6   1602426.36721
  23923833.6724    -263956.98745   -187365.39861
  20962034.117      -39398.663 6    -27332.43822
 91  5  8 20 16 15.0000000  0  6G 2G 6G11G18G16G19
  21580136.1804   -2518708.28247  -1738166.22563
  23174793.9534   -2622440.97346  -1939566.53561
  22824800.0314     -91201.13646    -62155.64361
  22758683.0234    2164843.82246   1632484.83061
  23923656.5164    -264886.54345   -188089.79361
  20962251.422      -38259.028 6    -26444.43022
 91  5  8 20 16 30.0000000  0  6G 2G 6G11G18G16G19
  21573097.9614   -2555697.09447  -1766988.61963
  23166372.4064   -2666696.80746  -1974051.51361
  22825377.2424     -88172.48146    -59795.64661
  22766036.367     2203485.055 6   1662594.72321
  23923505.328     -265690.240 5   -188716.09821
  20962479.633      -37049.669 6    -25502.08222
 91  5  8 20 16 45.0000000  0  6G 2G 6G11G18G16G19
  21566071.398    -2592622.697 7  -1795761.76223
  23157951.8834   -2710956.52146  -2008539.50461
  22825981.5864     -85004.03946    -57326.72861
  22773398.9384    2242175.08846   1692742.63361
  23923368.2894    -266385.39745   -189257.85361
  20962721.227      -35787.610 6    -24518.68422
 91  5  8 20 17  0.0000000  0  6G 2G 6G11G18G16G19
  21559058.047    -2629471.679 7  -1824475.19923
  23149532.1174   -2755206.98146  -2043020.28661
  22826612.1414     -81682.74346    -54738.71061
  22780773.172     2280926.557 6   1722938.42221
  23923262.156     -266959.018 5   -189704.89421
  20962973.758      -34459.725 6    -23483.98222
 91  5  8 20 17 15.0000000  0  6G 2G 6G11G18G16G19
  21552061.5944   -2666241.85247  -1853127.22963
  23141112.4384   -2799445.71446  -2077491.93061
  22827273.2424     -78206.37046    -52029.84561
  22788159.266     2319741.819 6   1753183.91121
  23923176.2584    -267409.12645   -190055.69061
  20963240.359      -33063.543 6    -22396.07022
 91  5  8 20 17 30.0000000  0  6G 2G 6G11G18G16G19
  21545079.078    -2702938.464 7  -1881721.93823
  23132694.9384   -2843678.17546  -2111958.69361
  22827964.5474     -74580.36646    -49204.39161
  22795555.336     2358614.980 6   1783474.52521
  23923113.1884    -267741.23245   -190314.56261
  20963516.703      -31604.247 6    -21258.97022
 91  5  8 20 17 45.0000000  0  6G 2G 6G11G18G16G19
  21538109.430    -2739562.010 7  -1910259.71523
  23124278.3674   -2887904.56146  -2146420.72261
  22828681.3914     -70805.34146    -46262.81661
  22802964.719     2397545.639 6   1813809.93521
  23923071.656     -267956.063 5   -190482.02821
  20963806.344      -30082.252 6    -20073.02022
 91  5  8 20 18  0.0000000  0  6G 2G 6G11G18G16G19
  21531156.273    -2776103.345 7  -1938733.43123
  23115864.922    -2932115.867 6  -2180871.00521
  22829432.1174     -66872.29346    -43198.10261
  22810385.289     2436542.398 6   1844196.85921
  23923056.3594    -268044.51245
  20964108.555      -28488.509 6    -18831.15622
 91  5  8 20 18 14.9990000  0  6G 2G 6G11G18G16G19
  21524216.987    -2812564.891 7  -1967144.97523
  23107452.3864   -2976313.85146  -2215310.90061
  22830206.3944     -62786.44146    -40014.32261
  22817819.753     2475597.761 6   1874629.44621
  23923063.1054    -268011.52145
  20964425.917      -26827.765 6    -17537.08822
 91  5  8 20 18 29.9990000  0  6G 2G 6G11G18G16G19
  21517293.034    -2848950.851 7  -1995497.61823
  23099043.714    -3020503.836 6  -2249744.57421
  22831015.9484     -58546.46346    -36710.43661
  22825262.675     2514717.146 6   1905111.91021
  23923090.1904    -267856.72345
  20964754.237      -25098.861 6    -16189.90822
 91  5  8 20 18 44.9990000  0  6G 2G 6G11G18G16G19
  21510383.730    -2885259.192 7  -2023789.78323
  23090637.784    -3064682.954 6  -2284169.78221
  22831851.1444     -54153.17346    -33287.08761
  22832718.362     2553897.543 6   1935641.92221
  23923144.5654    -267580.53745
  20965096.370      -23302.268 6    -14789.98422
 91  5  8 20 18 59.9990000  0  6G 2G 6G11G18G16G19
  21503486.862    -2921500.755 7  -2052029.91123
  23082231.8704   -3108862.09846  -2318595.00161
  22832713.7534     -49617.72446    -29752.96961
  22840183.4094    2593127.70646   1966210.71061
  23923215.7764    -267194.22645   -189888.79061
  20965451.315      -21448.825 6    -13345.75822
 91  5  8 20 19 14.9990000  0  6G 2G 6G11G18G16G19
  21496603.323    -2957670.997 7  -2080214.46623
  23073825.097    -3153036.871 6  -2353016.82021
  22833603.9254     -44935.76746    -26104.68361
  22847659.2534    2632411.58746   1996821.35461
  23923311.636     -266693.596 5   -189498.76721
  20965814.690      -19534.150 6    -11853.81822
 91  5  8 20 19 29.9990000  0  6G 2G 6G11G18G16G19
  21489737.730    -2993759.746 7  -2108335.52323
  23065421.245    -3197197.098 6  -2387427.31121
  22834526.6054     -40097.13246    -22334.31461
  22855149.230     2671759.140 6   2027481.61321
  23923431.0584    -266068.63945   -189011.87361
  20966190.933      -17547.920 6    -10306.12522
 91  5  8 20 19 44.9990000  0  6G 2G 6G11G18G16G19
  21482886.409    -3029765.083 7  -2136391.58323
  23057020.987    -3241340.911 6  -2421825.00621
  22835478.1204     -35100.14246    -18440.55961
  22862646.9404    2711172.15446   2058192.87761
  23923574.9954    -265317.66945   -188426.77861
  20966582.253      -15488.250 6     -8701.20822
 91  5  8 20 19 59.9990000  0  6G 2G 6G11G18G16G19
  21476044.440    -3065709.665 7  -2164400.30223
  23048620.292    -3285490.775 6  -2456227.41121
  22836453.8154     -29967.70346    -14441.25361
  22870155.370     2750627.616 6   2088937.21921
  23923740.2224    -264463.72145   -187761.45861
  20966984.901      -13377.731 6     -7056.66822
 91  5  8 20 20 14.9990000  0  6G 2G 6G11G18G16G19
  21469218.464    -3101582.708 7  -2192353.27822
  23040217.620    -3329635.791 6  -2490626.04821
  22837459.1594     -24688.97046    -10327.95661
  22877674.0194    2790136.41246   2119723.11261
  23923922.534     -263495.766 5   -187007.30821
  20967398.190      -11205.116 6     -5363.73922
 91  5  8 20 20 29.9990000  0  6G 2G 6G11G18G16G19
  21462406.769    -3137380.465 7  -2220247.58922
  23031819.6284   -3373772.20746  -2525017.99061
  22838491.6594     -19260.37546     -6097.88261
  22885204.3554    2829701.60846   2150552.96661
  23924126.9804    -262410.52745   -186161.74161
  20967825.292       -8966.860 6     -3619.66522
 91  5  8 20 20 44.9990000  0  6G 2G 6G11G18G16G19
  21455609.605    -3173100.080 7  -2248081.00923
  23023423.534    -3417896.997 6  -2559400.86521
  22839554.1834     -13678.96146     -1748.72961
  22892744.3864    2869326.09746   2181429.01161
  23924355.8234    -261205.13545   -185222.55661
  20968263.331       -6659.934 6     -1822.07922
 91  5  8 20 20 59.9990000  0  6G 2G 6G11G18G16G19
  21448825.815    -3208747.032 7  -2275857.80622
  23015027.714    -3462015.800 6  -2593779.06921
  22840643.0264      -7950.51746      2714.99061
  22900293.714     2909003.873 6   2212346.58721
  23924610.956     -259885.433 5   -184194.30721
  20968715.706       -4289.817 6        24.74222
 91  5  8 20 21 14.9990000  0  6G 2G 6G11G18G16G19
  21442056.745    -3244320.117 7  -2303577.04923
  23006634.222    -3506127.326 6  -2628151.60621
  22841762.0034      -2074.13946      7293.98561
  22907854.2924    2948735.93746   2243306.45661
  23924884.0034    -258450.32145   -183076.12461
  20969177.769       -1855.283 6      1921.76422
 91  5  8 20 21 29.9990000  0  6G 2G 6G11G18G16G19
  21435302.597    -3279812.069 7  -2331233.06922
  22998242.401    -3550224.338 6  -2662512.83821
  22842910.0344       3957.29346     11993.80261
  22915426.4644    2988528.97546   2274313.84461
  23925179.3554    -256892.87245   -181862.61561
  20969654.198         650.937 6      3874.64322
 91  5  8 20 21 44.9990000  0  6G 2G 6G11G18G16G19
  21428563.651    -3315226.747 7  -2358828.87522
  22989851.573    -3594310.876 6  -2696865.92021
  22844084.8784      10139.65546     16811.22961
  22923009.9724    3028379.14146   2305365.74761
  23925495.7224    -255217.33745   -180557.08961
  20970145.261        3224.906 6      5880.31422
 91  5  8 20 21 59.9990000  0  6G 2G 6G11G18G16G19
  21421839.097    -3350568.744 7  -2386368.04822
  22981466.214    -3638391.080 6  -2731214.05521
  22845289.5814      16468.39146     21742.70961
  22930603.2144    3068281.34746   2336458.18561
  23925839.448     -253428.147 5   -179162.98421
  20970645.886        5862.481 6      7935.54822
 91  5  8 20 22 14.9990000  0  6G 2G 6G11G18G16G19
  21415126.019    -3385840.927 7  -2413852.82322
  22973078.917    -3682468.061 6  -2765559.68221
  22846521.7144      22940.45146     26785.87661
  22938205.9804    3108232.46046   2367588.74561
  23926196.565     -251528.799 5   -177683.07821
  20971160.089        8560.811 6     10038.12222
 91  5  8 20 22 29.9990000  0  6G 2G 6G11G18G16G19
  21408428.839    -3421033.105 7  -2441275.25322
  22964690.753    -3726531.471 6  -2799894.73121
  22847782.1904      29565.98346     31948.62561
  22945818.3784    3148242.57946   2398765.27761
  23926583.964     -249509.570 5   -176109.72621
  20971686.823       11330.174 6     12196.04522
 91  5  8 20 22 44.9990000  0  6G 2G 6G11G18G16G19
  21401747.980    -3456144.527 7  -2468634.75923
  22956307.534    -3770580.461 6  -2834218.54421
  22849072.6284      36345.44246     37231.32561
  22953445.6904    3188311.91846   2429987.95261
  23926985.9014    -247369.37445   -174442.11861
  20972228.237       14171.392 6     14409.96222
 91  5  8 20 22 59.9990000  0  6G 2G 6G11G18G16G19
  21395081.245    -3491173.961 7  -2495930.37622
  22947929.394    -3814613.874 6  -2868530.22021
  22850392.7144      43279.89946     42634.79661
  22961081.7144    3228441.69546   2461257.72061
  23927422.3864    -245107.37345   -172679.58461
  20972781.839       17085.519 6     16680.68922
 91  5  8 20 23 14.9990000  0  6G 2G 6G11G18G16G19
  21388430.933    -3526124.397 7  -2523164.43822
  22939552.870    -3858634.495 6  -2902831.93021
  22851739.5504      50366.24346     48156.62561
  22968730.1514    3268628.77746   2492572.14661
  23927874.4954    -242726.74545   -170824.62061
  20973351.183       20069.818 6     19006.09522
 91  5  8 20 23 29.9990000  0  6G 2G 6G11G18G16G19
  21381795.136    -3560994.210 7  -2550335.67623
  22931180.011    -3902640.709 6  -2937122.40521
  22853119.6514      57605.98446     53797.98361
  22976389.1984    3308874.32446   2523932.11961
  23928349.808     -240226.072 5   -168876.15021
  20973930.573       23126.006 6     21387.51922
 91  5  8 20 23 44.9990000  0  6G 2G 6G11G18G16G19
  21375172.862    -3595794.099 7  -2577452.43022
  22922806.308    -3946643.077 6  -2971409.89321
  22854524.1124      64988.35946     59550.47661
  22984054.167     3349167.406 6   2555329.13821
  23928848.2764    -237616.24645   -166842.61261
  20974524.183       26243.513 6     23816.72022
 91  5  8 20 23 59.9990000  0  6G 2G 6G11G18G16G19
  21368566.073    -3630516.019 7  -2604508.43023
  22914434.722    -3990633.593 6  -3005688.14621
  22855957.4644      72521.19446     65420.21561
  22991732.245     3389515.671 6   2586769.15621
  23929365.995     -234889.650 5   -164718.07721
  20975132.761       29430.439 6     26300.01722
 91  5  8 20 24 14.9990000  0  6G 2G 6G11G18G16G19
  21361973.823    -3665158.305 7  -2631502.36923
  22906065.909    -4034610.621 6  -3039955.87021
  22857418.8864      80205.91546     71408.30861
  22999422.2064    3429920.43946   2618253.21561
  23929907.589     -232044.778 5   -162501.38521
  20975751.370       32688.193 6     28838.50822
 91  5  8 20 24 29.9990000  0  6G 2G 6G11G18G16G19
  21355395.956    -3699724.495 7  -2658437.01923
  22897697.4724   -4078577.70646  -3074215.87161
  22858910.1054      88038.79346     77511.84461
  23007123.159     3470377.864 6   2649778.28921
  23930469.8474    -229085.23145   -160195.31261
  20976387.808       36013.533 6     31429.66022
 91  5  8 20 24 44.9990000  0  6G 2G 6G11G18G16G19
  21348831.065    -3734223.103 7  -2685319.00823
  22889331.792    -4122543.306 6  -3108474.69721
  22860425.9874      96011.05546     83723.98861
  23014830.128     3510879.263 6   2681337.62321
  23931056.2144    -226019.86945   -157806.79761
  20977028.503       39397.954 6     34066.85122
 91  5  8 20 24 59.9990000  0  6G 2G 6G11G18G16G19
  21342277.730    -3768657.981 7  -2712151.33323
  22880964.1754   -4166510.89746  -3142735.07461
  22861969.0264     104119.00946     90041.86561
  23022544.886     3551420.650 6   2712928.12221
  23931654.901     -222852.534 5   -155338.81221
  20977681.948       42838.075 6     36747.45022
 91  5  8 20 25 14.9990000  0  6G 2G 6G11G18G16G19
  21335739.253    -3803018.777 7  -2738925.94023
  22872602.761    -4210470.245 6  -3176989.04021
  22863539.5654     112372.80646     96473.38561
  23030268.003     3592012.197 6   2744557.70521
  23932279.128     -219573.347 5   -152783.69821
  20978350.081       46343.945 6     39479.27722
 91  5  8 20 25 29.9990000  0  6G 2G 6G11G18G16G19
  21329213.589    -3837311.358 7  -2765647.39023
  22864235.370    -4254427.198 6  -3211241.13021
  22865139.3394     120766.35246    103013.80661
  23037999.831     3632647.757 6   2776221.59021
  23932923.573     -216188.314 5   -150146.08221
  20979031.331       49909.779 6     42257.83222
 91  5  8 20 25 44.9990000  0  6G 2G 6G11G18G16G19
  21322700.2614   -3871536.77547  -2792316.50363
  22855870.3864   -4298382.83446  -3245492.18561
  22866762.5654     129298.36646    109662.11961
  23045741.097     3673325.741 6   2807918.52621
  23933586.917     -212698.878 5   -147427.11021
  20979718.214       53534.675 6     45082.40522
 91  5  8 20 25 59.9990000  0  6G 2G 6G11G18G16G19
  21316199.644    -3905700.386 7  -2818937.45423
  22847505.909    -4342342.473 6  -3279746.36321
  22868410.4254     137963.20746    116413.94061
  23053490.0584    3714040.39746   2839644.04161
  23934273.5974    -209110.67945
  20980421.292       57213.198 6
 91  5  8 20 26 14.9990000  0  6G 2G 6G11G18G16G19
  21309713.550    -3939786.972 7  -2845498.38323
  22839143.0584   -4386290.80346  -3313991.72961
  22870085.8784     146775.94746    123281.00261
  23061247.089     3754806.662 6   2871409.77521
  23934976.3624    -205408.76845
  20981132.800       60960.668 6
 91  5  8 20 26 29.9990000  0  6G 2G 6G11G18G16G19
  21303241.612    -3973796.019 7  -2871998.89223
  22830782.534    -4430227.166 6  -3348227.78021
  22871792.9334     155737.09346    130263.71161
  23069014.495     3795624.963 6   2903216.04321
  23935702.1364    -201592.63045
  20981861.636       64777.805 6
 91  5  8 20 26 44.9990000  0  6G 2G 6G11G18G16G19
  21296782.495    -4007735.719 7  -2898445.36823
  22822422.464    -4474159.770 6  -3382460.89121
  22873524.0584     164838.25946    137355.51861
  23076791.6904    3836486.88946   2935056.30761
  23936451.909     -197670.772 5
  20982596.901       68656.644 6     56865.68222
 91  5  8 20 26 59.9990000  0  6G 2G 6G11G18G16G19
  21290335.776    -4041613.769 7  -2924843.80623
  22814061.175    -4518096.345 6  -3416697.10821
  22875281.230      174071.468 6    144550.21321
  23084573.440     3877384.410 6   2966924.30921
  23937214.519     -193651.352 5
  20983345.120       72589.367 6     59930.12722
 91  5  8 20 27 14.9990000  0  6G 2G 6G11G18G16G19
  21283900.886    -4075430.699 7  -2951194.61923
  22805699.362    -4562037.034 6  -3450936.52721
  22877063.151      183436.191 6    151847.39021
  23092363.175     3918316.934 6   2998819.57621
  23937999.089     -189534.760 5
  20984103.409       76575.614 6     63036.26822
 91  5  8 20 27 29.9990000  0  6G 2G 6G11G18G16G19
  21277478.4564   -4109179.05647  -2977491.99863
  22797337.4954   -4605974.38346  -3485173.34961
  22878872.1204     192939.65446    159252.67461
  23100160.448     3959291.465 6   3030747.58821
  23938799.9174    -185313.70245
  20984872.995       80622.842 6     66189.93622
 91  5  8 20 27 44.9990000  0  6G 2G 6G11G18G16G19
  21271074.5584   -4142832.33547  -3003715.29563
  22788980.862    -4649881.958 6  -3519386.97021
  22880711.2694     202608.13946    166786.54661
  23107970.5264    4000334.05146   3062728.61861
  23939629.1364    -180962.12545
  20985660.855       84757.664 6     69411.85422
 91  5  8 20 27 59.9990000  0  6G 2G 6G11G18G16G19
  21264683.4254   -4176416.07447  -3029884.40163
  22780628.026    -4693785.342 6  -3553597.31821
  22882578.8624     212415.88146    174428.93161
  23115787.519     4041419.037 6   3094742.69821
  23940479.3154    -176505.83545        -0.00871
  20986460.175       88954.755 6     72682.29222
 91  5  8 20 28 14.9990000  0  6G 2G 6G11G18G16G19
  21258305.3394   -4209934.22747  -3056002.40563
  22772272.722    -4737688.292 6  -3587807.33921
  22884469.4804     222358.82146    182176.67261
  23123614.4094    4082542.19946   3126786.52361
  23941343.8624    -171949.11545      3550.58761
  20987268.987       93210.222 6     75998.22222
 91  5  8 20 28 29.9990000  0  6G 2G 6G11G18G16G19
  21251941.4254   -4243381.14647  -3082064.90063
  22763919.386    -4781585.110 6  -3622012.58721
  22886387.7304     232442.25046    190033.87861
  23131449.0424    4123708.62646   3158864.06161
  23942231.5264    -167286.62245      7183.62761
  20988091.745       97529.532 6     79363.89622
 91  5  8 20 28 44.9990000  0  6G 2G 6G11G18G16G19
  21245590.1204   -4276753.04447  -3108068.93763
  22755568.386    -4825471.986 6  -3656210.07621
  22888336.167      242670.042 6    198003.57421
  23139293.800     4164922.103 6   3190978.25521
  23943139.769     -162514.517 5     10902.07021
  20988926.636      101916.622 6     82782.39222
 91  5  8 20 28 59.9990000  0  6G 2G 6G11G18G16G19
  21239253.1054   -4310056.74447  -3134019.83263
  22747217.2304   -4869355.48446  -3690404.94161
  22890307.737      253035.270 6    206080.35921
  23147141.9014    4206175.71246   3223123.72161
  23944067.323     -157639.783 5     14700.49521
  20989771.651      106365.029 6     86248.66122
 91  5  8 20 29 14.9990000  0  6G 2G 6G11G18G16G19
  21232930.8624   -4343275.94047  -3159904.88263
  22738870.456    -4913219.231 6  -3724584.41021
  22892309.0424     263553.99046    214276.75661
  23155003.6124    4247485.37246   3255312.85661
  23945017.972     -152646.452 5     18591.28821
  20990633.136      110891.013 6     89775.38322
 91  5  8 20 29 29.9990000  0  6G 2G 6G11G18G16G19
  21226624.8394   -4376415.57647  -3185727.93863
  22730526.3944   -4957068.38946  -3758752.52261
  22894337.7924     274220.97746    222588.67561
  23162874.0894    4288845.55546   3287541.37761
  23945986.6124    -147539.72345     22570.46661
  20991509.339      115489.527 6     93358.62022
 91  5  8 20 29 44.9990000  0  6G 2G 6G11G18G16G19
  21220333.9094   -4409475.99447  -3211489.26463
  22722185.4804   -5000903.00746  -3792909.30061
  22896397.3944     285035.65746    231015.68861
  23170754.0194    4330255.94245   3319808.99561
  23946982.878     -142320.198 5     26637.53321
  20992396.706      120160.260 6     96998.13122
 91  5  8 20 29 59.9990000  0  6G 2G 6G11G18G16G19
  21214057.7534   -4442461.23347  -3237192.00563
  22713845.7144   -5044727.24146  -3827057.99461
  22898482.815      295993.802 6    239554.48421
  23178642.8084    4371712.05445   3352112.24461
  23947996.144     -136992.335 5     30789.02921
  20993300.167      124899.311 6    100690.87722
 91  5  8 20 30 14.9990000  0  6G 2G 6G11G18G16G19
  21207794.1594   -4475370.63847  -3262835.66363
  22705507.0974   -5088540.22746  -3861197.91861
  22900596.206      307095.927 6    248205.48421
  23186541.5264    4413214.28145   3384451.42561
  23949032.058     -131555.565 5     35025.40221
  20994213.300      129707.588 6    104437.55922
 91  5  8 20 30 29.9990000  0  6G 2G 6G11G18G16G19
  21201547.8234   -4508192.83047  -3288411.35863
  22697176.2454   -5132330.56546  -3895320.19961
  22902737.6674     318353.35146    256977.48961
  23194449.1054    4454774.01645   3416835.42361
  23950089.980     -125998.509 5     39355.45321
  20995145.394      134596.589 6    108247.14722
 91  5  8 20 30 44.9990000  0  6G 2G 6G11G18G16G19
  21195315.4644   -4540947.65047  -3313934.55763
  22688842.7144   -5176117.81846  -3929440.07161
  22904904.5264     329745.91046    265854.80361
  23202363.464     4496371.062 5   3449248.48921
  23951165.487     -120341.654 5     43763.30721
  20996087.573      139546.404 6    112104.12322
 91  5  8 20 30 59.9990000  0  6G 2G 6G11G18G16G19
  21189096.7064   -4573629.00947  -3339400.51463
  22680512.581    -5219895.917 6  -3963552.82221
  22907099.3394     341279.66846    274842.13561
  23210290.0974    4538011.46746   3481695.34461
  23952261.597     -114579.018 5     48253.57121
  20997042.2304     144563.20446    116013.28562
 91  5  8 20 31 14.9990000  0  6G 2G 6G11G18G16G19
  21182889.5654   -4606247.63947  -3364817.58963
  22672180.1834   -5263675.75246  -3997666.91861
  22909320.3084     352943.52546    283930.84761
  23218221.386     4579683.629 6   3514166.93821
  23953373.964     -108721.657 5     52817.65821
  20998006.753      149636.309 6    119966.33622
 91  5  8 20 31 29.9990000  0  6G 2G 6G11G18G16G19
  21176693.3314   -4638805.04647  -3390186.95963
  22663850.159    -5307458.619 6  -4031783.38721
  22911563.2924     364735.73546    293119.59161
  23226157.4014    4621385.92545   3546662.02561
  23954510.4404    -102771.43745     57454.07761
  20998983.9564     154764.34946    123962.18362
 91  5  8 20 31 44.9990000  0  6G 2G 6G11G18G16G19
  21170512.8474   -4671286.05747  -3415496.79863
  22655520.019    -5351229.316 6  -4065890.36821
  22913834.2064     376671.24646    302419.97761
  23234101.7304    4663133.29445   3579192.23261
  23955662.894      -96713.312 5     62174.61021
  20999972.964      159962.563 6    128012.71022
 91  5  8 20 31 59.9990000  0  6G 2G 6G11G18G16G19
  21164346.4254   -4703692.00947  -3440748.15063
  22647192.9724   -5394989.02046  -4099988.78661
  22916134.987      388748.473 6    311830.79321
  23242053.745     4704924.100 5   3611756.26721
  23956834.3474     -90548.94845     66977.91961
  21000974.7454     165229.64046    132116.90062
 91  5  8 20 32 14.9990000  0  6G 2G 6G11G18G16G19
  21158191.2844   -4736033.53247  -3465949.30063
  22638866.6514   -5438748.33646  -4134086.90161
  22918455.3554     400956.83146    321343.79261
  23250009.526     4746747.668 5   3644345.84221
  23958029.7224     -84289.05045     71855.66661
  21001987.534      170555.158 6    136266.63022
 91  5  8 20 32 29.9990000  0  6G 2G 6G11G18G16G19
  21152051.6444   -4768299.13147  -3491091.28863
  22630540.503    -5482495.521 6  -4168175.56421
  22920807.2454     413307.71946    330967.84961
  23257976.144     4788615.115 5   3676969.60821
  23959235.987      -77922.453 5     76816.54321
  21003014.1204     175950.63646    140470.87462
 91  5  8 20 32 44.9990000  0  6G 2G 6G11G18G16G19
  21145926.3864   -4800489.45647  -3516174.62263
  22622218.675    -5526231.291 6  -4202255.33121
  22923183.0654     425800.00346    340702.08261
  23265953.972     4830525.315 5   3709626.68221
  23960469.940      -71449.764 5     81860.09721
  21004054.315      181415.403 6    144729.10722
 91  5  8 20 32 59.9990000  0  6G 2G 6G11G18G16G19
  21139814.6904   -4832609.35847  -3541203.08163
  22613898.144    -5569960.424 6  -4236329.93721
  22925588.6124     438428.74546    350542.65661
  23273935.9254    4872473.31245   3742313.21661
  23961719.800      -64876.289 5     86982.17721
  21005106.956      186944.799 6    149037.70622
 91  5  8 20 33 14.9990000  0  6G 2G 6G11G18G16G19
  21133714.7924   -4864658.73347  -3566176.58463
  22605575.878    -5613682.685 6  -4270399.18121
  22928016.3154     451194.04246    360489.63561
  23281925.565     4914459.053 5   3775029.15421
  23962989.6284     -58202.04945     92182.80161
  21006170.9094     192539.02246    153396.81562
 91  5  8 20 33 29.9990000  0  6G 2G 6G11G18G16G19
  21127628.6904   -4896641.78347  -3591098.40563
  22597257.355    -5657402.119 6  -4304466.22721
  22930469.8944     464091.43646    370539.54561
  23289921.769     4956478.052 5   3807771.00121
  23964279.503      -51431.699 5     97458.28721
  21007248.7924     198193.82346    157803.12362
 91  5  8 20 33 44.9990000  0  6G 2G 6G11G18G16G19
  21121557.1514   -4928547.69147  -3615960.11563
  22588940.870    -5701107.798 6  -4338522.55321
  22932952.1754     477131.53746    380700.65461
  23297927.9334    4998540.73945   3840546.88361
  23965589.487      -44554.726 5    102816.85321
  21008337.136      203920.136 6    162265.16122
 91  5  8 20 33 59.9990000  0  6G 2G 6G11G18G16G19
  21115500.7374   -4960379.39847  -3640764.01063
  22580625.2534   -5744802.91846  -4372570.65561
  22935459.9254     490311.00946    390970.36661
  23305938.9094    5040643.76845   3873354.21561
  23966914.4954     -37574.38045    108256.00261
  21009439.495      209715.128 6    166780.71322
 91  5  8 20 34 14.9990000  0  6G 2G 6G11G18G16G19
  21109455.8474   -4992141.95747  -3665514.01563
  22572310.753    -5788492.204 6  -4406614.20521
  22937993.7534     503624.62846    401344.61361
  23313959.0504    5082781.86945   3906188.87361
  23968262.690      -30496.020 5    113771.51321
  21010553.9484     215573.82046    171345.89962
 91  5  8 20 34 29.9990000  0  6G 2G 6G11G18G16G19
  21103424.4014   -5023837.20547  -3690211.57363
  22563998.300    -5832177.385 6  -4440654.56221
  22940552.5424     517070.58746    411821.97461
  23321982.9874    5124953.24645   3939049.46561
  23969625.9874     -23321.31445    119362.07761
  21011682.4484     221494.46046    175959.35462
 91  5  8 20 34 44.9990000  0  6G 2G 6G11G18G16G19
  21097405.6124   -5055458.77747  -3714851.72163
  22555687.839    -5875852.103 6  -4474686.75321
  22943135.6284     530654.87946    422407.13561
  23330015.183     5167163.747 5   3971940.52921
  23971011.8004     -16044.55945    125032.17361
  21012820.9254     227483.51046    180626.12262
 91  5  8 20 34 59.9990000  0  6G 2G 6G11G18G16G19
  21091404.2454   -5087001.42347  -3739430.37263
  22547378.159    -5919510.908 6  -4508706.55321
  22945749.5424     544382.50146    433103.97961
  23338057.019     5209418.416 5   4004866.01021
  23972420.440       -8660.502 5    130785.88321
  21013974.7304     233546.31346    185350.35462
 91  5  8 20 35 14.9990000  0  6G 2G 6G11G18G16G19
  21085415.6124   -5118472.10547  -3763952.94463
  22539073.628    -5963160.571 6  -4542719.23221
  22948387.2764     558246.48146    443907.07961
  23346106.089     5251710.220 5   4037820.44121
  23973844.7454      -1176.24845    136617.67061
  21015141.0734     239676.23946    190126.89362
 91  5  8 20 35 29.9990000  0  6G 2G 6G11G18G16G19
  21079439.8944   -5149872.63247  -3788420.85163
  22530769.058    -6006802.875 6  -4576726.17121
  22951052.0264     572244.63446    454814.73061
  23354160.3084    5294036.86745   4070801.99661
  23975285.3554       6405.76245    142525.62961
  21016320.284      245871.417 6    194954.28322
 91  5  8 20 35 44.9990000  0  6G 2G 6G11G18G16G19
  21073478.8004   -5181199.60347  -3812831.44163
  22522465.480    -6050434.503 6  -4610724.78921
  22953742.0734     586380.13946    465829.40961
  23362221.3864    5336401.25645   4103812.98061
  23976747.269       14088.619 5    148512.16521
  21017511.589      252135.015 6    199834.98022
 91  5  8 20 35 59.9990000  0  6G 2G 6G11G18G16G19
  21067532.0974   -5212452.64247  -3837184.42463
  22514165.136    -6094054.952 6  -4644714.70621
  22956457.3864     600653.26046    476951.31661
  23370291.0504    5378803.59245   4136853.51961
  23978227.730       21872.829 5    154577.67221
  21018715.7454     258467.72446    204769.53362
 91  5  8 20 36 14.9990000  0  5G 2G 6G11G18G19
  21061595.9254   -5243643.10047  -3861488.64063
  22505864.558    -6137675.428 6  -4678704.63421
  22959197.7374     615052.31646    488171.36761
  23378364.737     5421232.309 5   4169914.61021
  21019932.761      264858.149 6    209749.05922
 91  5  8 20 36 29.9990000  0  5G 2G 6G11G18G19
  21055674.8234   -5274761.88347  -3885737.00263
  22497564.128    -6181286.473 6  -4712687.21721
  22961963.6594     629586.58346    499496.76761
  23386446.3084    5463696.60245   4203003.43961
  21021163.565      271315.914 6    214781.06022
 91  5  8 20 36 44.9990000  0  5G 2G 6G11G18G19
  21049767.7144   -5305800.95647  -3909923.25263
  22489269.237    -6224880.193 6  -4746656.29621
  22964756.4404     644263.52046    510933.33961
  23394533.2304    5506204.11545   4236125.93161
  21022405.347      277848.793 6    219871.58922
 91  5  8 20 36 59.9990000  0  5G 2G 6G11G18G19
  21043877.2764   -5336755.49147  -3934043.63463
  22480980.1444   -6268451.70846  -4780608.06761
  22967576.8554     659087.79446    522484.73061
  23402632.159     5548759.262 5   4269285.53821
  21023666.3234     284461.73146    225024.49862
 91  5  8 20 37 14.9990000  0  5G 2G 6G11G18G19
  21038003.690    -5367628.541 7  -3958100.51323
  22472689.831    -6312003.802 6  -4814544.71321
  22970424.3084     674056.15146    534148.38661
  23410739.0424    5591358.69045   4302479.66061
  21024936.956      291151.673 6    230237.41622
 91  5  8 20 37 29.9990000  0  5G 2G 6G11G18G19
  21032140.5264   -5398434.20247  -3982104.88863
  22464402.925    -6355550.604 6  -4848477.23021
  22973299.8864     689154.36046    545913.21961
  23418851.8314    5633988.18845   4335697.20761
  21026220.0894     297904.70646    235499.49262
 91  5  8 20 37 44.9990000  0  5G 2G 6G11G18G19
  21026289.8624   -5429173.69047  -4006057.69463
  22456117.1054   -6399093.08746  -4882406.38261
  22976195.7304     704381.10046    557778.21061
  23426969.245     5676646.352 5   4368937.08721
  21027518.706      304719.727 6    240809.87522
 91  5  8 20 37 59.9990000  0  5G 2G 6G11G18G19
  21020454.6284   -5459838.52947  -4029952.33763
  22447832.5264   -6442622.71246  -4916325.51461
  22979120.4724     719744.59846    569749.76661
  23435093.2304    5719341.24245   4402205.59461
  21028831.948      311605.341 6    246175.26222
 91  5  8 20 38 14.9990000  0  5G 2G 6G11G18G19
  21014633.4644   -5490435.89347  -4053794.40063
  22439551.2374   -6486146.56746  -4950240.15361
  22982067.9954     735237.31446    581822.01061
  23443224.1284    5762065.12445   4435496.68661
  21030151.761      318554.517 6    251590.17622
 91  5  8 20 38 29.9990000  0  5G 2G 6G11G18G19
  21008823.7374   -5520959.54647  -4077579.02663
  22431271.9564   -6529658.41046  -4984145.42661
  22985042.2764     750865.31146    593999.66861
  23451361.8234    5804824.36045   4468815.32661
  21031489.183      325573.393 6    257059.40422
 91  5  8 20 38 44.9990000  0  5G 2G 6G11G18G19
  21003027.1984   -5551424.75247  -4101318.11163
  22422990.909    -6573173.287 6  -5018053.06521
  22988037.6984     766613.19246    606270.74961
  23459501.2694    5847603.19545   4502149.23861
  21032833.206      332646.863 6    262571.17122
 91  5  8 20 38 59.9990000  0  5G 2G 6G11G18G19
  20997243.4094   -5581820.60547  -4125003.15563
  22414711.136    -6616680.386 6  -5051954.65221
  22991060.6204     782491.48846    618643.44561
  23467649.847     5890412.346 5   4535506.76721
  21034195.800      339785.824 6    268133.97322
 91  5  8 20 39 14.9990000  0  5G 2G 6G11G18G19
  20991472.3394   -5612145.19347  -4148632.66763
  22406434.7764   -6660177.72046  -5085848.61561
  22994108.2764     798501.84746    631119.05361
  23475801.6904    5933253.27545   4568889.07461
  21035563.2694     346992.16946    273749.27862
 91  5  8 20 39 29.9990000  0  5G 2G 6G11G18G19
  20985715.5894   -5642397.67847  -4172205.99463
  22398158.7924   -6703664.23846  -5119734.15461
  22997178.9254     814645.00246    643698.13361
  23483961.8394    5976126.65845   4602296.64161
  21036947.0504     354266.82446    279417.81362
 91  5  8 20 39 44.9990000  0  5G 2G 6G11G18G19
  20979970.7614   -5672580.95647  -4195725.38963
  22389885.2764   -6747142.54246  -5153613.28661
  23000275.4874     830917.93146    656378.34661
  23492124.401     6019029.388 5   4635727.10521
  21038344.2764     361607.28946    285137.62862
 91  5  8 20 39 59.9990000  0  5G 2G 6G11G18G19
  20974240.4874   -5702702.09647  -4219196.37163
  22381612.636    -6790619.710 6  -5187491.54521
  23003394.5114     847313.17446    669153.86261
  23500292.542     6061954.195 5   4669174.75921
  21039753.0264     369006.37346    290903.11662
 91  5  8 20 40 14.9990000  0  5G 2G 6G11G18G19
  20968520.2694   -5732755.77547  -4242614.78763
  22373339.6514   -6834090.35146  -5221364.71061
  23006539.9874     863836.02746    682028.82361
  23508467.8784    6104906.12845   4702643.53161
  21041172.784      376469.678 6    296718.65122
 91  5  8 20 40 29.9990000  0  5G 2G 6G11G18G19
  20962815.8784   -5762734.86747  -4265975.08263
  22365070.206    -6877547.170 6  -5255227.11421
  23009708.3154     880493.24246    695008.47661
  23516645.7924    6147892.01445   4736138.78661
  21042609.4724     384004.22346    302589.69662
 91  5  8 20 40 44.9990000  0  5G 2G 6G11G18G19
  20957124.7844   -5792639.13747  -4289277.07363
  22356801.8784   -6920989.91746  -5289078.54761
  23012905.3784     897284.77146    708092.77761
  23524833.2534    6190912.18845   4769660.75361
  21044053.9484     391610.49746    308516.63062
 91  5  8 20 40 59.9990000  0  5G 2G 6G11G18G19
  20951445.6514   -5822483.31747  -4312532.24463
  22348536.5654   -6964433.08246  -5322930.30261
  23016122.7844     914195.81846    721270.22461
  23533023.995     6233951.369 5   4803197.49721
  21045512.4724     399273.68846    314487.92062
 91  5  8 20 41 14.9990000  0  5G 2G 6G11G18G19
  20945777.3624   -5852271.30747  -4335743.63063
  22340268.792    -7007880.426 6  -5356785.31821
  23019362.6284     931222.29146    734537.60761
  23541216.019     6277005.294 5   4836745.76321
  21046979.6594     406990.09046    320500.66962
 91  5  8 20 41 29.9990000  0  5G 2G 6G11G18G19
  20940122.8704   -5881987.28547  -4358898.90363
  22332004.1054   -7051316.27746  -5390631.37661
  23022628.8624     948379.58546    747906.92761
  23549415.214     6320089.486 5   4870317.60721
  21048461.9094     414775.42946    326567.13662
 91  5  8 20 41 44.9990000  0  5G 2G 6G11G18G19
  20934480.3314   -5911634.83347  -4382000.85163
  22323738.847    -7094743.827 6  -5424470.97821
  23025915.8624     965663.99846    761375.29961
  23557619.1124    6363200.21045   4903910.11561
  21049955.1444     422626.25546    332684.63362
 91  5  8 20 41 59.9990000  0  5G 2G 6G11G18G19
  20928852.4334   -5941214.62647  -4405050.00463
  22315475.1904   -7138163.52946  -5458304.45561
  23029228.9484     983074.84446    774942.18261
  23565826.925     6406336.518 5   4937522.55521
  21051462.480      430542.104 6    338852.79722
 91  5  8 20 42 14.9990000  0  5G 2G 6G11G18G19
  20923236.8784   -5970724.78447  -4428044.89863
  22307214.151    -7181573.684 6  -5492130.49121
  23032567.0584    1000613.57146    788608.71461
  23574039.9874    6449500.19945   4971156.32361
  21052982.1284     438524.79746    345073.04962
 91  5  8 20 42 29.9990000  0  5G 2G 6G11G18G19
  20917632.6054   -6000169.42547  -4450988.74163
  22298953.495    -7224978.309 6  -5525952.21821
  23035928.4644    1018275.78746    802371.48161
  23582261.105     6492686.685 5   5004807.89221
  21054513.9174     446570.28746    351342.22962
 91  5  8 20 42 44.9990000  0  5G 2G 6G11G18G19
  20912044.2764   -6029543.72447  -4473877.77063
  22290698.417    -7268372.288 6  -5559765.66421
  23039313.9014    1036066.07046    816234.03661
  23590481.597     6535900.548 5   5038480.76221
  21056054.7764     454683.50446    357664.18762
 91  5  8 20 42 59.9990000  0  5G 2G 6G11G18G19
  20906466.5114   -6058848.99447  -4496713.00963
  22282443.7694   -7311756.75746  -5593571.68161
  23042724.3314    1053983.02546    830195.30061
  23598712.261     6579140.059 5   5072173.64421
  21057612.6124     462863.44246    364038.13462
 91  5  8 20 43 14.9990000  0  5G 2G 6G11G18G19
  20900906.1284   -6088069.14547  -4519481.92663
  22274191.722    -7355115.586 6  -5627357.73221
  23046160.9014    1072042.48046    844267.60361
  23606948.956     6622421.207 5   5105898.96121
  21059185.3944     471126.32346    370476.71162
 91  5  8 20 43 29.9990000  0  5G 2G 6G11G18G19
  20895359.9874   -6117218.44647  -4542195.63363
  22265942.776    -7398462.777 6  -5661134.71621
  23049619.7304    1090229.95946    858439.65661
  23615190.6984    6665729.57945   5139645.47261
  21060770.9334     479457.91646    376968.82962
 91  5  8 20 43 44.9990000  0  5G 2G 6G11G18G19
  20889826.4874   -6146295.10047  -4564852.73163
  22257695.706    -7441796.576 6  -5694901.27021
  23053106.1054    1108547.06846    872712.72561
  23623436.2924    6709066.68845   5173414.38161
  21062368.7844     487859.94546    383515.83762
 91  5  8 20 43 59.9990000  0  5G 2G 6G11G18G19
  20884308.7374   -6175290.87647  -4587446.80563
  22249454.495    -7485108.720 6  -5728650.94221
  23056616.8234    1127001.70046    887092.94761
  23631690.6904    6752440.32645   5207211.74761
  21063984.9334     496340.65146    390124.14462
 91  5  8 20 44 14.9990000  0  5G 2G 6G11G18G19
  20878806.0424   -6204209.16847  -4609980.50663
  22241215.050    -7528402.387 6  -5762386.21921
  23060157.4404    1145590.22446    901577.50361
  23639950.026     6795847.024 5   5241034.87221
  21065611.9724     504896.74246    396791.19362
 91  5  8 20 44 29.9990000  0  5G 2G 6G11G18G19
  20873313.8624   -6233069.03647  -4632468.68463
  22232977.097    -7571696.491 6  -5796121.84021
  23063714.8864    1164293.30346    916151.32761
  23648212.690     6839267.209 5   5274868.53621
  21067250.7144     513509.29146    403502.23762
 91  5  8 20 44 44.9990000  0  5G 2G 6G11G18G19
  20867835.8704   -6261860.78247  -4654903.77963
  22224739.675    -7614981.368 6  -5829850.25721
  23067297.2304    1183120.45146    930821.82761
  23656480.7614    6882710.55145   5308720.20961
  21068901.5264     522187.92546    410264.77562
 91  5  8 20 44 59.9990000  0  5G 2G 6G11G18G19
  20862367.7844   -6290587.43647  -4677288.15363
  22216505.378    -7658259.680 6  -5863573.57321
  23070902.8084    1202068.59146    945586.61061
  23664752.722     6926173.862 5   5342587.44521
  21070565.6284     530929.89546    417076.66462
 91  5  8 20 45 14.9990000  0  5G 2G 6G11G18G19
  20856914.8394   -6319245.22747  -4699618.86363
  22208270.159    -7701527.660 6  -5897288.83021
  23074531.3554    1221140.93846    960448.17561
  23673027.8624    6969660.57445   5376472.92661
  21072242.4804     539738.97846    423940.85362
 91  5  8 20 45 29.9990000  0  5G 2G 6G11G18G19
  20851472.1514   -6347849.92347  -4721908.20763
  22200035.808    -7744801.071 6  -5931008.32421
  23078181.2764    1240321.38846    975393.97061
  23681303.9804    7013154.47745   5410364.01161
  21073929.8004     548599.51746    430845.13562
 91  5  8 20 45 44.9990000  0  5G 2G 6G11G18G19
  20846041.5034   -6376384.17647  -4744142.66363
  22191805.105    -7788062.130 6  -5964718.19421
  23081857.3944    1259627.52746    990437.71561
  23689585.9484    7056672.88045   5444274.17861
  21075627.6054     557529.22246    437803.31562
 91  5  8 20 45 59.9990000  0  5G 2G 6G11G18G19
  20840622.370    -6404861.479 7  -4766332.74023
  22183572.3704   -7831324.35046  -5998428.97261
  23085551.2534    1279045.41246   1005568.53061
  23697872.183     7100201.920 5   5478192.65021
  21077337.0814     566514.59546    444804.87462
 91  5  8 20 46 14.9990000  0  5G 2G 6G11G18G19
  20835215.190    -6433276.348 7  -4788474.17223
  22175341.0894   -7874582.12246  -6032136.28661
  23089269.1834    1298580.27146   1020790.49361
  23706156.558     7143746.827 5   5512123.48121
  21079058.5194     575561.06346    451854.04162
 91  5  8 20 46 29.9990000  0  5G 2G 6G11G18G19
  20829821.128    -6461617.464 7  -4810558.13623
  22167111.050    -7917823.875 6  -6065831.11421
  23093010.745     1318243.319 6   1036112.33521
  23714447.737     7187318.550 5   5546075.17321
  21080794.3474     584680.06846    458959.72862
 91  5  8 20 46 44.9990000  0  5G 2G 6G11G18G19
  20824440.550    -6489901.325 7  -4832597.48123
  22158881.761    -7961066.011 6  -6099526.24021
  23096775.1834    1338017.76846   1051520.98861
  23722740.1984    7230900.55745   5580034.91461
  21082540.4334     593855.24846    466109.18962
 91  5  8 20 46 59.9990000  0  5G 2G 6G11G18G19
  20819072.3624   -6518110.08147  -4854578.30263
  22150658.050    -8004290.512 6  -6133207.61821
  23100561.0504    1357921.26846   1067030.20961
  23731039.315     7274510.489 5   5614016.42421
  21084299.4954     603104.61146    473316.45662
 91  5  8 20 47 14.9990000  0  5G 2G 6G11G18G19
  20813716.464    -6546258.108 7  -4876511.80423
  22142432.159    -8047511.676 6  -6166886.40321
  23104370.9874    1377939.10346   1082628.51661
  23739342.4174    7318133.44245   5648008.05761
  21086072.1834     612413.58646    480570.17162
 91  5  8 20 47 29.9990000  0  5G 2G 6G11G18G19
  20808370.472    -6574350.237 7  -4898401.75323
  22134206.9874   -8090734.12546  -6200566.19161
  23108200.1284    1398066.22546   1098311.98661
  23747645.6124    7361764.69945   5682006.16161
  21087853.9564     621777.63146    487866.79862
 91  5  8 20 47 44.9990000  0  5G 2G 6G11G18G19
  20803037.800    -6602371.152 7  -4920236.20223
  22125984.230    -8133942.516 6  -6234235.02321
  23112053.089     1418317.639 6   1114092.29821
  23755952.8154    7405419.12445   5716022.33361
  21089649.1834     631212.02346    495218.24362
 91  5  8 20 47 59.9990000  0  5G 2G 6G11G18G19
  20797718.128    -6630324.411 7  -4942017.94023
  22117764.917    -8177140.314 6  -6267895.59621
  23115930.7454    1438689.58146   1129966.53461
  23764263.7694    7449092.75845   5750053.44061
  21091458.1284     640713.32146    502621.82462
 91  5  8 20 48 14.9990000  0  5G 2G 6G11G18G19
  20792412.847    -6658203.953 7  -4963742.23323
  22109546.425    -8220321.248 6  -6301543.03721
  23119831.8554    1459187.73046   1145939.11661
  23772578.5584    7492791.36245   5784104.01561
  21093279.3624     650287.61846    510082.28462
 91  5  8 20 48 29.9990000  0  5G 2G 6G11G18G19
  20787119.597    -6686021.822 7  -4985418.46923
  22101332.792    -8263497.338 6  -6335186.69721
  23123753.8004    1479799.78046   1162000.45261
  23780895.8154    7536502.76245   5818164.56461
  21095112.198      659922.839 6    517590.21922
 91  5  8 20 48 44.9990000  0  5G 2G 6G11G18G19
  20781839.8234   -6713770.61447  -5007040.87863
  22093117.925    -8306660.875 6  -6368820.57721
  23127698.7764    1500533.01946   1178156.21461
  23789219.0894    7580234.06945   5852240.63361
  21096958.745      669626.625 6    525151.59022
 91  5  8 20 48 59.9990000  0  5G 2G 6G11G18G19
  20776568.808    -6741468.040 7  -5028623.26123
  22084902.956    -8349829.451 6  -6402458.38521
  23131663.8624    1521369.45446   1194392.39661
  23797542.8004    7623967.43645   5886318.28261
  21098816.558      679381.476 6    532752.75022
 91  5  8 20 49 14.9990000  0  5G 2G 6G11G18G19
  20771310.5734   -6769100.59147  -5050155.09363
  22076688.136    -8392989.331 6  -6436089.41521
  23135652.4954    1542322.37446   1210719.34661
  23805866.745     7667716.347 5   5920408.08021
  21100683.800      689201.083 6    540404.36622
 91  5  8 20 49 29.9990000  0  5G 2G 6G11G18G19
  20766065.2064   -6796663.02047  -5071632.28263
  22068479.534    -8436135.250 6  -6469709.56321
  23139659.8624    1563396.72046   1227140.90961
  23814197.034     7711485.247 5   5954513.42121
  21102569.526      699090.512 6    548110.39322
 91  5  8 20 49 44.9990000  0  5G 2G 6G11G18G19
  20760831.0974   -6824168.61947  -5093065.18463
  22060269.144    -8479280.274 6  -6503329.01021
  23143692.7694    1584579.12346   1243646.67861
  23822526.636     7755260.883 5   5988624.04921
  21104459.605      709036.669 6    555860.61822
 91  5  8 20 49 59.9990000  0  5G 2G 6G11G18G19
  20755604.7764   -6851631.78847  -5114465.02463
  22052056.065    -8522438.659 6  -6536958.87322
  23147741.7064    1605854.94246   1260225.22761
  23830856.175     7799028.709 5   6022728.56421
  21106358.269      719025.162 6    563643.83522
 91  5  8 20 50 14.9990000  0  5G 2G 6G11G18G19
  20750388.2694   -6879044.19947  -5135825.30863
  22043843.026    -8565601.898 6  -6570592.51321
  23151809.8784    1627232.31046   1276882.91261
  23839184.2924    7842796.81245   6056833.30361
  21108270.730      729064.557 6    571466.72222
 91  5  8 20 50 29.9990000  0  5G 2G 6G11G18G19
  20745186.2144   -6906380.70947  -5157126.45363
  22035634.331    -8608744.695 6  -6604210.23222
  23155901.269     1648735.998 6   1293639.01921
  23847516.7614    7886590.29045   6090957.80161
  21110198.870      739180.175 6    579349.00222
 91  5  8 20 50 44.9990000  0  5G 2G 6G11G18G19
  20739997.1204   -6933655.46747  -5178379.47863
  22027424.042    -8651881.052 6  -6637822.92421
  23160014.0424    1670351.43446   1310482.21161
  23855853.5504    7930394.55245   6125090.72561
  21112131.503      749357.769 6    587279.57422
 91  5  8 20 50 59.9990000  0  5G 2G 6G11G18G19
  20734819.1514   -6960860.49647  -5199578.16763
  22019218.995    -8695003.022 6  -6671424.42121
  23164150.6754    1692086.31046   1327418.47461
  23864192.050     7974216.762 5   6159237.61221
  21114085.026      759605.206 6    595264.56422
 91  5  8 20 51 14.9990000  0  5G 2G 6G11G18G19
  20729654.9804   -6988001.32447  -5220726.83063
  22011014.5034   -8738115.90746  -6705018.82561
  23168308.8864    1713935.05946   1344443.47161
  23872532.792     8018051.731 5   6193394.44921
  21116044.167      769917.201 6    603299.86922
 91  5  8 20 51 29.9990000  0  5G 2G 6G11G18G19
  20724503.2764   -7015071.02647  -5241820.07163
  22002813.597    -8781212.630 6  -6738600.63922
  23172488.7224    1735904.25646   1361562.32561
  23880880.7224    8061905.91945   6227566.28261
  21118024.542      780300.812 6    611390.97122
 91  5  8 20 51 44.9980000  0  5G 2G 6G11G18G19
  20719363.5844   -7042085.13247  -5262869.98463
  21994611.443    -8824307.360 6  -6772180.90521
  23176689.1784    1757974.99246   1378760.29761
  23889226.326     8105759.093 5   6261737.28521
  21120007.490      790738.236 6    619524.01122
 91  5  8 20 51 59.9980000  0  5G 2G 6G11G18G19
  20714232.5844   -7069045.22147  -5283877.81263
  21986412.397    -8867403.744 6  -6805762.45522
  23180909.5924    1780151.83646   1396040.93761
  23897572.772     8149618.580 5   6295913.24021
  21122003.686      801232.858 6    627701.61622
 91  5  8 20 52 14.9980000  0  5G 2G 6G11G18G19
  20709115.1864   -7095934.16547  -5304830.20063
  21978213.662    -8910483.529 6  -6839331.07522
  23185152.1474    1802448.40446   1413414.89161
  23905923.2324    8193496.40245   6330103.48761
  21124014.045      811799.146 6    635935.07122
 91  5  8 20 52 29.9980000  0  5G 2G 6G11G18G19
  20704014.1624   -7122745.29847  -5325721.95963
  21970020.061    -8953539.874 6  -6872881.42521
  23189418.2564    1824870.98646   1430887.02861
  23914278.2254    8237399.39345   6364313.33261
  21126040.373      822443.893 6    644229.65622
 91  5  8 20 52 44.9980000  0  5G 2G 6G11G18G19
  20698920.6934   -7149511.32947  -5346578.56763
  21961825.889    -8996605.370 6  -6906438.90622
  23193704.7874    1847386.60846   1448431.66661
  23922630.3114    8281294.27245   6398516.84261
  21128075.014      833134.703 6    652560.13522
 91  5  8 20 52 59.9980000  0  5G 2G 6G11G18G19
  20693838.0924   -7176219.47247  -5367390.07363
  21953632.100    -9039667.038 6  -6939993.39821
  23198007.2014    1870007.90646   1466058.65261
  23930983.6864    8325193.78944   6432723.98961
  21130122.068      843884.229 6    660936.36722
 91  5  8 20 53 14.9980000  0  5G 2G 6G11G18G19
  20688766.7324   -7202866.51947  -5388153.97363
  21945438.397    -9082721.464 6  -6973542.25321
  23202333.0684    1892737.92046   1483770.35161
  23939341.3424    8369100.67344   6466936.84061
  21132176.584      854695.928 6    669361.04622
 91  5  8 20 53 29.9980000  0  5G 2G 6G11G18G19
  20683711.0924   -7229435.59447  -5408857.11263
  21937248.943    -9125751.511 6  -7007072.10921
  23206682.576     1915593.422 6   1501579.83821
  23947700.7644    8413031.81944   6501168.61261
  21134250.170      865586.663 6    677847.30922
 91  5  8 20 53 44.9980000  0  5G 2G 6G11G18G19
  20678669.8424   -7255927.06248  -5429499.78263
  21929066.084    -9168757.397 6  -7040583.14021
  23211055.6154    1938573.75246   1519486.59361
  23956065.3034    8456986.45444   6535418.68461
  21136338.311      876556.177 6    686394.95622
 91  5  8 20 53 59.9980000  0  5G 2G 6G11G18G19
  20673639.6234   -7282362.90948  -5450099.10963
  21920882.006    -9211761.030 6  -7074092.41921
  23215447.5294    1961656.44646   1537473.09461
  23964430.279     8500942.427 4   6569669.80821
  21138435.553      887582.578 6    694986.93722
 91  5  8 20 54 14.9980000  0  5G 2G 6G11G18G19
  20668619.9824   -7308738.91147  -5470651.80463
  21912700.443    -9254758.143 6  -7107596.61321
  23219860.3114    1984845.48346   1555542.47261
  23972793.1544    8544903.61544   6603924.96661
  21140546.201      898670.301 6    703626.69322
 91  5  8 20 54 29.9980000  0  5G 2G 6G11G18G19
  20663615.4824   -7335041.45248  -5491147.26164
  21904521.162    -9297734.617 6  -7141084.72921
  23224294.6864    2008154.41546   1573705.27361
  23981161.7254    8588883.63444   6638194.81861
  21142669.920      909833.079 6    712324.93722
 91  5  8 20 54 44.9980000  0  5G 2G 6G11G18G19
  20658621.0224   -7361280.54848  -5511593.28163
  21896345.584    -9340700.561 6  -7174564.63621
  23228751.6624    2031572.92346   1591953.46661
  23989531.8344    8632872.07544   6672471.23161
  21144806.607      921060.906 6    721073.87422
 91  5  8 20 54 59.9980000  0  5G 2G 6G11G18G19
  20653640.7644   -7387457.05847  -5531990.53364
  21888172.240    -9383656.618 6  -7208036.84421
  23233230.459     2055099.892 6   1610286.17821
  23997904.8734    8676867.79444   6706753.32061
  21146955.232      932352.883 6    729872.79322
 91  5  8 20 55 14.9980000  0  5G 2G 6G11G18G19
  20648672.4434   -7413561.93847  -5552331.96763
  21880001.295    -9426593.475 6  -7241494.09121
  23237729.1004    2078744.02146   1628710.17461
  24006278.8654    8720879.63544   6741047.99261
  21149117.693      943718.263 6    738728.90922
 91  5  8 20 55 29.9980000  0  4G 2G 6G11G19
  20643716.1784   -7439612.53448  -5572631.10664
  21871830.967    -9469528.508 6  -7274949.91221
  23242248.5684    2102487.61246   1647211.68561
  21151292.412      955139.688 6    747628.70222
 91  5  8 20 55 44.9980000  0  4G 2G 6G11G19
  20638770.6394   -7465595.49347  -5592877.53864
  21863663.342    -9512448.199 6  -7308393.77621
  23246788.1704    2126343.69546   1665800.84961
  21153478.670      966630.504 6    756582.55622
 91  5  8 20 55 59.9980000  0  4G 2G 6G11G19
  20633836.818    -7491518.114 7  -5613076.95824
  21855498.764    -9555359.705 6  -7341831.26521
  23251347.8814    2150304.82046   1684471.85461
  21155677.139      978183.601 6    765584.94122
 91  5  8 20 56 14.9980000  0  4G 2G 6G11G19
  20628919.1474   -7517365.35347  -5633217.63864
  21847335.381    -9598247.599 6  -7375250.35621
  23255928.7174    2174385.85546   1703236.30461
  21157888.647      989814.155 6    774647.68822
 91  5  8 20 56 29.9980000  0  4G 2G 6G11G19
  20624012.3424   -7543151.75047  -5653310.90564
  21839176.193    -9641126.255 6  -7408662.24721
  23260532.264     2198571.854 6   1722082.55221
  21160116.178     1001507.637 6    783759.47022
 91  5  8 20 56 44.9980000  0  4G 2G 6G11G19
  20619115.1154   -7568886.36447  -5673363.82264
  21831015.8504   -9684004.70346  -7442073.96861
  23265151.9514    2222853.47346   1741003.29661
  21162350.2324    1013255.07546    792913.28062
 91  5  8 20 56 59.9980000  0  4G 2G 6G11G19
  20614229.6314   -7594556.84547  -5693366.76964
  21822858.068    -9726870.439 6  -7475475.79421
  23269792.506     2247242.858 6   1760008.02121
  21164598.490     1025068.842 6    802118.79422
 91  5  8 20 57 14.9980000  0  4G 2G 6G11G19
  20609358.3184   -7620162.32447  -5713319.06464
  21814705.350    -9769722.416 6  -7508866.89421
  23274455.006     2271740.585 6   1779097.16721
  21166860.022     1036949.847 6    811376.69122
 91  5  8 20 57 29.9980000  0  4G 2G 6G11G19
  20604500.1004   -7645690.65147  -5733211.23863
  21806555.787    -9812548.282 6  -7542237.65021
  23279139.061     2296358.613 6   1798280.05321
  21169136.568     1048910.459 6    820696.62122
 91  5  8 20 57 44.9980000  0  4G 2G 6G11G19
  20599656.7174   -7671141.23847  -5753042.83964
  21798411.459    -9855347.418 6  -7575587.57521
  23283846.9674    2321097.18446   1817556.86161
  21171427.8974    1060951.23546    830079.01462
 91  5  8 20 57 59.9980000  0  4G 2G 6G11G19
  20594825.139    -7696536.527 7  -5772831.34924
  21790267.186    -9898141.747 6  -7608933.76021
  23288573.670     2345933.703 6   1836910.00721
  21173730.6474    1073049.94146    839506.54762
 91  5  8 20 58 14.9980000  0  4G 2G 6G11G19
  20590005.053    -7721857.229 7  -5792561.74124
  21782128.264    -9940911.871 6  -7642261.07321
  23293321.943     2370887.184 6   1856354.29521
  21176046.1704    1085226.05646    848994.39962
 91  5  8 20 58 29.9980000  0  4G 2G 6G11G19
  20585196.8184   -7747125.32647  -5812251.14164
  21773989.764    -9983679.724 6  -7675586.62421
  23298087.342     2395935.326 6   1875872.33821
  21178373.8504    1097457.61146    858525.45162
 91  5  8 20 58 44.9980000  0  4G 2G 6G11G19
  20580399.5764   -7772339.22347  -5831898.30564
  21765851.998   -10026443.455 6  -7708908.96021
  23302873.404     2421079.488 6   1895465.20921
  21180711.8034    1109746.30846    868101.02762
 91  5  8 20 58 59.9980000  0  4G 2G 6G11G19
  20575612.9754   -7797489.32647  -5851495.76164
  21757718.826   -10069193.229 6  -7742220.42421
  23307676.9984    2446328.92746   1915140.09561
  21183065.4124    1122101.71746    877728.58962
 91  5  8 20 59 14.9980000  0  4G 2G 6G11G19
  20570840.9514   -7822571.18247  -5871040.03564
  21749585.256   -10111924.596 6  -7775517.54521
  23312503.1154    2471687.74746   1934900.21661
  21185427.8344    1134528.45846    887411.73362
 91  5  8 20 59 29.9980000  0  4G 2G 6G11G19
  20566078.5844   -7847592.89447  -5890537.44564
  21741457.170   -10154645.450 6  -7808806.47322
  23317349.9594    2497147.69946   1954739.15061
  21187805.3894    1147018.34446    897144.08062
 91  5  8 20 59 44.9980000  0  4G 2G 6G11G19
  20561331.0534   -7872544.80947  -5909980.46664
  21733329.990   -10197345.862 6  -7842079.47721
  23322216.248     2522718.206 6   1974664.23221
  21190195.0144    1159581.14346    906933.24462
 91  5  8 20 59 59.9980000  0  4G 2G 6G11G19
  20556596.0224   -7897423.92747  -5929366.76564
  21725210.654   -10240022.732 6  -7875334.13022
  23327103.412     2548401.970 6   1994677.56021
  21192602.1934    1172219.96646    916781.64462
 91  5  8 21  0 14.9980000  0  4G 2G 6G11G19
  20551875.2324   -7922232.20847  -5948697.86364
  21717092.686   -10282677.848 6  -7908571.83421
  23332012.1234    2574196.65146   2014777.31761
  21195019.4904    1184932.85646    926687.76662
 91  5  8 21  0 29.9980000  0  4G 2G 6G11G19
  20547167.5454   -7946970.46348  -5967974.39763
  21708979.0224  -10325311.80946  -7941793.06162
  23336940.2954    2600101.22346   2034962.69761
  21197454.4204    1197719.12746    936651.06662
 91  5  8 21  0 44.9980000  0  4G 2G 6G11G19
  20542468.6474   -7971661.04148  -5987213.77963
  21700866.772   -10367946.638 6  -7975014.96022
  23341887.5534    2626093.21646   2055216.19361
  21199896.8184    1210556.57746    946654.24162
 91  5  8 21  0 59.9980000  0  4G 2G 6G11G19
  20537781.2794   -7996297.85548  -6006411.26564
  21692754.365   -10410576.309 6  -8008232.83822
  23346850.506     2652178.243 6   2075542.19521
  21202347.9594    1223451.14646    956701.92662
 91  5  8 21  1 14.9980000  0  4G 2G 6G11G19
  20533104.2094   -8020877.27148  -6025564.02663
  21684643.6154  -10453196.93446  -8041443.67962
  23351832.4514    2678359.75046   2095943.36661
  21204815.5224    1236406.75846    966797.17962
 91  5  8 21  1 29.9980000  0  4G 2G 6G11G19
  20528440.3814   -8045384.62448  -6044660.63264
  21676538.311   -10495793.532 6  -8074635.78222
  23356836.139     2704652.082 6   2116430.88321
  21207295.6234    1249438.24146    976951.54462
 91  5  8 21  1 44.9980000  0  4G 2G 6G11G19
  20523788.0844   -8069829.58048  -6063708.62064
  21668435.131   -10538375.715 6  -8107816.65322
  23361858.6784    2731045.21446   2136996.95461
  21209786.2174    1262535.87046    987157.46362
 91  5  8 21  1 59.9980000  0  4G 2G 6G11G19
  20519149.9204   -8094208.50248  -6082705.15164
  21660335.662   -10580939.644 6  -8140983.29922
  23366899.9284    2757542.48946   2157644.17861
  21212296.5924    1275703.27546    997417.75162
 91  5  8 21  2 14.9980000  0  4G 2G 6G11G19
  20514523.7254   -8118517.82448  -6101647.44964
  21652240.068   -10623481.531 6  -8174132.77322
  23371963.693     2784147.327 6   2178375.21321
  21214813.3184    1288944.37946   1007735.46462
 91  5  8 21  2 29.9980000  0  4G 2G 6G11G19
  20509907.2014   -8142776.17848  -6120550.03364
  21644145.482   -10666019.918 6  -8207279.52022
  23377042.7724    2810840.76346   2199175.29061
  21217342.2014    1302240.34146   1018095.92862
 91  5  8 21  2 44.9980000  0  4G 2G 6G11G19
  20505307.873    -8166946.671 8  -6139384.15724
  21636057.912   -10708517.574 6  -8240394.52722
  23382145.451     2837659.516 6   2220073.00521
  21219889.9434    1315628.20146   1028527.99862
 91  5  8 21  2 59.9980000  0  4G 2G 6G11G19
  20500720.6234   -8191051.46748  -6158167.08364
  21627974.639   -10750996.475 6  -8273494.92022
  23387268.522     2864581.163 6   2241050.89621
  21222454.9674    1329086.11946   1039014.65362
 91  5  8 21  3 14.9980000  0  4G 2G 6G11G19
  20496143.0844   -8215103.89547  -6176909.20864
  21619892.428   -10793469.767 6  -8306590.94722
  23392409.6074    2891592.13146   2262098.39661
  21225022.7404    1342600.58646   1049545.37862
 91  5  8 21  3 29.9980000  0  4G 2G 6G11G19
  20491579.7404   -8239085.72848  -6195596.32163
  21611814.045   -10835919.018 6  -8339668.23522
  23397569.068     2918710.357 6   2283229.46421
  21227610.529     1356189.832 6   1060134.37922
 91  5  8 21  3 44.9980000  0  4G 2G 6G11G19
  20487028.686    -8263003.445 8  -6214233.47823
  21603739.467   -10878350.632 6  -8372731.78722
  23402749.0294    2945928.85946   2304438.68661
  21230209.5224    1369847.52946   1070776.71062
 91  5  8 21  3 59.9980000  0  4G 2G 6G11G19
  20482489.178    -8286857.577 7  -6232821.08824
  21595669.248   -10920764.935 6  -8405781.84522
  23407945.8114    2973246.81746   2325725.40761
  21232823.701     1383573.170 6   1081471.98822
 91  5  8 21  4 14.9980000  0  4G 2G 6G11G19
  20477963.818    -8310640.010 7  -6251352.83024
  21587601.701   -10963153.681 6  -8438811.98922
  23413166.5614    3000672.11646   2347095.76261
  21235448.5844    1397375.01346   1092226.64362
 91  5  8 21  4 29.9980000  0  4G 2G 6G11G19
  20473449.436    -8334359.898 7  -6269835.83724
  21579538.279   -11005525.725 6  -8471829.12522
  23418403.6624    3028195.37946   2368542.46861
  21238085.8114    1411243.95046   1103033.57562
 91  5  8 21  4 44.9980000  0  4G 2G 6G11G19
  20468950.076    -8358008.857 8  -6288263.57724
  21571479.287   -11047872.325 6  -8504826.43322
  23423661.8344    3055824.80746   2390071.89161
  21240737.9434    1425188.67546   1113899.56162
 91  5  8 21  4 59.9980000  0  4G 2G 6G11G19
  20464461.287    -8381592.880 7  -6306640.71724
  21563425.287   -11090199.449 6  -8537808.56422
  23428939.6314    3083553.97546   2411679.02461
  21243407.2014    1439203.06946   1124819.84162
 91  5  8 21  5 14.9980000  0  4G 2G 6G11G19
  20459984.068    -8405115.607 8  -6324970.09324
  21555375.1074  -11132510.46246  -8570778.14462
  23434233.0224    3111379.12246   2433360.95361
  21246085.0764    1453283.51646   1135791.58662
 91  5  8 21  5 29.9980000  0  4G 2G 6G11G19
  20455520.037    -8428580.722 8  -6343254.57624
  21547325.045   -11174808.764 6  -8603737.81122
  23439545.7254    3139296.50046   2455114.75161
  21248779.084     1467426.619 6   1146812.16022
 91  5  8 21  5 44.9980000  0  4G 2G 6G11G19
  20451066.045    -8451988.298 8  -6361494.22424
  21539278.7484  -11217094.28246  -8636687.52962
  23444874.639     3167305.479 6   2476939.91321
  21251480.217     1481632.289 6   1157881.47922
 91  5  8 21  5 59.9980000  0  4G 2G 6G11G19
  20446622.154    -8475341.606 8  -6379691.59024
  21531233.3184  -11259370.16346  -8669629.73462
  23450221.5684    3195402.49946   2498833.69561
  21254194.7324    1495897.17146   1168996.94762
 91  5  8 21  6 14.9980000  0  4G 2G 6G11G19
  20442187.842    -8498641.620 8  -6397847.42424
  21523191.3654  -11301637.20946  -8702565.05462
  23455586.1784    3223586.25346   2520795.06661
  21256919.850     1510220.501 6   1180157.95422
 91  5  8 21  6 29.9980000  0  4G 2G 6G11G19
  20437767.014    -8521871.685 8  -6415948.75124
  21515152.0294  -11343878.51246  -8735480.31562
  23460969.803     3251873.166 6   2542836.81421
  21259660.1704    1524619.00146   1191377.53362
 91  5  8 21  6 44.9980000  0  4G 2G 6G11G19
  20433359.326    -8545038.131 8  -6434000.50624
  21507116.6234  -11386100.11846  -8768380.22762
  23466369.2724    3280256.59446   2564953.76561
  21262412.8814    1539086.34546   1202650.76362
 91  5  8 21  6 59.9980000  0  4G 2G 6G11G19
  20428962.154    -8568143.295 8  -6452004.51324
  21499087.287   -11428304.376 6  -8801266.62222
  23471788.7644    3308733.88746   2587143.86761
  21265179.9824    1553620.21646   1213975.82762
 91  5  8 21  7 14.9980000  0  4G 2G 6G11G19
  20424577.943    -8591186.772 8  -6469960.44724
  21491058.4434  -11470490.53246  -8834138.90962
  23477226.3264    3337305.17746   2609407.19761
  21267957.8734    1568221.11646   1225353.12062
 91  5  8 21  7 29.9980000  0  4G 2G 6G11G19
  20420206.162    -8614158.363 8  -6487860.36924
  21483037.4674  -11512648.26446  -8866989.05162
  23482680.8344    3365980.26546   2631751.41961
  21270750.857     1582899.355 6   1236790.68222
 91  5  8 21  7 44.9980000  0  4G 2G 6G11G19
  20415846.201    -8637072.900 8  -6505715.83124
  21475016.1934  -11554792.18246  -8899828.43262
  23488156.3184    3394744.08146   2654164.78361
  21273555.7404    1597640.19946   1248277.02262
 91  5  8 21  7 59.9980000  0  4G 2G 6G11G19
  20411495.529    -8659925.950 8  -6523523.37824
  21467001.1394  -11596917.53646  -8932653.35262
  23493647.803     3423600.939 6   2676650.62721
  21276374.1234    1612448.11546   1259815.63062
 91  5  8 21  8 14.9980000  0  4G 2G 6G11G19
  20407156.967    -8682727.764 8  -6541291.00324
  21458985.0294  -11639034.47046  -8965471.70262
  23499151.8034    3452540.21046   2699200.71461
  21279202.6934    1627312.86546   1271398.52362
 91  5  8 21  8 29.9980000  0  4G 2G 6G11G19
  20402830.334    -8705467.291 8  -6559010.09324
  21450974.8034  -11681131.62046  -8998274.64362
  23504679.1624    3481572.80446   2721823.50561
  21282045.1864    1642245.73446   1283034.48562
 91  5  8 21  8 44.9980000  0  4G 2G 6G11G19
  20398513.373    -8728155.986 8  -6576689.57424
  21442965.4514  -11723220.32146  -9031070.99562
  23510218.0144    3510686.83546   2744509.76061
  21284897.0454    1657235.17046   1294714.53762
 91  5  8 21  8 59.9980000  0  4G 2G 6G11G19
  20394205.889    -8750793.492 8  -6594329.16624
  21434957.9284  -11765300.03147  -9063860.34262
  23515773.6074    3539882.39446   2767259.53861
  21287762.3114    1672281.51846   1306438.92762
 91  5  8 21  9 14.9980000  0  4G 2G 6G11G19
  20389909.404    -8773364.606 8  -6611917.02724
  21426956.5844  -11807355.38746  -9096630.71362
  23521349.6934    3569174.36346   2790084.45661
  21290636.7254    1687400.03446   1318219.55862
 91  5  8 21  9 29.9980000  0  4G 2G 6G11G19
  20385629.209    -8795859.051 8  -6629445.14524
  21418958.3574  -11849375.85646  -9129373.89662
  23526941.0064    3598572.84345   2812992.35661
  21293530.0764    1702601.17446   1330064.57062
 91  5  8 21  9 44.9980000  0  4G 2G 6G11G19
  20381361.373    -8818290.579 8  -6646924.23624
  21410966.2564  -11891374.77846  -9162100.29962
  23532556.201     3628063.849 6   2835972.34821
  21296436.0454    1717871.52146   1341963.50562
 91  5  8 21  9 59.9980000  0  4G 2G 6G11G19
  20377101.615    -8840671.940 8  -6664364.23724
  21402976.8654  -11933364.88546  -9194819.82062
  23538180.8894    3657634.20546   2859014.17861
  21299351.9044    1733198.13446   1353906.28462
 91  5  8 21 10 14.9980000  0  4G 2G 6G11G19
  20372854.357    -8862990.177 8  -6681755.05024
  21394991.0224  -11975332.85246  -9227522.08562
  23543826.2644    3687296.61945   2882127.75061
  21302281.7484    1748594.10546   1365903.10362
 91  5  8 21 10 29.9980000  0  4G 2G 6G11G19
  20368623.678    -8885227.878 8  -6699083.10924
  21387011.3114  -12017261.18646  -9260193.47662
  23549490.436     3717068.194 5   2905326.36821
  21305230.0064    1764076.80446   1377967.51062
 91  5  8 21 10 44.9980000  0  4G 2G 6G11G19
  20364403.561    -8907404.020 8  -6716363.19724
  21379035.8974  -12059168.68246  -9292848.62762
  23555175.1934    3746929.61945   2928595.00061
  21308187.7644    1779627.50346   1390084.89962
 91  5  8 21 10 59.9980000  0  4G 2G 6G11G19
  20360195.467    -8929515.199 8  -6733592.66624
  21371066.5224  -12101051.69246  -9325484.70562
  23560873.4284    3776883.94546   2951936.02361
  21311160.498     1795249.514 6   1402257.85222
 91  5  8 21 11 14.9980000  0  4G 2G 6G11G19
  20355996.850    -8951579.094 8  -6750785.28724
  21363096.4044  -12142927.58246  -9358115.23662
  23566588.8344    3806913.22746   2975335.47761
  21314143.0454    1810925.46046   1414472.83662
 91  5  8 21 11 29.9980000  0  4G 2G 6G11G19
  20351810.123    -8973578.013 8  -6767927.27824
  21355133.9124  -12184778.55046  -9390726.33862
  23572320.4204    3837034.91146   2998806.90961
  21317141.0454    1826672.94646   1426743.56262
 91  5  8 21 11 44.9980000  0  4G 2G 6G11G19
  20347636.389    -8995517.525 8  -6785022.97824
  21347174.7254  -12226609.90646  -9423322.17262
  23578069.443     3867243.207 6   3022345.83421
  21320148.6704    1842486.38446   1439065.68262
 91  5  8 21 11 59.9980000  0  4G 2G 6G11G19
  20343472.584    -9017393.784 8  -6802069.38924
  21339218.3264  -12268417.61646  -9455899.57062
  23583835.4754    3897541.59846   3045954.96761
  21323172.350     1858369.613 6   1451442.18222
 91  5  8 21 12 14.9980000  0  4G 2G 6G11G19
  20339320.389    -9039211.487 8  -6819070.17324
  21331266.0534  -12310206.04146  -9488461.94362
  23589617.0294    3927925.25546   3069630.55961
  21326208.3264    1874318.21246   1463869.62262
 91  5  8 21 12 29.9980000  0  4G 2G 6G11G19
  20335180.584    -9060967.036 8  -6836022.52223
  21323318.9904  -12351971.41946  -9521006.35862
  23595414.2874    3958397.44046   3093375.10361
  21329255.342     1890335.824 6   1476350.83522
 91  5  8 21 12 44.9980000  0  4G 2G 6G11G19
  20331054.545    -9082648.556 8  -6852917.18824
  21315378.0224  -12393701.67746  -9553523.39962
  23601234.5224    3988969.78446   3117197.71861
  21332318.553     1906434.406 6   1488895.14122
 91  5  8 21 12 59.9980000  0  4G 2G 6G11G19
  20326938.514    -9104277.718 8  -6869771.05624
  21307439.7014  -12435418.17446  -9586029.72262
  23607065.4754    4019620.14146   3141081.10961
  21335393.3184    1922592.34646   1501485.70562
 91  5  8 21 13 14.9980000  0  4G 2G 6G11G19
  20322833.436    -9125853.895 8  -6886583.63824
  21299503.8184  -12477120.15946  -9618524.73762
  23612911.0534    4050348.89546   3165025.59161
  21338479.576     1938810.121 6   1514122.88322
 91  5  8 21 13 29.9980000  0  4G 2G 6G11G19
  20318739.693    -9147367.522 8  -6903347.47824
  21291572.7954  -12518797.98946  -9651000.92562
  23618776.623     4081165.212 6   3189038.30121
  21341577.6074    1955097.19146   1526814.06762
 91  5  8 21 13 44.9980000  0  4G 2G 6G11G19
  20314660.201    -9168801.662 8  -6920049.37823
  21283649.1154  -12560434.52346  -9683444.94062
  23624660.951     4112085.621 6   3213132.11021
  21344694.8734    1971470.62446   1539572.54761
 91  5  8 21 13 59.9980000  0  4G 2G 6G11G19
  20310590.795    -9190187.100 8  -6936713.33523
  21275727.2174  -12602060.05547  -9715880.39062
  23630559.9434    4143079.38046   3237283.08661
  21347821.232     1987899.829 6   1552374.47722
 91  5  8 21 14 14.9980000  0  4G 2G 6G11G19
  20306531.068    -9211524.163 8  -6953339.59224
  21267807.7094  -12643674.72547  -9748307.36662
  23636470.1784    4174145.72345   3261490.62561
  21350957.670     2004384.701 6   1565219.78422
 91  5  8 21 14 29.9980000  0  4G 2G 6G11G19
  20302485.0294   -9232791.49348  -6969911.51064
  21259895.6784  -12685256.93546  -9780709.04862
  23642402.7564    4205305.89645   3285771.27661
  21354113.779     2020946.745 6   1578125.23521
 91  5  8 21 14 44.9980000  0  4G 2G 6G11G19
  20298447.264    -9254001.012 8  -6986438.38524
  21251986.748   -12726818.247 6  -9813094.44622
  23648348.561     4236547.690 5   3310115.50721
  21357272.537     2037574.181 6   1591081.63022
 91  5  8 21 14 59.9980000  0  4G 2G 6G11G19
  20294423.756    -9275144.441 8  -7002913.76124
  21244083.6864  -12768350.55847  -9845457.23962
  23654308.7404    4267878.85645   3334529.39361
  21360451.389     2054274.926 6   1604095.15522
 91  5  8 21 15 14.9980000  0  4G 2G 6G11G19
  20290413.303    -9296221.502 8  -7019337.41924
  21236184.1394  -12809853.15347  -9877796.88362
  23660289.3654    4299299.41545   3359012.94261
  21363643.2644    2071049.45546   1617166.17461
 91  5  8 21 15 29.9980000  0  4G 2G 6G11G19
  20286410.209    -9317253.611 8  -7035726.05124
  21228289.8574  -12851347.28447  -9910129.93562
  23666281.2174    4330787.61145   3383549.18661
  21366848.4284    2087876.35746   1630278.00662
 91  5  8 21 15 44.9980000  0  4G 2G 6G11G19
  20282418.7094   -9338233.21748  -7052073.77164
  21220396.5534  -12892825.04347  -9942450.22562
  23672284.9364    4362350.79445   3408143.87461
  21370059.506     2104763.479 6   1643436.75322
 91  5  8 21 15 59.9980000  0  4G 2G 6G11G19
  20278440.217    -9359142.655 8  -7068366.81223
  21212509.7724  -12934268.50147  -9974743.79162
  23678308.9984    4394006.41845   3432810.60261
  21373289.9284    2121728.50346   1656656.21562
 91  5  8 21 16 14.9980000  0  4G 2G 6G11G19
  20274475.920    -9379974.701 8  -7084599.55124
  21204632.717   -12975670.513 7 -10007005.05422
  23684352.475     4425761.224 5   3457554.61021
  21376532.482     2138778.427 6   1669941.82622
 91  5  8 21 16 29.9980000  0  4G 2G 6G11G19
  20270524.842    -9400735.082 8  -7100776.44724
  21196760.6004  -13017036.30547 -10039238.10062
  23690412.7014    4457609.26745   3482371.27261
  21379797.4824    2155907.73746   1683289.30062
 91  5  8 21 16 44.9980000  0  4G 2G 6G11G19
  20266590.131    -9421414.929 8  -7116890.58823
  21188895.6934  -13058356.94947 -10071435.96562
  23696491.5534    4489559.05845   3507267.20661
  21383067.717     2173125.186 6   1696705.45021
 91  5  8 21 16 59.9980000  0  4G 2G 6G11G19
  20262663.764    -9442041.090 8  -7132962.89624
  21181037.2094  -13099658.97247 -10103619.32162
  23702587.5844    4521583.57346   3532221.38361
  21386356.912     2190404.043 6   1710169.45022
 91  5  8 21 17 14.9980000  0  4G 2G 6G11G19
  20258748.264    -9462619.662 8  -7148998.12324
  21173180.670   -13140948.180 7 -10135792.68622
  23708695.084     4553676.411 6   3557228.79821
  21389655.123     2207738.242 6   1723676.57721
 91  5  8 21 17 29.9980000  0  4G 2G 6G11G19
  20254845.248    -9483130.043 8  -7164980.21523
  21165329.490   -13182203.753 7 -10167939.84322
  23714817.5684    4585857.81346   3582305.21661
  21392968.4984    2225148.54646   1737243.00662
 91  5  8 21 17 44.9980000  0  4G 2G 6G11G19
  20250953.045    -9503585.201 8  -7180919.27423
  21157481.6074  -13223438.46547 -10200070.74662
  23720956.2724    4618114.46946   3607440.26961
  21396294.2484    2242622.11546   1750858.73261
 91  5  8 21 17 59.9980000  0  4G 2G 6G11G19
  20247071.045    -9523984.420 8  -7196814.74623
  21149640.7174  -13264651.12047 -10232184.46262
  23727110.1864    4650446.97046   3632634.42461
  21399632.8344    2260159.84146   1764524.45061
 91  5  8 21 18 14.9980000  0  4G 2G 6G11G19
  20243199.350    -9544333.067 8  -7212670.81324
  21141800.381   -13305847.081 7 -10264285.16922
  23733275.0294    4682849.69546   3657883.29161
  21402979.4044    2277756.43146   1778236.03461
 91  5  8 21 18 29.9980000  0  4G 2G 6G11G19
  20239338.654    -9564616.436 8  -7228476.01423
  21133968.170   -13347011.274 7 -10296361.12222
  23739458.3504    4715336.93646   3683198.01761
  21406342.0294    2295426.61046   1792004.96761
 91  5  8 21 18 44.9980000  0  4G 2G 6G11G19
  20235488.959    -9584851.134 8  -7244243.29123
  21126136.8184  -13388160.20247 -10328425.17762
  23745650.9904    4747891.75846   3708565.39961
  21409715.4824    2313153.70646   1805818.24961
 91  5  8 21 18 59.9980000  0  4G 2G 6G11G19
  20231650.803    -9605017.680 8  -7259957.45923
  21118313.7484  -13429274.10747 -10360461.94962
  23751864.5844    4780533.36146   3734000.41361
  21413103.928     2330957.163 6   1819691.03221
 91  5  8 21 19 14.9980000  0  4G 2G 6G11G19
  20227826.076    -9625117.364 8  -7275619.52823
  21110495.8894  -13470354.25247 -10392472.40962
  23758091.982     4813259.953 5   3759501.63721
  21416506.6074    2348835.76746   1833622.37061
 91  5  8 21 19 29.9980000  0  4G 2G 6G11G19
  20224013.725    -9645155.381 8  -7291233.54823
  21102683.1704  -13511405.44147 -10424460.30962
  23764332.998     4846066.024 5   3785064.79221
  21419920.537     2366784.335 6   1847608.22621
 91  5  8 21 19 44.9980000  0  4G 2G 6G11G19
  20220213.881    -9665123.215 8  -7306792.87924
  21094879.8574  -13552418.89447 -10456418.80962
  23770595.248     4878960.031 5   3810696.47721
  21423352.0454    2384811.48546   1861655.31161
 91  5  8 21 19 59.9980000  0  4G 2G 6G11G19
  20216423.787    -9685038.370 8  -7322311.16423
  21087079.436   -13593411.830 7 -10488361.31222
  23776864.061     4911924.306 5   3836382.91121
  21426794.420     2402899.701 6   1875749.98221
 91  5  8 21 20 14.9980000  0  4G 2G 6G11G19
  20212646.482    -9704888.188 8  -7337778.53524
  21079285.0614  -13634371.39447 -10520277.81562
  23783155.3114    4944971.08645   3862133.64661
  21430249.920     2421061.485 6   1889901.97521
 91  5  8 21 20 29.9980000  0  4G 2G 6G11G19
  20208880.186    -9724680.061 8  -7353200.75324
  21071494.928   -13675304.672 7 -10552173.83522
  23789457.561     4978092.633 5   3887942.63621
  21433719.436     2439289.649 6   1904105.69321
 91  5  8 21 20 44.9980000  0  4G 2G 6G11G19
  20205125.600    -9744412.802 8  -7368576.89823
  21063711.4284  -13716210.32947 -10584048.33562
  23795773.287     5011289.796 5   3913810.52821
  21437201.3504    2457585.63646   1918362.27061
 91  5  8 21 20 59.9980000  0  4G 2G 6G11G19
  20201377.772    -9764105.431 8  -7383921.78624
  21055928.1234  -13757107.05147 -10615915.87062
  23802102.654     5044543.365 5   3939722.38921
  21440693.061     2475930.630 6   1932657.01721
 91  5  8 21 21 14.9980000  0  5G 2G 6G11G15G19
  20197639.139    -9783756.019 8  -7399233.91624
  21048147.2484  -13797992.66347 -10647774.75262
  23808440.8734    5077854.98145   3965679.46861
  23608274.1394         -0.56455
  21444191.592     2494326.302 6   1946991.26121
 91  5  8 21 21 29.9980000  0  5G 2G 6G11G15G19
  20193912.381    -9803335.665 8  -7414490.76724
  21040375.4284  -13838838.16347
  23814797.2644    5111252.99845   3991703.91161
  23600477.9984     -40954.30045
  21447710.7564    2512801.42146   1961387.41561
 91  5  8 21 21 44.9980000  0  5G 2G 6G11G15G19
  20190199.342    -9822845.451 8  -7429693.18524
  21032610.7954  -13879644.42347
  23821166.5844    5144736.10645   4017794.63761
  23592701.0224     -81823.27345
  21451238.232     2531355.004 6   1975844.70721
 91  5  8 21 21 59.9980000  0  5G 2G 6G11G15G19
  20186498.717    -9842294.786 8  -7444848.49623
  21024851.451   -13920420.370 7
  23827552.9904    5178294.80945   4043944.27161
  23584939.3424    -122616.49445
  21454783.475     2549978.019 6   1990356.10021
 91  5  8 21 22 14.9980000  0  5G 2G 6G11G15G19
  20182806.740    -9861695.954 8  -7459966.27324
  21017095.6234  -13961177.94247
  23833952.8894    5211916.50646   4070142.97961
  23577190.2794    -163345.60445
  21458336.748     2568658.181 6   2004912.01921
 91  5  8 21 22 29.9980000  0  5G 2G 6G11G15G19
  20179124.568    -9881047.011 8  -7475045.00324
  21009342.9984  -14001915.37747 -10806675.37962
  23840362.9124    5245602.60546   4096391.89861
  23569449.8424    -204008.69044
  21461904.162     2587397.225 6   2019513.81921
 91  5  8 21 22 44.9980000  0  4G 2G 6G15G19
  20175456.881    -9900323.459 8  -7490065.59524
  21001598.1784  -14042607.68347 -10838383.63262
  23561729.6154    -244580.48345
  21465484.264     2606220.003 6   2034180.87121
 91  5  8 21 22 59.9980000  0  4G 2G 6G15G19
  20171800.537    -9919537.795 8  -7505037.78724
  20993862.2564  -14083267.06747 -10870066.23062
  23554021.9824    -285073.18245
  21469081.514     2625113.792 6   2048903.25221
 91  5  8 21 23 14.9980000  0  4G 2G 6G15G19
  20168155.732    -9938688.198 8  -7519960.16324
  20986131.3814  -14123891.47247 -10901721.57262
  23546335.014     -325484.379 5        -0.04931
  21472689.857     2644080.634 6   2063682.55821
 91  5  8 21 23 29.9980000  0  4G 2G 6G15G19
  20164523.818    -9957777.558 8  -7534834.97324
  20978405.8734  -14164483.56447 -10933351.73662
  23538658.912     -365816.530 5    -31427.57821
  21476311.904     2663117.549 6   2078516.46921
 91  5  8 21 23 44.9980000  0  4G 2G 6G15G19
  20160902.561    -9976805.263 8  -7549661.73724
  20970689.5144  -14205042.55047 -10964956.10762
  23531000.357     -406068.635 5    -62792.70721
  21479947.553     2682225.237 6   2093405.52321
 91  5  8 21 23 59.9980000  0  4G 2G 6G15G19
  20157295.686    -9995760.119 8  -7564431.74024
  20962979.9044  -14245556.86847 -10996525.66562
  23523355.1864    -446229.35045    -94086.63561
  21483600.217     2701414.956 6   2108358.49921
 91  5  8 21 24 14.9970000  0  4G 2G 6G15G19
  20153701.876   -10014646.504 8  -7579148.38624
  20955276.7904  -14286029.22847 -11028062.53762
  23515732.1424    -486301.06645   -125311.17961
  21487266.165     2720679.864 6   2123370.06321
 91  5  8 21 24 29.9970000  0  4G 2G 6G15G19
  20150120.931   -10033462.540 8  -7593810.21324
  20947582.6344  -14326460.56547 -11059567.44062
  23508123.2044    -526284.39745   -156466.88661
  21490948.954     2740026.734 6   2138445.49921
 91  5  8 21 24 44.9970000  0  4G 2G 6G15G19
  20146550.595   -10052224.361 8  -7608429.79924
  20939895.0794  -14366865.23647 -11091051.56562
  23500530.7904    -566193.49445   -187564.75461
  21494641.837     2759437.147 6   2153570.44421
 91  5  8 21 24 59.9970000  0  4G 2G 6G15G19
  20142989.298   -10070939.654 8  -7623013.12224
  20932210.7354  -14407250.66747 -11122520.70262
  23492947.0644    -606035.78545   -218610.56961
  21498346.603     2778903.387 6   2168738.89521
 91  5  8 21 25 14.9970000  0  4G 2G 6G15G19
  20139437.470   -10089602.879 8  -7637555.87724
  20924530.2204  -14447611.01147 -11153970.29262
  23485379.767     -645805.103 5   -249599.49721
  21502061.392     2798431.235 6   2183955.34721
 91  5  8 21 25 29.9970000  0  4G 2G 6G15G19
  20135898.173   -10108201.170 8  -7652048.02924
  20916856.3604  -14487933.22447 -11185390.16762
  23477826.5094    -685488.50745   -280521.49061
  21505791.923     2818033.201 6   2199229.55721
 91  5  8 21 25 44.9970000  0  4G 2G 6G15G19
  20132368.095   -10126755.456 8  -7666505.89123
  20909186.8684  -14528237.87047 -11216796.35262
  23470289.626     -725106.243 5   -311392.31821
  21509531.376     2837688.642 6   2214545.43821
 91  5  8 21 25 59.9970000  0  4G 2G 6G15G19
  20128846.751   -10145259.468 8  -7680924.57824
  20901522.0794  -14568518.51547 -11248183.83862
  23462763.9544    -764651.73645   -342206.82361
  21513281.6494    2857403.81446   2229907.85661
 91  5  8 21 26 14.9970000  0  4G 2G 6G15G19
  20125336.009   -10163706.273 8  -7695298.68723
  20893861.9624  -14608767.82547 -11279546.90762
  23455252.814     -804117.360 5   -372959.12521
  21517047.743     2877185.750 6   2245322.30221
 91  5  8 21 26 29.9970000  0  4G 2G 6G15G19
  20121836.384   -10182094.831 8  -7709627.41324
  20886208.4154  -14648984.55547 -11310884.59062
  23447755.610     -843501.824 5   -403648.17021
  21520824.978     2897035.576 6   2260789.65121
 91  5  8 21 26 44.9970000  0  4G 2G 6G15G19
  20118350.228   -10200415.851 8  -7723903.50523
  20878564.7674  -14689159.14847 -11342189.43763
  23440279.017     -882795.602 5   -434266.57521
  21524617.173     2916962.572 6   2276317.12921
 91  5  8 21 26 59.9970000  0  4G 2G 6G15G19
  20114875.470   -10218674.127 8  -7738130.71223
  20870927.7824  -14729296.20047 -11373465.02963
  23432813.8064    -922002.75745   -464817.48161
  21528425.282     2936961.942 6   2291901.00521
 91  5  8 21 27 14.9970000  0  4G 2G 6G15G19
  20111413.360   -10236868.875 8  -7752308.41123
  20863297.3764  -14769394.79847 -11404710.65862
  23425374.892     -961122.326 5   -495300.11521
  21532243.001     2957034.414 6   2307541.84021
 91  5  8 21 27 29.9970000  0  4G 2G 6G15G19
  20107960.767   -10255011.903 8  -7766445.81124
  20855670.1814  -14809466.24947 -11435935.13362
  23417945.1264   -1000165.43445   -525723.17461
  21536072.353     2977168.154 6   2323230.42121
 91  5  8 21 27 44.9970000  0  4G 2G 6G15G19
  20104522.782   -10273084.209 8  -7780528.10323
  20848054.1964  -14849491.48447 -11467123.59463
  23410536.0244   -1039113.15045   -556071.92761
  21539919.899     2997382.283 6   2338981.63621
 91  5  8 21 27 59.9970000  0  4G 2G 6G15G19
  20101092.3374  -10291107.62748  -7794572.29663
  20840442.5404  -14889491.86447 -11498292.68263
  23403132.595    -1077986.669 5   -586362.86221
  21543784.040     3017655.216 6   2354778.67921
 91  5  8 21 28 14.9970000  0  4G 2G 6G15G19
  20097670.657   -10309091.742 8  -7808585.86823
  20832833.6424  -14929476.94247 -11529449.85763
  23395750.1964   -1116795.02345   -616603.01161
  21547646.220     3037977.076 6   2370613.84421
 91  5  8 21 28 29.9970000  0  4G 2G 6G15G19
  20094258.3764  -10327022.32148  -7822557.72263
  20825229.7044  -14969432.28547 -11560583.85563
  23388381.134    -1155523.878 5   -646781.21221
  21551527.610     3058361.979 6   2386498.13821
 91  5  8 21 28 44.9970000  0  4G 2G 6G15G19
  20090856.118   -10344899.527 8  -7836487.98623
  20817632.4234  -15009357.74747 -11591694.56963
  23381024.110    -1194172.928 5   -676897.21621
  21555416.204     3078810.026 6   2402431.63621
 91  5  8 21 28 59.9970000  0  4G 2G 6G15G19
  20087465.0564  -10362718.49048  -7850372.86863
  20810041.8684  -15049247.96347 -11622777.82163
  23373688.110    -1232736.923 5   -706946.94221
  21559323.946     3099326.335 6   2418418.31921
 91  5  8 21 29 14.9970000  0  4G 2G 6G15G19
  20084086.134   -10380479.127 8  -7864212.29923
  20802456.9624  -15089102.50247 -11653833.26863
  23366366.4154   -1271215.07545   -736929.79761
  21563239.368     3119911.133 6   2434458.37021
 91  5  8 21 29 29.9970000  0  4G 2G 6G15G19
  20080717.829   -10398178.653 8  -7878004.11023
  20794880.6424  -15128918.53447 -11684858.71463
  23359059.3534   -1309604.19545   -766843.27061
  21567169.657     3140566.911 6   2450553.73321
 91  5  8 21 29 44.9970000  0  4G 2G 6G15G19
  20077356.9074  -10415837.15448  -7891763.95564
  20787307.0954  -15168715.92647 -11715869.63263
  23351766.884    -1347924.153 5   -796702.83821
  21571108.454     3161273.573 6   2466688.74421
 91  5  8 21 29 59.9970000  0  4G 2G 6G15G19
  20074005.907   -10433446.111 8  -7905485.19523
  20779739.6494  -15208485.81547 -11746859.11563
  23344492.1574   -1386165.91145   -826501.47161
  21575061.181     3182039.858 6   2482870.21721
 91  5  8 21 30 14.9970000  0  4G 2G 6G15G19
  20070666.298   -10450988.971 8  -7919154.93323
  20772180.0244  -15248211.46447 -11777814.12863
  23337229.7354   -1424312.66145   -856226.09761
  21579026.806     3202882.186 6   2499110.93521
 91  5  8 21 30 29.9970000  0  4G 2G 6G15G19
  20067342.970   -10468461.232 8  -7932769.65523
  20764629.853   -15287888.029 7 -11808730.88923
  23329990.095    -1462359.488 5   -885872.83821
  21583010.501     3223805.126 6   2515414.47521
 91  5  8 21 30 44.9970000  0  4G 2G 6G15G19
  20064028.899   -10485878.121 8  -7946341.23123
  20757085.892   -15327530.551 7 -11839621.12223
  23322770.149    -1500321.043 5   -915453.17121
  21587001.642     3244793.574 6   2531769.06121
 91  5  8 21 30 59.9970000  0  4G 2G 6G15G19
  20060724.829   -10503240.680 8  -7959870.47823
  20749548.743   -15367139.744 7 -11870485.38323
  23315562.571    -1538198.186 5   -944967.67721
  21591009.884     3265846.350 6   2548173.76921
 91  5  8 21 31 14.9970000  0  4G 2G 6G15G19
  20057430.392   -10520551.642 8  -7973359.51823
  20742017.337   -15406718.066 7 -11901325.59523
  23308371.095    -1575993.185 5   -974418.19921
  21595025.274     3286960.736 6   2564626.49421
 91  5  8 21 31 29.9970000  0  4G 2G 6G15G19
  20054148.134   -10537798.474 8  -7986798.58623
  20734493.946   -15446252.813 7 -11932131.84523
  23301193.0244   -1613693.09445  -1003794.61961
  21599058.212     3308149.412 6   2581137.09521
 91  5  8 21 31 44.9970000  0  4G 2G 6G15G19
  20050876.165   -10554992.024 8  -8000196.14023
  20726978.267   -15485754.475 7 -11962912.31823
  23294032.7744   -1651308.11045  -1033104.90361
  21603102.204     3329401.518 6   2597697.12521
 91  5  8 21 31 59.9970000  0  4G 2G 6G15G19
  20047614.548   -10572129.702 8  -8013550.15624
  20719467.1104  -15525219.87047 -11993664.53363
  23286895.298    -1688835.152 5  -1062346.63821
  21607160.048     3350719.973 6   2614308.85621
 91  5  8 21 32 14.9970000  0  4G 2G 6G15G19
  20044366.290   -10589203.181 8  -8026854.14323
  20711964.6734  -15564640.72747 -12024382.04663
  23279771.6184   -1726265.87345  -1091513.30561
  21611231.126     3372112.951 6   2630978.65821
 91  5  8 21 32 29.9970000  0  4G 2G 6G15G19
  20041131.759   -10606204.512 8  -8040101.91523
  20704473.8374  -15604008.99447 -12055058.57663
  23272666.3064   -1763592.02845  -1120598.48561
  21615318.282     3393588.108 6   2647712.49421
 91  5  8 21 32 44.9970000  0  4G 2G 6G15G19
  20037908.485   -10623140.174 8  -8053298.51623
  20696990.6424  -15643330.81747 -12085698.92063
  23265585.681    -1800819.609 5  -1149606.87221
  21619418.3214    3415139.05046   2664505.38161
 91  5  8 21 32 59.9970000  0  4G 2G 6G15G19
  20034697.353   -10640011.797 8  -8066445.21623
  20689516.7984  -15682607.50247 -12116304.08963
  23258523.1574   -1837949.68645  -1178539.26561
  21623532.9624    3436764.22146   2681356.10661
 91  5  8 21 33 14.9970000  0  4G 2G 6G15G19
  20031497.110   -10656831.702 8  -8079551.62123
  20682049.6734  -15721851.03047 -12146883.42863
  23251467.1034   -1874994.45145  -1207405.19261
  21627661.142     3458451.267 6   2698255.04721
 91  5  8 21 33 29.9970000  0  4G 2G 6G15G19
  20028306.899   -10673596.282 8  -8092614.91223
  20674587.7984  -15761057.61947 -12177433.98163
  23244437.993    -1911949.765 5  -1236201.42021
  21631802.9784    3480203.81346   2715205.02261
 91  5  8 21 33 44.9970000  0  4G 2G 6G15G19
  20025127.001   -10690305.891 8  -8105635.37023
  20667134.6574  -15800227.21047 -12207955.70563
  23237418.751    -1948815.261 5  -1264927.66521
  21635951.853     3502021.663 6   2732205.89121
 91  5  8 21 33 59.9970000  0  5G 2G 6G13G15G19
  20021958.243   -10706960.176 8  -8118612.71924
  20659687.0404  -15839359.28547 -12238448.19363
  23316892.7434         -0.95754
  23230426.4154   -1985590.37845  -1293583.49061
  21640117.439     3523905.038 6   2749257.81921
 91  5  8 21 34 14.9970000  0  5G 2G 6G13G15G19
  20018800.118   -10723553.213 8  -8131542.34524
  20652250.3144  -15878447.57047 -12268906.56563
  23303144.1894     -72239.06044
  23223443.1494   -2022268.83745  -1322163.96661
  21644294.7744    3545860.02846   2766365.54861
 91  5  8 21 34 29.9970000  0  5G 2G 6G13G15G19
  20015654.649   -10740084.345 8  -8144423.73624
  20644820.5094  -15917491.21447 -12299330.15063
  23289403.9464    -144444.82444
  23216478.587    -2058849.623 5  -1350668.37021
  21648486.0564    3567887.32746   2783529.61361
 91  5  8 21 34 44.9970000  0  5G 2G 6G13G15G19
  20012520.642   -10756554.562 8  -8157257.65124
  20637398.5484  -15956490.91447 -12329719.49063
  23275668.6964    -216618.74944
  23209538.1814   -2095333.39945  -1379097.17061
  21652690.384     3589985.939 6   2800749.25321
 91  5  8 21 34 59.9970000  0  5G 2G 6G13G15G19
  20009395.235   -10772974.953 8  -8170052.74924
  20629983.9464  -15995457.46547 -12360083.00763
  23261938.931     -288771.322 4
  23202608.2514   -2131730.86545  -1407458.73361
  21656908.3924    3612144.83046   2818015.86861
 91  5  8 21 35 14.9970000  0  5G 2G 6G13G15G19
  20006284.696   -10789324.166 8  -8182792.38024
  20622578.6494  -16034369.15947 -12390403.77763
  23248215.837     -360881.075 4
  23195707.5404   -2168020.21645  -1435736.03561
  21661139.2674    3634385.47146   2835346.17561
 91  5  8 21 35 29.9970000  0  5G 2G 6G13G15G19
  20003182.118   -10805622.212 8  -8195492.14424
  20615179.6894  -16073245.75547 -12420697.20163
  23234498.0404    -432967.57244        -0.31771
  23188818.1654   -2204221.20945  -1463944.51961
  21665384.8604    3656687.73846   2852724.49861
 91  5  8 21 35 44.9970000  0  5G 2G 6G13G15G19
  20000094.665   -10821851.097 8  -8208138.01523
  20607793.931   -16112069.109 7 -12450949.13823
  23220785.3604    -505012.46243    -56138.81861
  23181946.446    -2240315.490 5  -1492069.78121
  21669643.4074    3679069.50346   2870164.77061
 91  5  8 21 35 59.9970000  0  5G 2G 6G13G15G19
  19997017.345   -10838022.634 8  -8220739.19623
  20600412.9784  -16150850.62247 -12481168.47363
  23207081.821     -577027.092 3   -112253.73221
  23175100.634    -2276314.298 5  -1520120.70221
  21673916.5244    3701519.03546   2887657.85161
 91  5  8 21 36 14.9970000  0  5G 2G 6G13G15G19
  19993952.337   -10854127.618 8  -8233288.52224
  20593043.2744  -16189580.84647 -12511347.83763
  23193385.4854    -649001.90544   -168337.62661
  23168271.618    -2312207.989 5  -1548089.69121
  21678201.7904    3724045.67646   2905211.01361
 91  5  8 21 36 29.9970000  0  5G 2G 6G13G15G19
  19990897.806   -10870180.408 8  -8245797.17523
  20585680.8844  -16228273.89047 -12541498.23863
  23179696.1424    -720950.50444   -224401.08461
  23161455.806    -2348010.543 5  -1575987.69721
  21682500.7984    3746635.03546   2922813.05261
 91  5  8 21 36 44.9970000  0  5G 2G 6G13G15G19
  19987855.126   -10886170.971 8  -8258257.34124
  20578325.9394  -16266919.58847 -12571611.73763
  23166011.103     -792862.513 4   -280436.03721
  23154664.032    -2383711.902 5  -1603806.82021
  21686814.2124    3769296.85646   2940471.55061
 91  5  8 21 36 59.9970000  0  5G 2G 6G13G15G19
  19984823.118   -10902107.088 8  -8270675.08324
  20570978.6814  -16305525.34347 -12601694.11863
  23152330.1814    -864745.16744   -336448.08961
  23147889.985    -2419319.246 5  -1631552.69821
  21691137.790     3792023.628 6   2958180.65521
 91  5  8 21 37 14.9970000  0  5G 2G 6G13G15G19
  19981802.446   -10917976.806 8  -8283041.08323
  20563642.7284  -16344078.84547 -12631735.77663
  23138661.368     -936586.141 4   -392427.68921
  23141132.368    -2454819.989 5  -1659215.51221
  21695478.1344    3814827.35646   2975949.72661
 91  5  8 21 37 29.9970000  0  5G 2G 6G13G15G19
  19978792.759   -10933788.079 8  -8295361.54123
  20556315.0874  -16382587.78547 -12661742.70763
  23124996.634    -1008392.989 4   -448380.69721
  23134394.782    -2490221.913 5  -1686801.29321
  21699829.8144    3837700.17046   2993772.63561
 91  5  8 21 37 44.9970000  0  5G 2G 6G13G15G19
  19975792.681   -10949560.743 8  -8307651.91323
  20548992.0564  -16421071.71747 -12691730.16063
  23111333.040    -1080185.154 4   -504322.24721
  23127670.743    -2525544.506 5  -1714325.28221
  21704191.548     3860622.182 6   3011633.87621
 91  5  8 21 37 59.9970000  0  5G 2G 6G13G15G19
  19972802.907   -10965270.944 8  -8319893.61023
  20541678.2044  -16459506.67547 -12721679.45063
  23097679.6814   -1151938.52644   -560233.56061
  23120966.204    -2560763.586 5  -1741768.60321
  21708568.0874    3883616.99146   3029551.83761
 91  5  8 21 38 14.9970000  0  5G 2G 6G13G15G19
  19969827.009   -10980906.618 8  -8332077.23424
  20534375.6344  -16497880.19247 -12751580.85963
  23084032.7744   -1223640.54744   -616104.88761
  23114288.556    -2595866.661 5  -1769121.55421
  21712959.5014    3906696.81946   3047536.05561
 91  5  8 21 38 29.9970000  0  5G 2G 6G13G15G19
  19966863.837   -10996481.054 8  -8344213.14324
  20527083.1494  -16536205.38947 -12781444.61163
  23070397.8064   -1295304.20845   -671946.34961
  23107626.1574   -2630866.62045  -1796394.13761
  21717363.196     3929848.249 6   3065576.06121
 91  5  8 21 38 44.9970000  0  5G 2G 6G13G15G19
  19963909.774   -11012002.211 8  -8356307.54024
  20519797.2354  -16574489.75847 -12811276.55263
  23056764.6894   -1366936.64545   -727763.42161
  23100983.5094   -2665770.88345  -1823592.14961
  21721782.8924    3953063.39046   3083665.71261
 91  5  8 21 38 59.9970000  0  5G 2G 6G13G15G19
  19960966.095   -11027476.319 8  -8368365.27124
  20512517.0644  -16612739.18347 -12841081.26363
  23043138.7044   -1438543.74845   -783560.79161
  23094363.1264   -2700585.46645  -1850720.27161
  21726212.4934    3976336.28446   3101800.37061
 91  5  8 21 39 14.9970000  0  5G 2G 6G13G15G19
  19958031.235   -11042895.007 8  -8380379.81824
  20505247.7354  -16650945.19247 -12870852.14563
  23029520.2284   -1510116.81745   -839331.61161
  23087754.962    -2735301.567 5  -1877771.67521
  21730652.837     3999675.215 6   3119986.47621
 91  5  8 21 39 29.9970000  0  5G 2G 6G13G15G19
  19955111.454   -11058242.452 8  -8392338.84824
  20497988.7824  -16689091.72647 -12900576.67663
  23015907.6654   -1581639.64145   -895063.33861
  23081168.704    -2769903.043 5  -1904733.74521
  21735113.3764    4023095.89345   3138236.28561
 91  5  8 21 39 44.9970000  0  5G 2G 6G13G15G19
  19952202.462   -11073528.060 8  -8404249.69624
  20490740.0404  -16727187.67447 -12930261.79463
  23002306.8844   -1653120.93245   -950762.68461
  23074608.048    -2804398.820 5  -1931613.46021
  21739580.9074    4046589.13846   3156542.63961
 91  5  8 21 39 59.9970000  0  5G 2G 6G13G15G19
  19949304.196   -11088756.786 8  -8416116.21824
  20483498.7204  -16765237.98947 -12959911.35363
  22988710.743    -1724565.433 5  -1006433.34421
  23068062.993    -2838793.762 5  -1958414.57921
  21744063.7984    4070149.71846   3174901.46261
 91  5  8 21 40 14.9970000  0  5G 2G 6G13G15G19
  19946417.103   -11103929.328 8  -8427938.96424
  20476266.868   -16803243.026 7 -12989525.62623
  22975122.314    -1795973.460 5  -1062075.54121
  23061531.3214   -2873088.24145  -1985137.42961
  21748559.181     4093776.818 6   3193312.12021
 91  5  8 21 40 29.9970000  0  5G 2G 6G13G15G19
  19943539.860   -11119048.724 8  -8439720.29524
  20469041.6494  -16841205.37747 -13019106.63863
  22961538.821    -1867347.731 5  -1117691.49421
  23055026.3994   -2907284.55945  -2011783.78861
  21753072.806     4117467.718 5   3211772.49321
 91  5  8 21 40 44.9970000  0  5G 2G 6G13G15G19
  19940676.540   -11134093.783 8  -8451443.70323
  20461831.1034  -16879103.39847 -13048637.52563
  22947963.728    -1938666.150 5  -1173263.91321
  23048540.9544   -2941361.17745  -2038336.89961
  21757591.345     4141243.630 6   3230299.10221
 91  5  8 21 40 59.9970000  0  5G 2G 6G13G15G19
  19937827.173   -11149065.976 8  -8463110.33324
  20454630.946   -16916938.637 7 -13078119.48923
  22934404.7674   -2009930.08145  -1228793.87061
  23042079.5014   -2975319.43345  -2064797.77961
  21762136.0794    4165102.93146   3248890.69661
 91  5  8 21 41 14.9970000  0  5G 2G 6G13G15G19
  19934992.290   -11163963.859 8  -8474719.06024
  20447443.0794  -16954709.28347 -13107551.11763
  22920855.2514   -2081137.68045  -1284279.93361
  23035641.1424   -3009157.19045  -2091164.74661
  21766690.2044    4189047.13346   3267548.44061
 91  5  8 21 41 29.9970000  0  5G 2G 6G13G15G19
  19932168.806   -11178804.649 8  -8486283.29923
  20440264.8684  -16992432.28147 -13136945.62163
  22907312.2354   -2152305.74545  -1339735.18761
  23029225.392    -3042891.423 5  -2117451.05321
  21771261.376     4213058.897 5   3286258.83121
 91  5  8 21 41 44.9970000  0  5G 2G 6G13G15G19
  19929353.5484  -11193597.43148  -8497810.13064
  20433093.470   -17030116.416 7 -13166309.83923
  22893774.2744   -2223442.94244  -1395166.41361
  23022820.3534   -3076531.09245  -2143663.66761
  21775839.321     4237129.088 6   3305014.75621
 91  5  8 21 41 59.9970000  0  5G 2G 6G13G15G19
  19926550.071   -11208328.045 8  -8509288.51524
  20425933.173   -17067747.216 7 -13195632.49823
  22880247.5794   -2294534.88344  -1450562.36261
  23016436.4624   -3110061.68345  -2169791.30461
  21780434.2904    4261272.00346   3323827.34361
 91  5  8 21 42 14.9970000  0  5G 2G 6G13G15G19
  19923755.0484  -11223011.99948  -8520730.54564
  20418778.087   -17105340.013 7 -13224925.54123
  22866722.0484   -2365596.36444  -1505934.58261
  23010079.6184   -3143498.29245  -2195845.70861
  21785039.2434    4285472.13346   3342684.51661
 91  5  8 21 42 29.9970000  0  5G 2G 6G13G15G19
  19920974.368   -11237631.951 8  -8532122.70123
  20411635.314   -17142877.158 7 -13254175.22623
  22853206.798    -2436609.708 5  -1561269.28721
  23003736.0714   -3176823.34045  -2221813.17761
  21789660.5244    4309746.80246   3361599.77661
 91  5  8 21 42 44.9970000  0  5G 2G 6G13G15G19
  19918202.532   -11252194.506 8  -8543470.13323
  20404501.1894  -17180365.03147 -13283386.51863
  22839702.2434   -2507581.04345  -1616571.31061
  22997415.087    -3210042.923 5  -2247698.45521
  21794290.6344    4334089.22846   3380567.82961
 91  5  8 21 42 59.9970000  0  5G 2G 6G13G15G19
  19915444.970   -11266689.827 8  -8554765.17124
  20397379.4154  -17217793.38747 -13312551.43363
  22826205.8294   -2578499.91944  -1671832.41661
  22991115.235    -3243146.549 5  -2273493.37521
  21798939.6184    4358509.44645   3399596.49761
 91  5  8 21 43 14.9970000  0  5G 2G 6G13G15G19
  19912695.118   -11281131.523 8  -8566018.43123
  20390266.1494  -17255175.56247 -13341680.36063
  22812720.392    -2649379.732 5  -1727063.06521
  22984835.4074   -3276147.73145  -2299208.48561
  21803597.564     4382993.682 6   3418675.04621
 91  5  8 21 43 29.9970000  0  5G 2G 6G13G15G19
  19909958.993   -11295515.675 8  -8577226.84423
  20383161.0954  -17292507.30247 -13370769.99463
  22799238.7354   -2720216.14845  -1782259.92861
  22978571.8764   -3309042.04145  -2324840.31561
  21808269.6104    4407545.95245   3437806.62561
 91  5  8 21 43 44.9970000  0  5G 2G 6G13G15G19
  19907234.946   -11309831.197 8  -8588381.78223
  20376069.3294  -17329777.19047 -13399811.42763
  22785768.5014   -2790997.61245  -1837413.98061
  22972337.845    -3341818.202 5  -2350380.10821
  21812956.868     4432177.477 6   3456999.94021
 91  5  8 21 43 59.9970000  0  5G 2G 6G13G15G19
  19904521.173   -11324091.926 8  -8599494.01623
  20368986.7904  -17366998.94547 -13428815.36463
  22772304.946    -2861737.713 5  -1892535.81021
  22966119.110    -3374490.005 5  -2375838.56421
  21817657.5014    4456874.22046   3476244.08561
 91  5  8 21 44 14.9970000  0  5G 2G 6G13G15G19
  19901818.040   -11338295.361 8  -8610561.61823
  20361912.1814  -17404169.71947 -13457779.56863
  22758854.962    -2932433.153 5  -1947622.81121
  22959921.7284   -3407054.28845  -2401213.23261
  21822369.485     4481638.801 6   3495541.08621
 91  5  8 21 44 29.9970000  0  5G 2G 6G13G15G19
  19899128.087   -11352429.571 8  -8621575.26823
  20354851.2204  -17441277.12247 -13486694.39163
  22745413.142    -3003071.727 5  -2002665.51321
  22953754.3214   -3439498.62445  -2426494.44861
  21827098.376     4506483.100 6   3514900.20121
 91  5  8 21 44 44.9970000  0  5G 2G 6G13G15G19
  19896448.970   -11366512.293 8  -8632548.80223
  20347799.1034  -17478338.77947 -13515573.56763
  22731978.056    -3073670.868 5  -2057677.50821
  22947596.868    -3471840.524 5  -2451695.82121
  21831837.4854    4531389.33046   3534307.58161
 91  5  8 21 44 59.9970000  0  5G 2G 6G13G15G19
  19893782.556   -11380521.851 8  -8643465.31923
  20340759.5244  -17515332.62947 -13544399.90763
  22718555.196    -3144208.325 5  -2112641.44021
  22941463.1814   -3504057.70045  -2476800.02161
  21836594.118     4556379.357 5   3553780.25521
 91  5  8 21 45 14.9970000  0  5G 2G 6G13G15G19
  19891130.181   -11394463.305 8  -8654328.77323
  20333731.6344  -17552263.41747 -13573177.10663
  22705143.0014   -3214688.76545  -2167560.92461
  22935355.899    -3536155.236 5  -2501810.98821
  21841361.884     4581447.889 5   3573314.10021
 91  5  8 21 45 29.9970000  0  5G 2G 6G13G15G19
  19888488.845   -11408343.314 8  -8665144.34823
  20326714.9544  -17589137.70747 -13601910.28663
  22691739.5564   -3285118.29445  -2222440.76761
  22929267.446    -3568139.461 5  -2526733.66021
  21846146.720     4606588.154 5   3592903.84621
 91  5  8 21 45 44.9970000  0  5G 2G 6G13G15G19
  19885857.196   -11422167.590 8  -8675916.48923
  20319708.0644  -17625960.85147 -13630603.61263
  22678345.962    -3355502.480 5  -2277285.23621
  22923205.712    -3600015.382 5  -2551571.92921
  21850943.009     4631794.475 5   3612545.06021
 91  5  8 21 45 59.9970000  0  5G 2G 6G13G15G19
  19883238.509   -11435931.353 8  -8686641.47823
  20312710.5324  -17662727.73847 -13659253.10063
  22664962.048    -3425836.088 5  -2332090.35921
  22917161.5244   -3631778.00045  -2576321.92261
  21855752.345     4657071.615 5   3632241.45621
 91  5  8 21 46 14.9970000  0  5G 2G 6G13G15G19
  19880630.368   -11449636.266 8  -8697320.60823
  20305724.7594  -17699439.67247 -13687859.76863
  22651587.048    -3496120.324 4  -2386856.97421
  22911134.345    -3663428.541 5  -2600984.57121
  21860575.087     4682418.113 5   3651991.90021
 91  5  8 21 46 29.9970000  0  5G 2G 6G13G15G19
  19878036.892   -11463267.780 8  -8707942.54923
  20298752.2744  -17736081.98247 -13716412.18363
  22638222.1184   -3566340.20945  -2441573.45261
  22905136.618    -3694952.262 5  -2625548.41021
  21865416.985     4707848.294 5   3671807.54821
 91  5  8 21 46 44.9970000  0  5G 2G 6G13G15G19
  19875455.524   -11476830.790 8  -8718511.10123
  20291791.7744  -17772659.14347 -13744913.83563
  22624873.7204   -3636499.99945  -2496243.07561
  22899162.978    -3726353.929 5  -2650017.12721
  21870268.3764    4733357.25345   3691684.59261
 91  5  8 21 46 59.9970000  0  5G 2G 6G13G15G19
  19872883.845   -11490346.314 8  -8729042.65523
  20284841.0324  -17809191.85347 -13773380.85363
  22611529.0404   -3706620.47045  -2550882.12061
  22893207.3214   -3757653.94745  -2674406.65961
  21875136.165     4758924.082 5   3711606.72121
 91  5  8 21 47 14.9970000  0  5G 2G 6G13G15G19
  19870322.087   -11503804.404 8  -8739529.45723
  20277899.2744  -17845669.94247 -13801805.30663
  22598193.5174   -3776691.38045  -2605482.49361
  22887272.657    -3788842.187 5  -2698709.08421
  21880011.845     4784558.735 5   3731581.70121
 91  5  8 21 47 29.9970000  0  5G 2G 6G13G15G19
  19867775.782   -11517187.509 8  -8749957.82923
  20270971.2674  -17882075.58247 -13830173.30663
  22584872.4624   -3846694.43045  -2660030.01661
  22881363.024    -3819900.875 5  -2722910.55221
  21884908.3214    4810278.75545   3751623.20361
 91  5  8 21 47 44.9970000  0  5G 2G 6G13G15G19
  19865242.321   -11530501.034 8  -8760331.98623
  20264055.2284  -17918413.88547 -13858488.83663
  22571564.696    -3916634.811 5  -2714528.74121
  22875474.165    -3850835.090 5  -2747015.02321
  21889817.024     4836078.595 5   3771726.89921
 91  5  8 21 47 59.9970000  0  5G 2G 6G13G15G19
  19862719.064   -11543762.357 8  -8770665.46023
  20257149.9464  -17954701.71847 -13886765.03963
  22558263.6654   -3986529.21545  -2768991.61961
  22869604.501    -3881661.416 5  -2771035.43721
  21894739.579     4861940.941 5   3791879.29921
 91  5  8 21 48 14.9970000  0  5G 2G 6G13G15G19
  19860207.087   -11556961.479 8  -8780950.47023
  20250256.5874  -17990929.02147 -13914994.07763
  22544975.5714   -4056367.50845  -2823410.77061
  22863764.2284   -3912369.69045  -2794963.86761
  21899674.696     4887875.603 5   3812088.04521
 91  5  8 21 48 29.9970000  0  5G 2G 6G13G15G19
  19857709.235   -11570088.219 8  -8791179.07523
  20243376.9154  -18027085.30647 -13943167.77763
  22531696.228    -4126139.054 5  -2877777.91921
  22857944.157    -3942949.466 5  -2818792.15021
  21904624.0094    4913892.79145   3832361.10761
 91  5  8 21 48 44.9970000  0  5G 2G 6G13G15G19
  19855221.329   -11583164.166 8  -8801368.10723
  20236504.8534  -18063191.93947 -13971302.78363
  22518426.564    -4195865.108 5  -2932109.61421
  22852147.2744   -3973422.19945  -2842537.04961
  21909587.649     4939971.041 5   3852681.74721
 91  5  8 21 48 59.9970000  0  5G 2G 6G13G15G19
  19852744.985   -11596178.585 8  -8811509.19423
  20229645.2984  -18099237.91347 -13999390.52863
  22505167.821    -4265534.469 5  -2986397.12221
  22846368.431    -4003776.706 5  -2866189.81921
  21914565.392     4966120.869 5   3873058.15121
 91  5  8 21 49 14.9970000  0  5G 2G 6G13G15G19
  19850279.165   -11609136.195 8  -8821606.01323
  20222796.6344  -18135227.66847 -14027434.46163
  22491921.0714   -4335151.57945  -3040643.94261
  22840615.8604   -4034017.40446  -2889753.90561
  21919550.5714    4992337.41045   3893486.56061
 91  5  8 21 49 29.9970000  0  5G 2G 6G13G15G19
  19847823.251   -11622043.299 8  -8831663.47623
  20215957.2594  -18171167.05547 -14055439.14763
  22478683.235    -4404722.103 5  -3094854.43721
  22834877.4464   -4064150.21345  -2913233.92161
  21924554.228     5018614.528 5   3913962.16321
 91  5  8 21 49 44.9970000  0  5G 2G 6G13G15G19
  19845376.931   -11634893.220 8  -8841676.38223
  20209129.235   -18207049.166 7 -14083399.20723
  22465453.7434   -4474238.89445  -3149023.10761
  22829168.806    -4094168.013 5  -2936624.31621
  21929565.923     5044958.783 5   3934490.07321
 91  5  8 21 49 59.9970000  0  5G 2G 6G13G15G19
  19842943.259   -11647685.363 8  -8851644.26823
  20202312.7904  -18242873.02947 -14111313.87663
  22452236.048    -4543700.942 5  -3203149.07321
  22823480.6034   -4124069.85045  -2959924.36261
  21934593.610     5071370.936 5   3955070.89421
 91  5  8 21 50 14.9970000  0  5G 2G 6G13G15G19
  19840518.462   -11660427.482 8  -8861573.17524
  20195505.0874  -18278645.97847 -14139188.87263
  22439025.4854   -4613115.65345  -3257238.16361
  22817812.5644   -4153863.12345  -2983139.81461
  21939628.501     5097843.343 6   3975698.66721
 91  5  8 21 50 29.9970000  0  5G 2G 6G13G15G19
  19838105.485   -11673107.384 8  -8871453.60023
  20188709.6894  -18314355.73847 -14167014.62863
  22425827.8374   -4682470.47045  -3311280.61561
  22812164.009    -4183535.493 5  -3006261.06121
  21944682.407     5124388.002 5   3996382.73521
 91  5  8 21 50 44.9970000  0  5G 2G 6G13G15G19
  19835705.306   -11685718.196 8  -8881280.19223
  20181927.0484  -18349995.11347 -14194785.54263
  22412642.274    -4751757.889 5  -3365270.52321
  22806541.587    -4213079.939 5  -3029282.62921
  21949747.868     5151011.805 5   4017128.48221
 91  5  8 21 50 59.9970000  0  5G 2G 6G13G15G19
  19833317.118   -11698266.620 8  -8891058.16923
  20175158.0244  -18385570.55447 -14222506.63463
  22399469.954    -4820984.421 5  -3419212.97621
  22800942.337    -4242502.683 5  -3052209.37621
  21954826.540     5177707.842 5   4037930.50421
 91  5  8 21 51 14.9970000  0  5G 2G 6G13G15G19
  19830941.415   -11710753.870 8  -8900788.48123
  20168400.2124  -18421082.98647 -14250178.62563
  22386306.821    -4890150.818 5  -3473108.60321
  22795369.087    -4271804.599 5  -3075041.95721
  21959920.087     5204474.905 5   4058787.87721
 91  5  8 21 51 29.9970000  0  5G 2G 6G13G15G19
  19828575.954   -11723182.173 8  -8910472.85923
  20161654.1104  -18456534.30247 -14277802.99863
  22373155.048    -4959258.731 5  -3526958.62621
  22789812.6184   -4300987.52845  -3097781.82361
  21965031.306     5231310.726 5   4079698.82921
 91  5  8 21 51 44.9970000  0  5G 2G 6G13G15G19
  19826220.290   -11735559.594 8  -8920117.58823
  20154918.5644  -18491932.07547 -14305385.64863
  22360014.1104   -5028315.77145  -3580769.03761
  22784282.0954   -4330059.31745  -3120435.09161
  21970147.1184    5258207.32245   4100657.12261
 91  5  8 21 51 59.9970000  0  5G 2G 6G13G15G19
  19823876.204   -11747880.846 8  -8929718.54823
  20148193.6574  -18527270.96747 -14332922.41663
  22346883.907    -5097316.450 5  -3634535.51221
  22778767.6424   -4359014.46545  -3142997.48161
  21975280.978     5285169.908 5   4121666.85921
 91  5  8 21 52 14.9970000  0  5G 2G 6G13G15G19
  19821544.079   -11760134.458 8  -8939266.80323
  20141482.5244  -18562539.34747 -14360404.24463
  22333765.8294   -5166248.99645  -3688248.91961
  22773282.689    -4387841.116 5  -3165459.73021
  21980423.040     5312209.858 5   4142736.86721
 91  5  8 21 52 29.9970000  0  5G 2G 6G13G15G19
  19819224.767   -11772322.533 8  -8948763.98923
  20134784.704   -18597738.819 7 -14387832.37623
  22320661.4784   -5235114.94845  -3741910.38361
  22767821.8684   -4416541.07645  -3187823.27261
  21985582.204     5339325.146 5   4163865.57721
 91  5  8 21 52 44.9970000  0  5G 2G 6G13G15G19
  19816915.2124  -11784463.35548  -8958224.36063
  20128094.9154  -18632887.44047 -14415220.88463
  22307565.7984   -5303932.28445  -3795534.03661
  22762385.9544   -4445132.17645  -3210101.99561
  21990752.040     5366497.321 5   4185038.62521
 91  5  8 21 52 59.9970000  0  5G 2G 6G13G15G19
  19814616.392   -11796540.784 8  -8967635.32923
  20121419.4854  -18667968.69147 -14442556.89263
  22294482.8994   -5372684.39245  -3849106.81561
  22756962.439    -4473597.866 5  -3232282.98021
  21995942.743     5393742.733 5   4206268.73421
 91  5  8 21 53 14.9970000  0  5G 2G 6G13G15G19
  19812329.282   -11808556.224 8  -8976997.99523
  20114756.3534  -18702983.67547 -14469841.26563
  22281411.665    -5441372.178 5  -3902629.50221
  22751573.3924   -4501939.41945  -3254367.25161
  22001135.353     5421059.716 5   4227554.61721
 91  5  8 21 53 29.9970000  0  5G 2G 6G13G15G19
  19810054.985   -11820509.115 8  -8986311.92623
  20108105.6424  -18737931.62547 -14497073.40963
  22268354.1494   -5509994.74245  -3956101.36461
  22746205.7354   -4530155.90945  -3276354.05961
  22006350.103     5448448.749 5   4248896.64121
 91  5  8 21 53 44.9970000  0  5G 2G 6G13G15G19
  19807791.8604  -11832404.38248  -8995580.95363
  20101466.564   -18772816.991 7 -14524256.78323
  22255307.509    -5578556.361 5  -4009525.72621
  22740855.032    -4558251.925 5  -3298247.00721
  22011571.814     5475905.001 5   4270291.04321
 91  5  8 21 53 59.9970000  0  5G 2G 6G13G15G19
  19805540.7984  -11844235.94448  -9004800.34164
  20094842.5484  -18807633.60947 -14551386.58663
  22242273.0714   -5647050.55645  -4062897.55661
  22735533.431    -4586221.251 5  -3320041.24121
  22016815.0094    5503434.40045   4291742.43161
 91  5  8 21 54 14.9970000  0  5G 2G 6G13G15G19
  19803295.6964  -11856032.10648  -9013992.15063
  20088223.8994  -18842409.37547 -14578484.55863
  22229246.3764   -5715505.48445  -4116238.78361
  22730230.181    -4614091.765 5  -3341758.47421
  22022061.2674    5531008.70145   4313228.81461
 91  5  8 21 54 29.9970000  0  5G 2G 6G13G15G19
  19801062.1424  -11867771.68748  -9023139.86863
  20081617.8294  -18877122.90947 -14605534.03763
  22216229.149    -5783899.605 5  -4169532.65521
  22724947.853    -4641842.021 5  -3363382.00121
  22027318.9854    5558648.95245   4334766.58661
 91  5  8 21 54 44.9970000  0  5G 2G 6G13G15G19
  19798836.7674  -11879463.56748  -9032250.41163
  20075022.8684  -18911782.69447 -14632541.63363
  22203224.2904   -5852241.33645  -4222785.67261
  22719689.5094   -4669480.50545  -3384918.42561
  22032588.7824    5586346.34845   4356348.88761
 91  5  8 21 54 59.9970000  0  5G 2G 6G13G15G19
  19796619.5244  -11891112.76048  -9041327.69464
  20068436.0174  -18946393.39047 -14659510.97863
  22190229.5644   -5920535.09345  -4276001.34261
  22714447.3294   -4697011.89245  -3406371.40261
  22037869.712     5614095.955 5   4377971.86821
 91  5  8 21 55 14.9970000  0  5G 2G 6G13G15G19
  19794414.212   -11902704.494 8  -9050360.20224
  20061863.3924  -18980939.90147 -14686430.30863
  22177244.603    -5988765.766 5  -4329167.83121
  22709230.8294   -4724421.18445  -3427729.23361
  22043164.939     5641912.456 5   4399646.99421
 91  5  8 21 55 29.9970000  0  5G 2G 6G13G15G19
  19792216.2824  -11914250.95248  -9059357.43264
  20055299.189   -19015434.288 7 -14713309.02523
  22164270.579    -6056945.087 5  -4382294.34221
  22704041.196    -4751720.403 5  -3449001.30321
  22048470.665     5669783.470 5   4421364.58521
 91  5  8 21 55 44.9970000  0  5G 2G 6G13G15G19
  19790029.7674  -11925744.53948  -9068313.46563
  20048746.384   -19049868.644 7 -14740140.96523
  22151306.3454   -6125065.13245  -4435374.63561
  22698869.0014   -4778901.53045  -3470181.33061
  22053781.173     5697716.641 5   4443130.60521
 91  5  8 21 55 59.9970000  0  5G 2G 6G13G15G19
  19787853.923   -11937179.090 8  -9077223.49123
  20042206.5014  -19084236.57847 -14766921.14463
  22138357.6104   -6193119.64245  -4488403.85761
  22693717.665    -4805958.238 5  -3491264.41621
  22059111.8454    5725717.83445   4464949.63161
 91  5  8 21 56 14.9970000  0  5G 2G 6G13G15G19
  19785686.696   -11948569.201 8  -9086098.89124
  20035676.2904  -19118552.28847 -14793660.62963
  22125415.7284   -6261122.56745  -4541392.90361
  22688587.3144   -4832904.67045  -3512261.58361
  22064450.642     5753772.598 5   4486810.40121
 91  5  8 21 56 29.9970000  0  5G 2G 6G13G15G19
  19783528.5564  -11959904.17948  -9094931.32963
  20029158.5014  -19152804.66347 -14820350.76263
  22112485.579    -6329062.613 5  -4594332.96621
  22683484.0404   -4859729.83845  -3533164.23861
  22069802.2594    5781891.61145   4508721.23461
 91  5  8 21 56 44.9960000  0  5G 2G 6G13G15G19
  19781384.949   -11971173.619 8  -9103712.69723
  20022654.1294  -19186981.51847 -14846982.04864
  22099573.2774   -6396925.15345  -4647212.61061
  22678406.816    -4886422.054 5  -3553963.30021
  22075167.2624    5810082.51645   4530688.09461
 91  5  8 21 56 59.9960000  0  5G 2G 6G13G15G19
  19779252.598   -11982379.633 8  -9112444.64224
  20016162.9964  -19221087.72447 -14873558.28064
  22086670.613    -6464719.534 5  -4700039.15521
  22673353.9574   -4912985.29145  -3574661.85461
  22080546.809     5838348.390 5   4552713.36721
 91  5  8 21 57 14.9960000  0  5G 2G 6G13G15G19
  19777126.043   -11993552.897 8  -9121151.06524
  20009683.2854  -19255152.29047 -14900102.07064
  22073779.488    -6532472.467 5  -4752833.39821
  22668315.402    -4939448.721 5  -3595282.63221
  22085929.012     5866655.932 5   4574771.10721
 91  5  8 21 57 29.9960000  0  5G 2G 6G13G15G19
  19775009.863   -12004670.849 8  -9129814.38924
  20003213.0904  -19289152.23147 -14926595.50463
  22060898.4184   -6600160.94745  -4805577.41961
  22663309.7464   -4965789.67845  -3615807.97361
  22091332.004     5895027.686 5   4596878.87821
 91  5  8 21 57 44.9960000  0  5G 2G 6G13G15G19
  19772903.715   -12015740.953 8  -9138440.42824
  19996753.4574  -19323094.91447 -14953044.31964
  22048027.1914   -6667792.05045  -4858276.75261
  22658311.5664   -4992015.19945  -3636243.37061
  22096741.3954    5923456.12745   4619030.82661
 91  5  8 21 57 59.9960000  0  5G 2G 6G13G15G19
  19770808.973   -12026751.415 8  -9147019.99324
  19990306.840   -19356968.065 7 -14979438.95624
  22035170.004    -6735353.624 5  -4910921.89521
  22653346.262    -5018113.241 5  -3656579.42121
  22102164.5434    5951953.04845   4641236.13161
 91  5  8 21 58 14.9960000  0  5G 2G 6G13G15G19
  19768722.113   -12037714.159 8  -9155562.37324
  19983872.1374  -19390783.37547 -15005788.52064
  22022325.1914   -6802857.02745  -4963521.70861
  22648404.441    -5044095.592 5  -3676825.31921
  22107596.598     5980506.466 5   4663485.46621
 91  5  8 21 58 29.9960000  0  5G 2G 6G13G15G19
  19766647.215   -12048623.795 8  -9164063.37423
  19977448.2464  -19424535.19347 -15032088.61164
  22009492.4654   -6870296.35245  -5016071.58361
  22643478.8404   -5069956.61245  -3696976.68161
  22113042.5274    6009121.74345   4685782.99061
 91  5  8 21 58 44.9960000  0  5G 2G 6G13G15G19
  19764578.863   -12059490.064 8  -9172530.58124
  19971037.0594  -19458232.89147 -15058346.52864
  21996669.012    -6937681.037 5  -5068578.89121
  22638579.887    -5095705.689 5  -3717040.81621
  22118498.504     6037788.976 5   4708121.01021
 91  5  8 21 58 59.9960000  0  5G 2G 6G13G15G19
  19762521.5664  -12070301.73948  -9180955.25364
  19964637.7074  -19491864.85047 -15084553.22063
  21983859.8324   -7004999.41545  -5121034.54761
  22633700.7074   -5121331.32845  -3737008.75361
  22123967.0354    6066519.44245   4730508.29561
 91  5  8 21 59 14.9960000  0  5G 2G 6G13G15G19
  19760473.012   -12081066.841 8  -9189343.62724
  19958247.8874  -19525438.91747 -15110714.80063
  21971059.4964   -7072259.20545  -5173444.52961
  22628850.340    -5146841.267 5  -3756886.54721
  22129443.9494    6095305.09745   4752938.58461
 91  5  8 21 59 29.9960000  0  5G 2G 6G13G15G19
  19758434.738   -12091780.670 8  -9197692.05124
  19951871.4344  -19558950.02947 -15136827.32364
  21958272.7314   -7139455.32445  -5225804.90361
  22624017.129    -5172230.358 5  -3776670.17021
  22134934.262     6124150.461 5   4775415.41121
 91  5  8 21 59 44.9960000  0  5G 2G 6G13G15G19
  19756405.434   -12102441.396 8  -9205999.09724
  19945505.4414  -19592396.00847 -15162889.09464
  21945497.520    -7206585.305 5  -5278113.75521
  22619210.941    -5197496.568 5  -3796358.05321
  22140430.410     6153057.217 5   4797940.06321
 91  5  8 21 59 59.9960000  0  5G 2G 6G13G15G19
  19754386.543   -12113051.066 8  -9214266.35824
  19939154.2074  -19625778.76747 -15188901.60364
  21932735.4814   -7273651.03045  -5330372.51661
  22614420.395    -5222641.914 5  -3815951.74221
  22145946.551     6182023.510 5   4820511.11521
 91  5  8 22  0 14.9960000  0  5G 2G 6G13G15G19
  19752376.371   -12123612.657 8  -9222496.15124
  19932812.9734  -19659101.03547 -15214866.97364
  21919985.566    -7340655.107 5  -5382583.25721
  22609662.348    -5247668.952 5  -3835453.25621
  22151467.2544    6211046.09745   4843126.03861
 91  5  8 22  0 29.9960000  0  5G 2G 6G13G15G19
  19750376.902   -12134122.800 8  -9230685.85724
  19926483.9964  -19692358.90247 -15240782.16364
  21907245.262    -7407593.569 5  -5434742.86921
  22604922.895    -5272573.917 5  -3854859.63621
  22157002.3324    6240128.44845   4865787.50861
 91  5  8 22  0 44.9960000  0  5G 2G 6G13G15G19
  19748384.231   -12144589.710 8  -9238841.87024
  19920165.7934  -19725560.37047 -15266653.40664
  21894520.191    -7474474.232 5  -5486857.42321
  22600204.801    -5297364.672 5  -3874177.04021
  22162545.207     6269262.254 5   4888489.10321
 91  5  8 22  0 59.9960000  0  5G 2G 6G13G15G19
  19746404.668   -12154994.462 8  -9246949.45224
  19913862.8244  -19758686.13047 -15292465.65764
  21881808.8324   -7541277.73545  -5538911.89661
  22595511.8164   -5322022.05845  -3893390.51461
  22168104.566     6298466.439 5   4911245.50821
 91  5  8 22  1 14.9960000  0  5G 2G 6G13G15G19
  19744434.410   -12165347.017 8  -9255016.36024
  19907571.1134  -19791746.05247 -15318226.60464
  21869106.902    -7608014.047 5  -5590913.98921
  22590845.152    -5346556.040 5  -3912507.81821
  22173671.059     6327730.760 5   4934048.79221
 91  5  8 22  1 29.9960000  0  5G 2G 6G13G15G19
  19742477.340   -12175630.872 8  -9263029.73424
  19901296.4344  -19824723.21547 -15343923.06563
  21856425.082    -7674666.022 5  -5642850.34921
  22586203.0594   -5370949.77045  -3931515.83161
  22179256.2314    6357071.70645   4956911.78061
 91  5  8 22  1 44.9960000  0  5G 2G 6G13G15G19
  19740530.082   -12185865.817 8  -9271005.00024
  19895032.824   -19857637.193 7 -15369570.29424
  21843750.4814   -7741253.21745  -5694736.25961
  22581584.113    -5395223.069 5  -3950430.01521
  22184850.7314    6386469.27945   4979818.88661
 91  5  8 22  1 59.9960000  0  5G 2G 6G13G15G19
  19738590.785   -12196054.797 8  -9278944.44724
  19888781.8484  -19890490.56847 -15395170.29964
  21831091.4884   -7807778.16545  -5746573.64961
  22576986.660    -5419378.358 5  -3969252.23321
  22190454.3874    6415920.80445   5002768.04261
 91  5  8 22  2 14.9960000  0  5G 2G 6G13G15G19
  19736661.965   -12206188.569 8  -9286840.87624
  19882543.1994  -19923273.65747 -15420715.53663
  21818446.6374   -7874230.91146  -5798354.79561
  22572414.4024   -5443405.97545  -3987974.96161
  22196071.1064    6445435.52545   5025766.43661
 91  5  8 22  2 29.9960000  0  5G 2G 6G13G15G19
  19734746.340   -12216259.594 8  -9294688.41024
  19876318.1214  -19955978.82347 -15446200.04864
  21805818.074    -7940603.714 6  -5850073.65321
  22567865.910    -5467298.145 5  -4006592.15921
  22201700.691     6475020.838 5   5048819.83521
 91  5  8 22  2 44.9960000  0  5G 2G 6G13G15G19
  19732841.660   -12226270.436 8  -9302489.04924
  19870108.5274  -19988608.17447 -15471625.48764
  21793202.1374   -8006898.54446  -5901731.74761
  22563351.043    -5491056.991 5  -4025105.47221
  22207344.3014    6504674.06845   5071926.15561
 91  5  8 22  2 59.9960000  0  5G 2G 6G13G15G19
  19730946.481   -12236224.563 8  -9310245.49624
  19863914.0824  -20021164.97147 -15496994.39264
  21780600.0204   -8073118.64546  -5953331.60461
  22558849.6844   -5514686.07645  -4043517.67861
  22212998.3484    6534391.65545   5095082.62661
 91  5  8 22  3 14.9960000  0  5G 2G 6G13G15G19
  19729065.051   -12246116.398 8  -9317953.40224
  19857733.0044  -20053643.30747 -15522302.15664
  21768013.395    -8139258.046 6  -6004868.60321
  22554380.441    -5538179.389 5  -4061824.08521
  22218667.6294    6564179.06245   5118293.50261
 91  5  8 22  3 29.9960000  0  5G 2G 6G13G15G19
  19727193.566   -12255947.234 8  -9325613.77724
  19851567.8014  -20086044.27047 -15547549.63163
  21755443.6064   -8205317.75946  -6056343.48561
  22549931.660    -5561538.027 5  -4080025.53721
  22224349.2074    6594035.10145   5141557.85661
 91  5  8 22  3 44.9960000  0  5G 2G 6G13G15G19
  19725333.434   -12265723.041 8  -9333231.26924
  19845415.8404  -20118373.28447 -15572741.04264
  21742886.6374   -8271303.18546  -6107760.48161
  22545513.4184   -5584767.69345  -4098126.51161
  22230040.9414    6623953.68845   5164870.96461
 91  5  8 22  3 59.9960000  0  5G 2G 6G13G15G19
  19723481.027   -12275456.232 8  -9340815.55824
  19839275.0274  -20150642.78147 -15597886.07264
  21730340.746    -8337226.453 6  -6159129.06221
  22541113.8484   -5607880.99845  -4116136.81561
  22235744.184     6653922.068 5   5188222.86021
 91  5  8 22  4 14.9960000  0  5G 2G 6G13G15G19
  19721640.152   -12285133.935 8  -9348356.61224
  19833148.3164  -20182839.69547 -15622974.54664
  21717810.1454   -8403074.30546  -6210438.86661
  22536740.410    -5630864.585 5  -4134046.02421
  22241458.9734    6683953.07445   5211623.55561
 91  5  8 22  4 29.9960000  0  5G 2G 6G13G15G19
  19719810.629   -12294746.043 8  -9355846.55024
  19827036.5984  -20214953.27047 -15647998.08264
  21705297.418    -8468836.188 6  -6261681.68921
  22532392.0664   -5653707.81545  -4151845.86461
  22247191.3324    6714056.97145   5235081.04961
 91  5  8 22  4 44.9960000  0  5G 2G 6G13G15G19
  19717991.5044  -12304305.02048  -9363295.09364
  19820939.3564  -20246995.90747 -15672966.34264
  21692795.8954   -8534524.30246  -6312867.02561
  22528072.348    -5676422.898 5  -4169545.85721
  22252927.3324    6744221.05445   5258585.43161
 91  5  8 22  4 59.9960000  0  5G 2G 6G13G15G19
  19716180.856   -12313815.315 8  -9370705.70124
  19814854.395   -20278971.655 7 -15697882.48323
  21680309.473    -8600142.740 6  -6363998.07821
  22523774.0434   -5699014.29945  -4187149.48261
  22258678.8714    6774440.89345   5282133.26861
 91  5  8 22  5 14.9960000  0  5G 2G 6G13G15G19
  19714382.7934  -12323272.33348  -9378074.79764
  19808783.363   -20310875.559 7 -15722742.64324
  21667835.746    -8665686.437 6  -6415070.88921
  22519496.8244   -5721477.14545  -4204652.92561
  22264443.0664    6804721.00045   5305728.06061
 91  5  8 22  5 29.9960000  0  5G 2G 6G13G15G19
  19712591.1454  -12332682.26048  -9385407.19264
  19802724.9184  -20342713.56747 -15747551.45063
  21655376.621    -8731161.210 6  -6466089.99021
  22515245.340    -5743817.209 5  -4222060.69721
  22270217.7154    6835055.20845   5329365.00561
 91  5  8 22  5 44.9960000  0  5G 2G 6G13G15G19
  19710812.9264  -12342027.10848  -9392688.89164
  19796682.2314  -20374467.34047 -15772294.62663
  21642935.012    -8796548.616 6  -6517041.01721
  22511023.121    -5766016.521 5  -4239358.78821
  22276000.777     6865461.178 5   5353057.86521
 91  5  8 22  5 59.9960000  0  5G 2G 6G13G15G19
  19709045.5124  -12351317.01248  -9399927.76164
  19790652.582   -20406146.716 7 -15796979.83223
  21630506.824    -8861858.197 6  -6567931.40221
  22506824.441    -5788084.801 6  -4256554.76921
  22281801.793     6895928.887 5   5376798.84221
 91  5  8 22  6 14.9960000  0  5G 2G 6G13G15G19
  19707288.0124  -12360551.32948  -9407123.32564
  19784639.668   -20437750.822 7 -15821606.38123
  21618092.043    -8927089.152 6  -6618760.52721
  22502647.012    -5810021.352 5  -4273648.11221
  22287606.1604    6926458.81345   5400588.29861
 91  5  8 22  6 29.9960000  0  5G 2G 6G13G15G19
  19705540.4264  -12369733.86448  -9414278.53864
  19778639.207   -20469283.131 7 -15846176.99023
  21605693.7774   -8992244.84846  -6669530.98961
  22498501.207    -5831829.609 5  -4290641.49021
  22293432.027     6957047.384 5   5424423.44221
 91  5  8 22  6 44.9960000  0  5G 2G 6G13G15G19
  19703803.7464  -12378862.42448  -9421391.69364
  19772653.856   -20500741.067 7 -15870689.64523
  21593308.3324   -9057322.68646  -6720240.80161
  22494375.129    -5853507.197 6  -4307533.04821
  22299261.8874    6987696.56345   5448305.82361
 91  5  8 22  6 59.9960000  0  5G 2G 6G13G15G19
  19702079.0354  -12387927.07148  -9428455.04564
  19766682.340   -20532114.566 7 -15895136.50623
  21580942.4654   -9122312.52546  -6770882.02961
  22490277.5664   -5875043.85745  -4324314.78661
  22305106.535     7018416.202 5   5472243.09821
 91  5  8 22  7 14.9960000  0  5G 2G 6G13G15G19
  19700364.1374  -12396932.76848  -9435472.46264
  19760728.668   -20563408.263 7 -15919521.18823
  21568591.332    -9187218.901 6  -6821458.23221
  22486203.2624   -5896444.29945  -4340990.40261
  22310965.457     7049201.061 5   5496231.19421
 91  5  8 22  7 29.9960000  0  5G 2G 6G13G15G19
  19698663.8324  -12405874.72348  -9442440.21164
  19754788.863   -20594617.189 7 -15943839.81523
  21556257.145    -9252036.754 6  -6871965.45321
  22482159.699    -5917703.529 5  -4357555.96821
  22316836.7774    7080055.84945   5520273.78861
 91  5  8 22  7 44.9960000  0  5G 2G 6G13G15G19
  19696973.6454  -12414753.07348  -9449358.39764
  19748866.981   -20625741.047 7 -15968092.15423
  21543938.0824   -9316765.88246  -6922403.51861
  22478139.168    -5938821.665 5  -4374011.59021
  22322721.254     7110980.384 5   5544370.71721
 91  5  8 22  7 59.9960000  0  5G 2G 6G13G15G19
  19695291.9024  -12423589.31648  -9456243.77364
  19742955.910   -20656800.965 7 -15992294.67123
  21531634.457    -9381427.168 6  -6972788.73421
  22474141.6454   -5959819.71445  -4390373.63661
  22328618.6134    7141953.22545   5568505.29161
 91  5  8 22  8 14.9960000  0  5G 2G 6G13G15G19
  19693622.7624  -12432368.22748  -9463084.47364
  19737060.879   -20687781.478 7 -16016435.31623
  21519344.371    -9446005.095 6  -7023108.99521
  22470172.9814   -5980682.43046  -4406630.23161
  22334523.7934    7172989.61045   5592689.38861
 91  5  8 22  8 29.9960000  0  5G 2G 6G13G15G19
  19691956.8484  -12441112.40448  -9469898.10864
  19731177.176   -20718704.771 7 -16040531.37123
  21507067.660    -9510521.659 6  -7073381.44021
  22466224.988    -6001432.300 6  -4422798.88721
  22340435.738     7204066.669 5   5616905.16621
 91  5  8 22  8 44.9960000  0  5G 2G 6G13G15G19
  19690306.3404  -12449791.39948  -9476660.95164
  19725307.254   -20749540.225 7 -16064558.98423
  21494809.2314   -9574946.12946  -7123582.11761
  22462304.3874   -6022038.48546  -4438855.58261
  22346363.176     7235214.885 5   5641176.38921
 91  5  8 22  8 59.9960000  0  5G 2G 6G13G15G19
  19688663.5204  -12458421.29548  -9483385.54064
  19719453.957   -20780303.784 7 -16088530.56923
  21482563.2854   -9639294.22946  -7173723.30361
  22458406.582    -6042516.889 6  -4454812.69721
  22352302.1684    7266418.08745   5665490.46261
 91  5  8 22  9 14.9960000  0  5G 2G 6G13G15G19
  19687031.3484  -12466995.87748  -9490067.02364
  19713615.316   -20810988.702 7 -16112440.87723
  21470332.598    -9703559.697 6  -7223800.08021
  22454533.0514   -6062860.94745  -4470665.12761
  22358251.1604    7297682.34445   5689852.12461
 91  5  8 22  9 29.9960000  0  5G 2G 6G13G15G19
  19685411.0744  -12475515.30048  -9496705.52964
  19707791.004   -20841594.941 7 -16136289.87923
  21458119.6524   -9767742.17546  -7273812.19161
  22450689.754    -6083070.893 6  -4486413.05121
  22364212.449     7329007.467 5   5714261.19521
 91  5  8 22  9 44.9960000  0  5G 2G 6G13G15G19
  19683801.3244  -12483974.89548  -9503297.40864
  19701982.215   -20872117.761 7 -16160073.87623
  21445923.5354   -9831836.58246  -7323755.67861
  22446870.934    -6103141.837 5  -4502052.66321
  22370186.379     7360397.894 5   5738721.15821
 91  5  8 22  9 59.9960000  0  5G 2G 6G13G15G19
  19682201.8404  -12492371.65448  -9509840.32964
  19696190.426   -20902553.381 7 -16183789.92223
  21433743.8634   -9895839.30246  -7373627.73161
  22443078.723    -6123070.329 5  -4517581.28621
  22376172.293     7391856.741 5   5763234.43721
 91  5  8 22 10 14.9960000  0  5G 2G 6G13G15G19
  19680612.9654  -12500728.26048  -9516351.95764
  19690410.738   -20932924.508 7 -16207455.71423
  21421576.832    -9959772.651 6  -7423445.72721
  22439307.1374   -6142878.91345  -4533016.46561
  22382166.465     7423360.972 5   5787783.06921
 91  5  8 22 10 29.9960000  0  5G 2G 6G13G15G19
  19679036.598   -12509012.199 8  -9522806.96724
  19684650.301   -20963198.139 7 -16231045.53223
  21409430.121   -10023603.899 6  -7473184.16421
  22435564.660    -6162534.827 5  -4548332.67621
  22388175.8014    7454943.04345   5812392.37861
 91  5  8 22 10 44.9960000  0  5G 2G 6G13G15G19
  19677472.0984  -12517232.53548  -9529212.41164
  19678906.746   -20993383.305 7 -16254566.42023
  21397300.676   -10087342.067 6  -7522850.06421
  22431856.371    -6182047.053 5  -4563536.92621
  22394200.652     7486593.867 5   5837055.26521
 91  5  8 22 10 59.9960000  0  5G 2G 6G13G15G19
  19675919.7934  -12525385.42648  -9535565.30564
  19673180.629   -21023475.641 7 -16278014.97523
  21385190.1374  -10150982.72146  -7572439.98561
  22428168.4814   -6201411.26945  -4578625.84061
  22400237.152     7518317.208 5   5861774.63721
 91  5  8 22 11 14.9960000  0  5G 2G 6G13G15G19
  19674382.2314  -12533472.69248  -9541867.06264
  19667470.277   -21053476.791 7 -16301392.47823
  21373099.707   -10214527.157 6  -7621954.93721
  22424511.9654   -6220629.31045  -4593600.84261
  22406286.738     7550111.129 5   5886549.00921
 91  5  8 22 11 29.9960000  0  5G 2G 6G13G15G19
  19672854.8954  -12541500.44948  -9548122.45064
  19661777.934   -21083392.488 7 -16324703.39223
  21361024.2544  -10277981.31446  -7671399.55661
  22420880.6764   -6239707.07745  -4608466.56461
  22412351.770     7581969.508 5   5911373.60921
 91  5  8 22 11 44.9960000  0  5G 2G 6G13G15G19
  19671339.2314  -12549463.92948  -9554327.75064
  19656102.941   -21113217.772 7 -16347943.85423
  21348967.246   -10341339.874 6  -7720769.65621
  22417279.1134   -6258639.60845  -4623219.08761
  22418425.090     7613897.116 5   5936252.15121
 91  5  8 22 11 59.9960000  0  5G 2G 6G13G15G19
  19669837.5744  -12557353.14948  -9560475.18564
  19650446.488   -21142942.129 7 -16371105.67223
  21336928.613   -10404592.250 6  -7770057.03421
  22413706.0354   -6277416.48345  -4637850.33961
  22424515.449     7645903.760 4   5961192.27921
 91  5  8 22 12 14.9960000  0  5G 2G 6G13G15G19
  19668344.0044  -12565201.25448  -9566590.58564
  19644802.754   -21172598.561 7 -16394214.56323
  21324906.996   -10467771.391 6  -7819287.35221
  22410156.574    -6296070.851 6  -4652386.13121
  22430612.027     7677956.317 5   5986168.19321
 91  5  8 22 12 29.9960000  0  5G 2G 6G13G15G19
  19666862.043   -12572988.413 8  -9572658.48924
  19639176.387   -21202166.967 7 -16417254.86123
  21312901.9494  -10530857.28546  -7868445.00661
  22406631.637    -6314582.687 5  -4666810.85921
  22436726.496     7710074.436 5   6011195.19621
 91  5  8 22 12 44.9960000  0  5G 2G 6G13G15G19
  19665392.254   -12580710.578 8  -9578675.74724
  19633565.793   -21231642.991 7 -16440223.17023
  21300915.660   -10593845.473 6  -7917526.53821
  22403138.957    -6332947.857 6  -4681121.30021
  22442852.465     7742261.960 5   6036276.27821
 91  5  8 22 12 59.9960000  0  5G 2G 6G13G15G19
  19663936.0274  -12588368.03348  -9584642.58764
  19627974.895   -21261026.568 7 -16463119.44423
  21288948.145   -10656735.747 6  -7966531.79021
  22399672.316    -6351166.223 6  -4695317.35521
  22448991.395     7774518.636 5   6061411.24621
 91  5  8 22 13 14.9960000  0  5G 2G 6G13G15G19
  19662488.4414  -12595977.00448  -9590571.64464
  19622398.090   -21290333.773 7 -16485956.20623
  21276995.457   -10719544.232 6  -8015473.28421
  22396227.7854   -6369253.99046  -4709411.65561
  22455136.5124    7806828.00444   6086587.27161
 91  5  8 22 13 29.9960000  0  5G 2G 6G13G15G19
  19661048.8324  -12603540.99848  -9596465.65264
  19616834.613   -21319567.731 7 -16508735.88823
  21265058.9654  -10782274.34746  -8064353.73061
  22392811.895    -6387214.592 6  -4723406.84821
  22461297.981     7839186.479 4   6111801.55821
 91  5  8 22 13 44.9960000  0  5G 2G 6G13G15G19
  19659622.621   -12611034.682 8  -9602304.87424
  19611290.660   -21348702.875 7 -16531438.57624
  21253139.856   -10844899.821 6  -8113152.62621
  22389421.613    -6405022.444 6  -4737283.02421
  22467466.371     7871619.468 4   6137073.90721
 91  5  8 22 13 59.9960000  0  5G 2G 6G13G15G19
  19658207.0744  -12618471.42348  -9608099.72464
  19605762.512   -21377752.326 7 -16554074.48724
  21241241.309   -10907433.948 6  -8161880.34721
  22386060.363    -6422690.736 6  -4751050.45421
  22473651.606     7904113.310 4   6162393.67121
 91  5  8 22 14 14.9960000  0  5G 2G 6G13G15G19
  19656803.6454  -12625847.99048  -9613847.69064
  19600252.301   -21406712.537 7 -16576640.86724
  21229358.6064  -10969873.25146  -8210534.18261
  22382724.6914   -6440216.13546  -4764706.54161
  22479847.6454    7936671.24445   6187763.38161
 91  5  8 22 14 29.9960000  0  5G 2G 6G13G15G19
  19655410.3244  -12633166.63448  -9619550.52064
  19594757.590   -21435585.157 7 -16599138.98724
  21217494.973   -11032219.179 6  -8259115.25921
  22379419.121    -6457600.501 5  -4778252.73321
  22486055.754     7969291.005 4   6213181.26721
 91  5  8 22 14 44.9960000  0  5G 2G 6G13G15G19
  19654029.4884  -12640430.51748  -9625210.67764
  19589279.871   -21464373.410 7 -16621571.37424
  21205647.9024  -11094474.80646  -8307625.98761
  22376132.691    -6474847.024 5  -4791691.50221
  22492272.676     8001969.058 4   6238644.57721
 91  5  8 22 14 59.9960000  0  5G 2G 6G13G15G19
  19652657.2464  -12647635.56748  -9630824.99064
  19583818.027   -21493072.979 7 -16643934.64624
  21193818.324   -11156635.750 6  -8356062.92221
  22372881.637    -6491951.482 6  -4805019.57721
  22498503.691     8034709.348 4   6264156.37121
 91  5  8 22 15 14.9960000  0  5G 2G 6G13G15G19
  19651293.9104  -12654799.52948  -9636407.28764
  19578370.582   -21521701.042 7 -16666242.20424
  21182004.637   -11218719.181 6  -8404439.46021
  22369648.0514   -6508931.44046  -4818250.65561
  22504740.879     8067494.120 5   6289702.83121
 91  5  8 22 15 29.9960000  0  5G 2G 6G13G15G19
  19649942.6604  -12661904.31148  -9641943.47264
  19572939.199   -21550239.534 7 -16688479.96624
  21170208.043   -11280706.957 6  -8452741.44821
  22366443.8564   -6525768.63746  -4831370.47561
  22510993.7934    8100341.42544   6315298.01361
 91  5  8 22 15 44.9960000  0  5G 2G 6G13G15G19
  19648601.254   -12668950.158 8  -9647433.73024
  19567526.082   -21578688.139 7 -16710647.68324
  21158430.348   -11342598.676 6  -8500968.60921
  22363267.574    -6542462.864 6  -4844378.89421
  22517256.1134    8133251.05545   6340941.78361
 91  5  8 22 15 59.9960000  0  5G 2G 6G13G15G19
  19647272.6844  -12675930.11448  -9652872.64664
  19562131.1844  -21607039.56847 -16732739.67964
  21146671.4574  -11404387.07846  -8549115.25761
  22360120.2624   -6559007.03646  -4857270.39261
  22523531.2544    8166229.76845   6366639.35161
 91  5  8 22 16 14.9960000  0  5G 2G 6G13G15G19
  19645955.5594  -12682854.73548  -9658268.44664
  19556752.496   -21635304.328 7 -16754764.14424
  21134932.8164  -11466082.56046  -8597189.50061
  22356999.9734   -6575411.61546  -4870053.11761
  22529815.6764    8199266.93544   6392382.47261
 91  5  8 22 16 29.9960000  0  5G 2G 6G13G15G19
  19644645.0354  -12689738.06448  -9663632.06864
  19551387.566   -21663496.107 7 -16776731.74124
  21123207.9184  -11527698.84246  -8645202.02961
  22353899.8164   -6591690.66745  -4882738.02461
  22536113.5824    8232348.32545   6418160.05761
 91  5  8 22 16 44.9960000  0  5G 2G 6G13G15G19
  19643345.1604  -12696575.54448  -9668959.96364
  19546038.637   -21691609.984 7 -16798638.63824
  21111497.832   -11589230.794 6  -8693148.84921
  22350825.340    -6607839.501 6  -4895321.48621
  22542416.785     8265478.348 5   6443975.53921
 91  5  8 22 16 59.9960000  0  5G 2G 6G13G15G19
  19642051.6844  -12703367.42648  -9674252.32964
  19540701.809   -21719645.968 7 -16820484.83724
  21099806.4494  -11650678.46046  -8741030.00061
  22347775.988    -6623858.020 6  -4907803.38921
  22548736.6294    8298656.63944   6469828.64661
 91  5  8 22 17 14.9960000  0  5G 2G 6G13G15G19
  19640767.1214  -12710119.15748  -9679513.40964
  19535380.973   -21747609.232 7 -16842274.37224
  21088125.988   -11712047.022 6  -8788849.50421
  22344754.223    -6639751.662 6  -4920187.99821
  22555053.3634    8331877.67845   6495715.02961
 91  5  8 22 17 29.9960000  0  5G 2G 6G13G15G19
  19639494.4734  -12716806.35848  -9684724.20664
  19530078.981   -21775475.105 7 -16863988.02124
  21076467.6914  -11773311.66046  -8836588.03561
  22341757.848    -6655495.637 6  -4932455.97221
  22561385.6374    8365165.70345   6521653.63961
 91  5  8 22 17 44.9960000  0  5G 2G 6G13G15G19
  19638229.3714  -12723455.96548  -9689905.70964
  19524789.441   -21803270.184 7 -16885646.50624
  21064824.9264  -11834498.90646  -8884266.25761
  22338785.7704   -6671116.83945  -4944628.27261
  22567729.8564    8398493.83245   6547623.49161
 91  5  8 22 17 59.9960000  0  5G 2G 6G13G15G19
  19636975.9264  -12730043.51248  -9695038.85864
  19519517.316   -21830969.810 7 -16907230.61024
  21053201.074   -11895583.965 6  -8931864.84521
  22335840.363    -6686590.690 6  -4956685.77421
  22574090.3714    8431886.27145   6573643.46161
 91  5  8 22 18 14.9960000  0  5G 2G 6G13G15G19
  19635730.7154  -12736582.88348  -9700134.46164
  19514262.988   -21858587.509 7 -16928750.87823
  21041593.1844  -11956580.26446  -8979394.28361
  22332922.043    -6701931.052 6  -4968639.25021
  22580450.3954    8465329.11245   6599702.68661
 91  5  8 22 18 29.9960000  0  5G 2G 6G13G15G19
  19634493.6844  -12743079.61248  -9705196.84064
  19509022.074   -21886128.395 7 -16950211.29324
  21030002.3564  -12017493.23046  -9026858.77661
  22330028.590    -6717143.008 6  -4980492.67021
  22586824.2624    8498816.73444   6625796.82561
 91  5  8 22 18 44.9960000  0  5G 2G 6G13G15G19
  19633271.6454  -12749508.28248  -9710206.18464
  19503799.918   -21913566.997 7 -16971592.00024
  21018431.0824  -12078297.04146  -9074238.22061
  22327161.137    -6732201.242 6  -4992226.30421
  22593205.9814    8532374.27944   6651945.42961
 91  5  8 22 18 59.9960000  0  5G 2G 6G13G15G19
  19632055.9494  -12755892.88648  -9715181.18964
  19498594.051   -21940926.992 7 -16992911.45824
  21006877.231   -12139015.157 6  -9121550.89221
  22324319.0904   -6747129.35945  -5003858.54961
  22599603.7934    8565977.66444   6678129.75261
 91  5  8 22 19 14.9960000  0  5G 2G 6G13G15G19
  19630850.6374  -12762234.64748  -9720122.81364
  19493403.059   -21968209.220 7 -17014170.31524
  20995338.5904  -12199648.67046  -9168797.63461
  22321502.7774   -6761928.85046  -5015390.56661
  22606004.137     8599625.397 4   6704348.64121
 91  5  8 22 19 29.9960000  0  5G 2G 6G13G15G19
  19629651.6994  -12768532.04048  -9725029.86364
  19488226.371   -21995412.058 7 -17035367.31323
  20983817.0594  -12260195.69846  -9215976.99061
  22318713.918    -6776597.910 6  -5026820.95521
  22612414.2624    8633319.09844   6730603.34961
 91  5  8 22 19 44.9960000  0  5G 2G 6G13G15G19
  19628462.2704  -12774782.13548  -9729900.06064
  19483065.699   -22022532.272 7 -17056499.92723
  20972312.6214  -12320653.10246  -9263086.50761
  22315947.754    -6791133.404 6  -5038147.26221
  22618837.1134    8667061.57144   6756896.05661
 91  5  8 22 19 59.9960000  0  5G 2G 6G13G15G19
  19627282.7074  -12780985.20948  -9734733.61664
  19477919.910   -22049569.675 7 -17077568.00823
  20960824.809   -12381020.847 6  -9310126.15621
  22313207.465    -6805535.334 6  -5049369.50621
  22625268.7464    8700852.40044   6783226.43361
 91  5  8 22 20 14.9960000  0  5G 2G 6G13G15G19
  19626109.6294  -12787141.56648  -9739530.77064
  19472790.824   -22076524.233 7 -17098571.54723
  20949353.1914  -12441298.88546  -9357095.89761
  22310493.816    -6819803.865 6  -5060487.79721
  22631711.6604    8734691.15144   6809594.16661
 91  5  8 22 20 29.9960000  0  5G 2G 6G13G15G19
  19624948.7234  -12793239.82648  -9744282.65264
  19467678.973   -22103384.428 7 -17119501.55123
  20937902.2464  -12501475.32046  -9403986.47661
  22307802.910    -6833927.567 6  -5071493.22821
  22638159.129     8768589.113 4   6836008.02921
 91  5  8 22 20 44.9960000  0  5G 2G 6G13G15G19
  19623797.2384  -12799296.43748  -9749002.08564
  19462584.020   -22130166.480 7 -17140370.66423
  20926467.5594  -12561566.25546  -9450810.42961
  22305138.801    -6847922.903 6  -5082398.64221
  22644616.9104    8802529.75644   6862455.15861
 91  5  8 22 20 59.9960000  0  5G 2G 6G13G15G19
  19622653.9574  -12805306.75948  -9753685.44464
  19457502.535   -22156865.425 7 -17161175.02023
  20915049.8094  -12621566.68446  -9497563.86261
  22302503.004    -6861784.916 6  -5093200.15221
  22651083.9494    8836517.45444   6888938.96061
 91  5  8 22 21 14.9960000  0  5G 2G 6G13G15G19
  19621521.5984  -12811257.44148  -9758322.33264
  19452439.715   -22183467.581 7 -17181903.95723
  20903651.1294  -12681462.98346  -9544236.15261
  22299889.8954   -6875500.28246  -5103887.39061
  22657563.566     8870565.531 4   6915469.80121
 91  5  8 22 21 29.9960000  0  5G 2G 6G13G15G19
  19620396.7544  -12817166.73248  -9762926.96864
  19447393.113   -22209990.909 7 -17202571.47123
  20892269.6454  -12741273.18446  -9590841.35661
  22297306.715    -6889087.072 6  -5114474.44721
  22664051.371     8904655.575 4   6942033.33621
 91  5  8 22 21 44.9960000  0  5G 2G 6G13G15G19
  19619284.0594  -12823015.14548  -9767484.16364
  19442363.520   -22236415.608 7 -17223162.12823
  20880907.863   -12800977.409 6  -9637363.97821
  22294747.621    -6902525.670 6  -5124946.04021
  22670549.457     8938807.005 4   6968644.70621
 91  5  8 22 21 59.9960000  0  5G 2G 6G13G15G19
  19618179.6134  -12828818.07248  -9772005.91464
  19437352.293   -22262756.954 7 -17243687.83423
  20869565.0744  -12860590.89846  -9683815.89161
  22292216.0744   -6915831.38346  -5135314.06561
  22677055.5274    8973004.26944   6995291.79861
 91  5  8 22 22 14.9960000  0  5G 2G 6G13G15G19
  19617082.5904  -12834577.74948  -9776493.96364
  19432354.973   -22289016.819 7 -17264150.04923
  20858236.5124  -12920115.29646  -9730198.38461
  22289711.074    -6929006.033 6  -5145579.97621
  22683573.262     9007245.042 4   7021972.77821
 91  5  8 22 22 29.9960000  0  5G 2G 6G13G15G19
  19615996.1684  -12840293.25548  -9780947.59664
  19427372.356   -22315193.826 7 -17284547.69723
  20846926.6294  -12979549.25246  -9776510.41661
  22287228.246    -6942048.556 6  -5155742.93821
  22690098.9264    9041530.34944   7048688.48661
 91  5  8 22 22 44.9960000  0  5G 2G 6G13G15G19
  19614917.6294  -12845961.86348  -9785364.68364
  19422408.145   -22341284.813 7 -17304878.31823
  20835633.481   -13038889.755 6  -9822749.62021
  22284771.660    -6954956.362 5  -5165800.93421
  22696630.2934    9075862.69844   7075440.81561
 91  5  8 22 22 59.9960000  0  5G 2G 6G13G15G19
  19613848.8564  -12851575.77848  -9789739.15364
  19417461.457   -22367282.074 7 -17325135.90623
  20824361.309   -13098128.895 6  -9868909.85521
  22282339.9654   -6967721.43745  -5175747.68061
  22703176.7234    9110249.58544   7102235.67461
 91  5  8 22 23 14.9960000  0  5G 2G 6G13G15G19
  19612788.8954  -12857138.98848  -9794074.11464
  19412531.402   -22393189.336 7 -17345323.36323
  20813107.0744  -13157270.31646  -9914993.93361
  22279941.5044   -6980347.81446  -5185586.35961
  22709729.082     9144687.050 4   7129069.92221
 91  5  8 22 23 29.9960000  0  5G 2G 6G13G15G19
  19611739.5664  -12862654.20848  -9798371.67864
  19407618.590   -22419009.006 7 -17365442.56523
  20801870.207   -13216316.243 6  -9961003.61121
  22277560.465    -6992837.941 6  -5195318.88021
  22716293.379     9179172.160 4   7155941.29321
 91  5  8 22 23 44.9960000  0  5G 2G 6G13G15G19
  19610701.8404  -12868112.74848  -9802625.08164
  19402722.262   -22444732.234 7 -17385486.62223
  20790654.910   -13275257.871 6 -10006932.00721
  22275218.0204   -7005183.35646  -5204938.62361
  22722862.6604    9213713.32344   7182856.36961
 91  5  8 22 23 59.9960000  0  5G 2G 6G13G15G19
  19609673.1994  -12873522.09048  -9806840.14164
  19397843.754   -22470366.069 7 -17405461.02223
  20779457.590   -13334102.221 6 -10052784.60821
  22272889.8244   -7017391.18746  -5214451.18361
  22729446.5744    9248303.08643   7209809.26461
 91  5  8 22 24 14.9960000  0  5G 2G 6G13G15G19
  19608650.7464  -12878893.64048  -9811025.75764
  19392981.754   -22495921.432 7 -17425374.27123
  20768275.012   -13392860.401 6 -10098570.06621
  22270592.0664   -7029472.59946  -5223865.21061
  22736031.856     9282929.945 4   7236791.08721
 91  5  8 22 24 29.9960000  0  5G 2G 6G13G15G19
  19607638.2234  -12884207.10448  -9815166.10964
  19388137.863   -22521378.025 7 -17445210.55723
  20757114.090   -13451511.876 6 -10144272.38021
  22268322.223    -7041407.515 6  -5233165.10521
  22742637.402     9317613.863 4   7263817.38621
 91  5  8 22 24 44.9960000  0  5G 2G 6G13G15G19
  19606638.6524  -12889464.80148  -9819263.00864
  19383312.762   -22546737.818 7 -17464971.42123
  20745973.0434  -13510058.64346 -10189893.09461
  22266075.231    -7053197.863 6  -5242352.35221
  22749248.2854    9352352.51544   7290886.33061
 91  5  8 22 24 59.9960000  0  5G 2G 6G13G15G19
  19605645.1684  -12894681.37848  -9823327.86964
  19378501.738   -22572015.269 7 -17484668.11923
  20734850.004   -13568514.943 6 -10235443.33021
  22263855.652    -7064858.361 6  -5251438.40521
  22755867.066     9387131.136 4   7317986.41321
 91  5  8 22 25 14.9960000  0  5G 2G 6G13G15G19
  19604661.0594  -12899856.29748  -9827360.26464
  19373707.301   -22597209.275 7 -17504299.79823
  20723741.746   -13626879.720 6 -10280922.23221
  22261661.8794   -7076388.13446  -5260422.61761
  22762489.848     9421950.162 4   7345117.98421
 91  5  8 22 25 29.9960000  0  5G 2G 6G13G15G19
  19603685.1914  -12904984.48348  -9831356.25364
  19368930.027   -22622314.561 7 -17523862.34323
  20712654.723   -13685147.760 6 -10326325.76821
  22259494.606    -7087781.948 6  -5269300.86821
  22769126.832     9456814.608 3   7372284.94321
 91  5  8 22 25 44.9960000  0  5G 2G 6G13G15G19
  19602721.5594  -12910047.52848  -9835301.47864
  19364173.691   -22647312.732 7 -17543341.42523
  20701587.512   -13743300.629 6 -10371639.56021
  22257355.238    -7099021.632 6  -5278059.03721
  22775772.496     9491742.630 3   7399501.43421
 91  5  8 22 25 59.9960000  0  5G 2G 6G13G15G19
  19601771.5434  -12915040.95748  -9839192.46064
  19359437.231   -22672199.003 7 -17562733.30723
  20690544.7464  -13801333.50446 -10416859.85061
  22255247.3794   -7110102.47246  -5286693.42861
  22782432.371     9526738.672 3   7426770.93421
 91  5  8 22 26 14.9960000  0  5G 2G 6G13G15G19
  19600833.0904  -12919975.23548  -9843037.34564
  19354720.027   -22696983.405 7 -17582045.82023
  20679522.840   -13859256.291 6 -10461994.35521
  22253164.9104   -7121034.79646  -5295212.08261
  22789102.082     9561792.098 3   7454085.15621
 91  5  8 22 26 29.9960000  0  5G 2G 6G13G15G19
  19599902.9414  -12924863.24948  -9846846.18264
  19350020.7314  -22721678.62047 -17601288.83563
  20668517.746   -13917081.697 6 -10507052.97721
  22251110.2314   -7131831.55345  -5303625.10661
  22795782.4104    9596889.70643   7481433.79561
 91  5  8 22 26 44.9960000  0  5G 2G 6G13G15G19
  19598982.6994  -12929696.23748  -9850612.13964
  19345341.606   -22746275.605 7 -17620455.30523
  20657533.504   -13974800.587 6 -10552028.60321
  22249086.9494   -7142483.86346  -5311925.58161
  22802469.527     9632040.060 3   7508823.53821
 91  5  8 22 26 59.9960000  0  5G 2G 6G13G15G19
  19598075.9734  -12934461.92048  -9854325.65964
  19340682.113   -22770761.686 7 -17639535.35423
  20646573.465   -14032400.319 6 -10596911.37521
  22247089.676    -7152979.361 6  -5320103.86321
  22809171.8714    9667255.41243   7536263.93161
 91  5  8 22 27 14.9960000  0  5G 2G 6G13G15G19
  19597179.9884  -12939166.13848  -9857991.27764
  19336042.176   -22795142.665 7 -17658533.50623
  20635633.1214  -14089886.80646 -10641705.91561
  22245118.520    -7163323.801 6  -5328164.44321
  22815882.738     9702529.929 3   7563750.42821
 91  5  8 22 27 29.9960000  0  5G 2G 6G13G15G19
  19596289.8244  -12943847.01248  -9861638.70664
  19331415.301   -22819456.088 7 -17677479.01623
  20624710.0514  -14147297.46346 -10686441.36661
  22243174.0274   -7173554.89645  -5336136.69561
  22822595.676     9737825.334 3   7591253.20521
 91  5  8 22 27 44.9960000  0  5G 2G 6G13G15G19
  19595408.4814  -12948478.00448  -9865247.26764
  19326805.801   -22843675.252 7 -17696351.07823
  20613804.0984  -14204605.50946 -10731096.85861
  22241250.129    -7183646.206 6  -5344000.02921
  22829325.184     9773168.029 4   7618792.84121
 91  5  8 22 27 59.9960000  0  5G 2G 6G13G15G19
  19594539.7854  -12953039.10948  -9868801.37064
  19322220.723   -22867779.907 7 -17715133.91223
  20602923.1374  -14261790.40946 -10775656.40261
  22239361.863    -7193577.609 5  -5351738.77921
  22836063.3874    9808578.03243   7646384.91961
 91  5  8 22 28 14.9960000  0  5G 2G 6G13G15G19
  19593681.5044  -12957556.69148  -9872321.56064
  19317648.285   -22891796.190 7 -17733847.88523
  20592057.996   -14318878.549 6 -10820140.53321
  22237494.902    -7203375.501 5  -5359373.48121
  22842809.512     9844028.536 4   7674008.53421
 91  5  8 22 28 29.9960000  0  5G 2G 6G13G15G19
  19592831.3954  -12962023.84148  -9875802.44864
  19313096.941   -22915716.861 7 -17752487.35623
  20581214.0984  -14375862.79746 -10864543.72161
  22235662.9414   -7213033.12145  -5366898.87161
  22849563.332     9879526.301 4   7701668.99521
 91  5  8 22 28 44.9960000  0  5G 2G 6G13G15G19
  19591989.5354  -12966446.04048  -9879248.31364
  19308562.871   -22939547.386 7 -17771056.58523
  20570388.707   -14432748.399 6 -10908870.04521
  22233847.746    -7222555.758 5  -5374319.09821
  22856330.0594    9915065.73544   7729361.92461
 91  5  8 22 28 59.9960000  0  5G 2G 6G13G15G19
  19591160.5354  -12970804.00848  -9882644.12464
  19304047.4264  -22963268.14347 -17789540.28263
  20559587.1454  -14489515.46046 -10953103.99661
  22232063.613    -7231924.064 5  -5381619.06121
  22863105.793     9950666.002 4   7757102.25721
 91  5  8 22 29 14.9960000  0  5G 2G 6G13G15G19
  19590340.7384  -12975102.31948  -9885993.45064
  19299556.176   -22986883.285 7 -17807941.67323
  20548806.4344  -14546168.41146 -10997249.03761
  22230312.215    -7241142.394 6  -5388802.14521
  22869888.566     9986322.289 4   7784886.23421
 91  5  8 22 29 29.9960000  0  5G 2G 6G13G15G19
  19589535.1374  -12979348.41148  -9889302.08464
  19295079.121   -23010399.972 7 -17826266.34823
  20538044.6764  -14602714.68346 -11041310.94461
  22228584.723    -7250218.299 6  -5395874.25621
  22876686.0664   10022026.88243   7812707.85361
 91  5  8 22 29 44.9960000  0  5G 2G 6G13G15G19
  19588734.9414  -12983544.91948  -9892572.08764
  19290624.145   -23033820.636 7 -17844516.20123
  20527305.457   -14659156.269 6 -11085291.29021
  22226888.5124   -7259154.08146  -5402837.18361
  22883484.9264   10057777.47044   7840565.30761
 91  5  8 22 29 59.9960000  0  5G 2G 6G13G15G19
  19587949.9414  -12987674.77048  -9895790.14864
  19286186.973   -23057127.949 7 -17862677.72723
  20516587.871   -14715475.813 6 -11129176.53221
  22225214.996    -7267932.769 6  -5409677.70521
  22890301.840    10093590.875 4   7868471.72221
 91  5  8 22 30 14.9960000  0  5G 2G 6G13G15G19
  19587171.5824  -12991757.76948  -9898971.70064
  19281770.684   -23080341.447 7 -17880766.15323
  20505891.5824  -14771692.81246 -11172981.87261
  22223571.457    -7276574.087 6  -5416411.17021
  22897128.5434   10129447.12244   7896411.52461
 91  5  8 22 30 29.9950000  0  5G 2G 6G13G15G19
  19586402.6874  -12995801.71948  -9902122.83064
  19277369.491   -23103467.523 7 -17898786.45923
  20495210.577   -14827811.487 6 -11216710.59721
  22221951.8274   -7285085.28446  -5423043.25161
  22903957.1324   10165335.51143   7924376.36661
 91  5  8 22 30 44.9950000  0  5G 2G 6G13G15G19
  19585641.5544  -12999809.45648  -9905245.73564
  19272983.913   -23126511.111 7 -17916742.48623
  20484550.390   -14883841.153 6 -11260369.96821
  22220352.999    -7293469.881 6  -5429576.66821
  22910790.538    10201258.374 3   7952368.08621
 91  5  8 22 30 59.9950000  0  5G 2G 6G13G15G19
  19584890.0234  -13003750.39248  -9908316.58664
  19268621.515   -23149440.086 7 -17934609.21023
  20473911.2574  -14939747.63146 -11303933.33961
  22218786.9214   -7301696.94545  -5435987.35161
  22917641.054    10237243.348 3   7980408.16021
 91  5  8 22 31 14.9950000  0  5G 2G 6G13G15G19
  19584150.2104  -13007638.13348  -9911345.98764
  19264277.335   -23172267.911 7 -17952397.10923
  20463292.546   -14995544.159 6 -11347411.04521
  22217249.148    -7309780.007 5  -5442285.82221
  22924496.8124   10273276.89743   8008486.11661
 91  5  8 22 31 29.9950000  0  5G 2G 6G13G15G19
  19583418.3744  -13011491.56048  -9914348.65464
  19259947.796   -23195013.160 7 -17970120.66623
  20452692.319   -15051249.251 6 -11390817.50621
  22215736.530    -7317738.043 6  -5448486.86021
  22931361.741    10309340.000 3   8036587.05421
 91  5  8 22 31 44.9950000  0  5G 2G 6G13G15G19
  19582692.9684  -13015300.15648  -9917316.38764
  19255638.187   -23217665.007 7 -17987771.44023
  20442111.101   -15106852.080 6 -11434144.27621
  22214246.163    -7325560.453 6  -5454582.22421
  22938227.6554   10345443.07743   8064719.18161
 91  5  8 22 31 59.9950000  0  5G 2G 6G13G15G19
  19581976.4994  -13019060.03448  -9920246.15464
  19251346.319   -23240219.407 7 -18005346.27923
  20431550.491   -15162348.448 6 -11477388.09421
  22212787.3904   -7333243.20646  -5460568.76161
  22945107.171    10381589.619 3   8092885.17421
 91  5  8 22 32 14.9950000  0  5G 2G 6G13G15G19
  19581271.7964  -13022767.27648  -9923134.91064
  19247073.890   -23262671.992 7 -18022841.78623
  20421009.694   -15217734.128 6 -11520545.66221
  22211346.429    -7340782.235 6  -5466443.29521
  22951995.6244   10417783.47043   8121088.02461
 91  5  8 22 32 29.9950000  0  5G 2G 6G13G15G19
  19580572.5934  -13026441.76848  -9925998.14464
  19242817.077   -23285042.463 7 -18040273.30223
  20410488.0774  -15273028.75146 -11563632.28961
  22209941.905    -7348197.199 6  -5472221.17121
  22958888.062    10454004.600 3   8149312.12521
 91  5  8 22 32 44.9950000  0  5G 2G 6G13G15G19
  19579883.1944  -13030063.76248  -9928820.47164
  19238577.257   -23307310.820 7 -18057625.25223
  20399987.515   -15328212.490 6 -11606632.49521
  22208555.2104   -7355468.66345  -5477887.20961
  22965788.077    10490272.645 3   8177572.79921
 91  5  8 22 32 59.9950000  0  5G 2G 6G13G15G19
  19579205.8124  -13033631.06348  -9931600.18464
  19234361.851   -23329474.697 7 -18074895.78923
  20389507.015   -15383282.814 6 -11649544.33821
  22207196.5854   -7362594.22045  -5483439.56261
  22972697.8904   10526589.70142   8205871.64161
 91  5  8 22 33 14.9950000  0  5G 2G 6G13G15G19
  19578534.8194  -13037151.50548  -9934343.38164
  19230162.694   -23351541.587 7 -18092090.75323
  20379047.9914  -15438247.18546 -11692373.61561
  22205870.2884   -7369581.83845  -5488884.42261
  22979613.937    10562947.701 3   8234202.39021
 91  5  8 22 33 29.9950000  0  5G 2G 6G13G15G19
  19577872.7104  -13040629.99648  -9937053.89264
  19225980.608   -23373516.257 7 -18109213.85423
  20368608.7884  -15493110.31246 -11735124.00561
  22204569.327    -7376436.288 5  -5494225.52821
  22986544.8824   10599341.48743   8262561.03861
 91  5  8 22 33 44.9950000  0  5G 2G 6G13G15G19
  19577219.4834  -13044063.40548  -9939729.27564
  19221815.554   -23395395.299 7 -18126262.44423
  20358187.7104  -15547868.92646 -11777792.95761
  22203290.0774   -7383154.48045  -5499460.45361
  22993478.624    10635774.075 3   8290949.90421
 91  5  8 22 33 59.9950000  0  5G 2G 6G13G15G19
  19576575.4524  -13047448.45248  -9942366.97364
  19217671.788   -23417175.016 7 -18143233.64023
  20347788.1554  -15602519.31846 -11820377.57961
  22202036.929    -7389733.058 6  -5504586.58321
  23000418.593    10672248.625 2   8319371.48921
 91  5  8 22 34 14.9950000  0  4G 2G 6G13G15
  19575939.2884  -13050790.98048  -9944971.53664
  19213544.507   -23438861.241 7 -18160131.98523
  20337407.3744  -15657067.16546 -11862882.30161
  22200808.7884   -7396178.08246  -5509608.66561
 91  5  8 22 34 29.9950000  0  4G 2G 6G13G15
  19575310.0464  -13054093.46348  -9947544.89964
  19209436.4994  -23460456.16947 -18176959.18963
  20327046.023   -15711514.848 6 -11905308.96721
  22199605.398    -7402491.718 6  -5514528.35521
 91  5  8 22 34 44.9950000  0  4G 2G 6G13G15
  19574693.1084  -13057336.07848  -9950071.60964
  19205349.296   -23481939.694 7 -18193699.58623
  20316708.116   -15765842.320 6 -11947641.95921
  22198436.257    -7408654.316 5  -5519330.34721
 91  5  8 22 34 59.9950000  0  4G 2G 6G13G15
  19574083.2654  -13060540.23448  -9952568.35464
  19201277.0694  -23503332.97047 -18210369.65963
  20306389.226   -15820070.320 6 -11989897.44521
  22197286.960    -7414687.195 6  -5524031.26621
 91  5  8 22 35 14.9950000  0  4G 2G 6G13G15
  19573482.7024  -13063697.92548  -9955028.88764
  19197224.937   -23524627.697 7 -18226962.94323
  20296089.671   -15874190.625 6 -12032069.00921
  22196164.1324   -7420582.07546  -5528624.64761
 91  5  8 22 35 29.9950000  0  4G 2G 6G13G15
  19572892.0464  -13066806.33548  -9957451.02364
  19193190.9444  -23545820.70747 -18243476.96463
  20285812.6084  -15928200.22246 -12074154.30661
  22195066.0854   -7426336.10546  -5533108.27661
 91  5  8 22 35 44.9950000  0  4G 2G 6G13G15
  19572309.8904  -13069859.56148  -9959830.15864
  19189179.233   -23566906.046 7 -18259907.08223
  20275557.390   -15982092.873 6 -12116148.47321
  22194004.851    -7431943.680 6  -5537477.78821
 91  5  8 22 35 59.9950000  0  4G 2G 6G13G15
  19571739.5074  -13072860.59048  -9962168.61764
  19185187.468   -23587886.090 7 -18276255.15523
  20265323.2494  -16035871.21346 -12158053.57561
  22192960.3984   -7437407.27346  -5541735.10361
 91  5  8 22 36 14.9950000  0  4G 2G 6G13G15
  19571175.8584  -13075822.29448  -9964476.43664
  19181211.030   -23608773.792 7 -18292531.27023
  20255108.780   -16089547.984 6 -12199879.51721
  22191950.015    -7442740.030 6  -5545890.46721
 91  5  8 22 36 29.9950000  0  4G 2G 6G13G15
  19570618.9294  -13078745.36148  -9966754.14664
  19177254.585   -23629569.456 7 -18308735.67123
  20244913.749   -16143123.640 6 -12241626.68621
  22190957.241    -7447942.617 6  -5549944.39721
 91  5  8 22 36 44.9950000  0  4G 2G 6G13G15
  19570072.3744  -13081618.34348  -9968992.83264
  19173316.608   -23650261.388 7 -18324859.23923
  20234738.757   -16196586.314 6 -12283285.80321
  22189996.7884   -7453003.79746  -5553888.14961
 91  5  8 22 36 59.9950000  0  4G 2G 6G13G15
  19569536.5384  -13084433.19348  -9971186.21664
  19169401.694   -23670841.449 7 -18340895.63523
  20224589.733   -16249927.897 6 -12324850.56221
  22189058.819    -7457915.298 6  -5557715.26121
 91  5  8 22 37 14.9950000  0  4G 2G 6G13G15
  19569009.5854  -13087204.30348  -9973345.51964
  19165503.890   -23691323.574 7 -18356855.72023
  20214458.468   -16303162.552 6 -12366332.01221
  22188153.398    -7462691.249 6  -5561436.74421
 91  5  8 22 37 29.9950000  0  4G 2G 6G13G15
  19568489.6944  -13089930.19848  -9975469.58664
  19161624.765   -23711706.213 7 -18372738.28723
  20204349.569   -16356288.386 6 -12407728.66021
  22187271.5464   -7467330.37046  -5565051.61161
 91  5  8 22 37 44.9950000  0  4G 2G 6G13G15
  19567982.5694  -13092603.42548  -9977552.61764
  19157766.780   -23731981.677 7 -18388537.33523
  20194262.491   -16409297.685 6 -12449034.50321
  22186412.5304   -7471825.27646  -5568554.10761
 91  5  8 22 37 59.9950000  0  4G 2G 6G13G15
  19567484.0624  -13095216.40548  -9979588.69964
  19153931.2654  -23752142.00347 -18404246.66963
  20184198.015   -16462182.782 6 -12490243.56221
  22185584.0774   -7476168.62646  -5571938.50061
 91  5  8 22 38 14.9950000  0  4G 2G 6G13G15
  19566996.9134  -13097782.94948  -9981588.60064
  19150112.773   -23772201.039 7 -18419877.07323
  20174155.718   -16514957.233 6 -12531366.40721
  22184785.0694   -7480374.01346  -5575215.39261
 91  5  8 22 38 29.9950000  0  4G 2G 6G13G15
  19566516.2414  -13100312.63948  -9983559.78064
  19146313.257   -23792167.971 7 -18435435.70423
  20164132.577   -16567630.496 6 -12572410.40321
  22184007.874    -7484451.017 5  -5578392.25221
 91  5  8 22 38 44.9950000  0  4G 2G 6G13G15
  19566044.6244  -13102786.44648  -9985487.41864
  19142535.577   -23812023.385 7 -18450907.44323
  20154131.702   -16620182.935 7 -12613360.24821
  22183260.9764   -7488380.47246  -5581454.13761
 91  5  8 22 38 59.9950000  0  4G 2G 6G13G15
  19565579.2884  -13105224.57848  -9987387.25764
  19138774.8904  -23831787.27347 -18466307.86963
  20144150.054   -16672634.817 7 -12654231.74121
  22182538.6014   -7492182.63145  -5584416.83061
 91  5  8 22 39 14.9950000  0  4G 2G 6G13G15
  19565127.3824  -13107607.14648  -9989243.80064
  19135034.116   -23851439.784 7 -18481621.50123
  20134192.515   -16724965.907 7 -12695009.10821
  22181845.554    -7495837.500 5  -5587264.74921
 91  5  8 22 39 29.9950000  0  4G 2G 6G13G15
  19564680.8744  -13109958.14048  -9991075.73864
  19131311.1554  -23871004.51447 -18496866.73563
  20124252.679   -16777199.963 6 -12735710.86721
  22181173.530    -7499369.466 6  -5590016.90321
 91  5  8 22 39 44.9950000  0  4G 2G 6G13G15
  19564240.4374  -13112269.09547  -9992876.47664
  19127606.7574  -23890472.76947 -18512036.79663
  20114331.757   -16829328.306 7 -12776330.25221
  22180522.9684   -7502769.94245  -5592666.58861
 91  5  8 22 39 59.9950000  0  4G 2G 6G13G15
  19563808.4834  -13114536.01047  -9994642.90264
  19123921.3514  -23909840.14947 -18527128.25263
  20104432.788   -16881346.575 7 -12816863.86621
  22179904.663    -7506034.513 6  -5595210.39321
 91  5  8 22 40 14.9950000  0  4G 2G 6G13G15
  19563383.8354  -13116761.85147  -9996377.31764
  19120254.8274  -23929109.38447 -18542143.22763
  20094554.608   -16933257.452 7 -12857313.79721
  22179307.577    -7509166.507 5  -5597650.87721
 91  5  8 22 40 29.9950000  0  4G 2G 6G13G15
  19562972.6554  -13118927.40547  -9998064.75664
  19116610.8904  -23948261.24647 -18557066.74863
  20084701.2104  -16985041.59447 -12897664.97561
  22178737.671    -7512146.682 5  -5599973.05721
 91  5  8 22 40 44.9950000  0  4G 2G 6G13G15
  19562571.5464  -13121034.58647  -9999706.71064
  19112987.6324  -23967297.27147 -18571900.01163
  20074870.218   -17036700.441 7 -12937918.51521
  22178202.226    -7514976.690 6  -5602178.24421
 91  5  8 22 40 59.9950000  0  4G 2G 6G13G15
  19562178.3514  -13123099.63547 -10001315.83464
  19109384.3124  -23986233.44847 -18586655.46463
  20065061.0464  -17088250.33247 -12978087.16461
  22177689.507    -7517673.123 6  -5604279.33121
 91  5  8 22 41 14.9950000  0  4G 2G 6G13G15
  19561796.8664  -13125112.11848 -10002884.00164
  19105801.7104  -24005059.15847 -18601324.84063
  20055272.9834  -17139680.66347 -13018162.65061
  22177202.187    -7520225.711 6  -5606268.34721
 91  5  8 22 41 29.9950000  0  4G 2G 6G13G15
  19561421.3124  -13127084.30247 -10004420.76064
  19102237.530   -24023786.560 7 -18615917.60923
  20045506.773   -17191003.350 7 -13058154.24421
  22176743.2264   -7522646.56846  -5608154.71061
 91  5  8 22 41 44.9950000  0  4G 2G 6G13G15
  19561055.4914  -13129006.75547 -10005918.77364
  19098694.3744  -24042405.90547 -18630426.18063
  20035761.3584  -17242208.67646 -13098054.40061
  22176312.718    -7524926.359 6  -5609931.14721
 91  5  8 22 41 59.9950000  0  4G 2G 6G13G15
  19560700.5544  -13130867.48948 -10007368.68964
  19095174.437   -24060904.817 7 -18644840.90423
  20026043.9444  -17293284.37446 -13137853.54661
  22175902.273    -7527052.841 6  -5611588.14221
 91  5  8 22 42 14.9950000  0  4G 2G 6G13G15
  19560352.6084  -13132692.41047 -10008790.70064
  19091672.374   -24079309.137 7 -18659181.92123
  20016344.499   -17344256.173 7 -13177571.73621
  22175521.2494   -7529052.18246  -5613146.05661
 91  5  8 22 42 29.9950000  0  4G 2G 6G13G15
  19560015.7654  -13134469.59948
  19088190.3434  -24097606.82147 -18673439.84663
  20006666.7184  -17395112.14047 -13217199.66361
  22175168.2184   -7530912.58146
 91  5  8 22 42 44.9950000  0  4G 2G 6G13G15
  19559686.8354  -13136201.83748
  19084726.616   -24115800.296 7 -18687616.56923
  19997009.288   -17445854.673 6 -13256739.20121
  22174838.7574   -7532636.75946
 91  5  8 22 42 59.9950000  0  4G 2G 6G13G15
  19559363.7804  -13137890.30347 -10012841.00264
  19081285.9684  -24133890.61047 -18701712.90963
  19987375.2264  -17496484.73046 -13296191.09861
  22174537.069    -7534225.941 6  -5617177.54221
 91  5  8 22 43 14.9950000  0  4G 2G 6G13G15
  19559054.4764  -13139514.76247 -10014106.81364
  19077866.9054  -24151857.38047 -18715712.97863
  19977766.3984  -17546981.83946 -13335539.40261
  22174267.6084   -7535659.92846  -5618294.91961
 91  5  8 22 43 29.9950000  0  4G 2G 6G13G15
  19558756.9054  -13141078.79548 -10015325.54064
  19074470.8744  -24169703.83247 -18729619.29463
  19968180.9524  -17597349.30946 -13374786.68561
  22174023.9684   -7536942.38546  -5619294.23561
 91  5  8 22 43 44.9950000  0  4G 2G 6G13G15
  19558469.5384  -13142590.03848 -10016503.13164
  19071096.7414  -24187437.32547 -18743437.59063
  19958619.1874  -17647594.53546 -13413938.72061
  22173804.6944   -7538080.84046  -5620181.32661
 91  5  8 22 43 59.9950000  0  4G 2G 6G13G15
  19558194.1944  -13144041.33348 -10017634.01164
  19067744.601   -24205050.422 7 -18757162.07023
  19949083.3824  -17697710.12746 -13452989.74661
  22173612.2264   -7539068.22846  -5620950.72761
 91  5  8 22 44 14.9950000  0  4G 2G 6G13G15
  19557926.3434  -13145445.22748 -10018727.95564
  19064413.2104  -24222555.57347 -18770802.43863
  19939569.0934  -17747708.76946 -13491949.63761
  22173457.3354   -7539917.27146  -5621612.32161
 91  5  8 22 44 29.9950000  0  4G 2G 6G13G15
  19557669.0694  -13146797.30848 -10019781.52064
  19061103.2654  -24239948.18047 -18784355.11263
  19930077.671   -17797585.618 6 -13530814.62621
  22173320.3124   -7540623.43346  -5622162.57661
 91  5  8 22 44 44.9950000  0  4G 2G 6G13G15
  19557421.8824  -13148093.37248 -10020791.43864
  19057815.4524  -24257223.74647 -18797816.58163
  19920610.1794  -17847336.01346 -13569581.08161
  22173214.2104   -7541182.48246  -5622598.19561
 91  5  8 22 44 59.9950000  0  4G 2G 6G13G15
  19557185.1014  -13149343.72548 -10021765.74364
  19054550.1164  -24274392.44947 -18811194.78363
  19911164.944   -17896970.179 7 -13608256.97221
  22173132.6554   -7541604.90646  -5622927.35461
 91  5  8 22 45 14.9950000  0  4G 2G 6G13G15
  19556959.7334  -13150522.99948 -10022684.65564
  19051306.343   -24291428.529 7 -18824469.63823
  19901747.710   -17946462.507 7 -13646822.34121
  22173088.5694   -7541865.28246  -5623130.24961
 91  5  8 22 45 29.9950000  0  4G 2G 6G13G15
  19556747.6244  -13151650.03148 -10023562.85964
  19048086.1084  -24308350.40147 -18837655.50763
  19892352.562   -17995831.478 7 -13685291.58921
  22173060.4914   -7541982.37446
 91  5  8 22 45 44.9950000  0  4G 2G 6G13G15
  19556543.3664  -13152714.17748 -10024392.06064
  19044890.538   -24325147.602 7 -18850744.22423
  19882983.030   -18045066.569 7 -13723656.51421
  22173069.5464   -7541945.76246
 91  5  8 22 45 59.9950000  0  4G 2G 6G13G15
  19556350.4134  -13153728.11648 -10025182.14064
  19041715.8904  -24341832.44247 -18863745.39263
  19873637.562   -18094180.124 7 -13761926.73921
  22173104.6404   -7541767.97146
 91  5  8 22 46 14.9950000  0  4G 2G 6G13G15
  19556166.6634  -13154696.29048 -10025936.55764
  19038561.4914  -24358409.12547 -18876662.27763
  19864313.374   -18143176.347 7 -13800105.53721
  22173163.108    -7541453.531 6
 91  5  8 22 46 29.9950000  0  4G 2G 6G13G15
  19555991.0544  -13155616.86648 -10026653.89064
  19035428.2734  -24374875.85847 -18889493.48863
  19855012.062   -18192053.465 7 -13838191.52321
  22173248.1484   -7541000.93246  -5622456.67961
 91  5  8 22 46 44.9950000  0  4G 2G 6G13G15
  19555829.3124  -13156469.52348 -10027318.29864
  19032319.6874  -24391211.77747 -18902222.76863
  19845737.483   -18240790.488 7 -13876168.35221
  22173364.5384   -7540389.79945  -5621980.47261
 91  5  8 22 46 59.9950000  0  4G 2G 6G13G15
  19555675.9214  -13157269.88148 -10027941.95464
  19029232.6554  -24407432.39847 -18914862.20263
  19836485.866   -18289402.902 7 -13914048.08021
  22173506.515    -7539635.961 5  -5621393.04321
 91  5  8 22 47 14.9950000  0  4G 2G 6G13G15
  19555533.4374  -13158017.68248 -10028524.65164
  19026168.8664  -24423537.45047 -18927411.58663
  19827259.116   -18337890.532 7 -13951830.57921
  22173682.937    -7538739.112 6  -5620694.19521
 91  5  8 22 47 29.9950000  0  4G 2G 6G13G15
  19555401.8434  -13158712.19748 -10029065.83464
  19023125.5304  -24439525.84447 -18939870.06563
  19818056.702   -18386252.272 7 -13989514.97821
  22173880.9834   -7537698.52645  -5619883.34761
 91  5  8 22 47 44.9950000  0  4G 2G 6G13G15
  19555282.7264  -13159344.12048 -10029558.23764
  19020107.0384  -24455388.12047 -18952230.27163
  19808878.8044  -18434478.64947 -14027093.90361
  22174107.077    -7536505.182 5  -5618953.45221
 91  5  8 22 47 59.9950000  0  4G 2G 6G13G15
  19555169.0074  -13159941.03148 -10030023.36164
  19017107.1014  -24471151.35447 -18964513.30063
  19799723.226   -18482597.015 7 -14064588.66821
  22174353.2654   -7535186.36146  -5617925.79861
 91  5  8 22 48 14.9950000  0  4G 2G 6G13G15
  19555065.5694  -13160485.39248 -10030447.53264
  19014130.2734  -24486798.11747 -18976705.57263
  19790591.194   -18530589.839 7 -14101985.59921
  22174633.140    -7533724.622 6  -5616786.77021
 91  5  8 22 48 29.9950000  0  4G 2G 6G13G15
  19554968.1794  -13160985.38148 -10030837.13164
  19011173.7024  -24502336.17047 -18988813.13963
  19781478.8904  -18578464.83547 -14139290.72361
  22174939.4764   -7532128.37745  -5615542.92861
 91  5  8 22 48 44.9950000  0  4G 2G 6G13G15
  19554884.4994  -13161440.83948 -10031192.03364
  19008235.8984  -24517765.43247 -19000835.93063
  19772391.788   -18626221.775 7 -14176503.85021
  22175263.9294   -7530397.58246  -5614194.25661
 91  5  8 22 48 59.9950000  0  4G 2G 6G13G15
  19554807.0774  -13161846.65348 -10031508.24664
  19005322.3664  -24533080.22547 -19012769.52763
  19763327.749   -18673855.201 7 -14213620.73021
  22175625.140    -7528527.275 6  -5612736.85321
 91  5  8 22 49 14.9950000  0  4G 2G 6G13G15
  19554739.5694  -13162208.39448 -10031790.12564
  19002427.9834  -24548286.23747 -19024618.36263
  19754286.2494  -18721370.66647 -14250645.70461
  22176002.6714   -7526523.04846  -5611175.11761
 91  5  8 22 49 29.9950000  0  4G 2G 6G13G15
  19554675.9134  -13162519.77848 -10032032.75364
  18999556.8514  -24563376.75147 -19036377.19963
  19745267.343   -18768761.615 7 -14287573.64321
  22176414.0934   -7524378.54346  -5609504.07061
 91  5  8 22 49 44.9950000  0  4G 2G 6G13G15
  19554627.3664  -13162794.82048 -10032247.07264
  18996704.8194  -24578365.85747 -19048057.01763
  19736270.9444  -18816042.08047 -14324415.49561
  22176844.5934   -7522108.00746  -5607734.81361
 91  5  8 22 49 59.9950000  0  4G 2G 6G13G15
  19554581.4684  -13163025.48048 -10032426.80464
  18993874.6484  -24593245.14047 -19059651.26063
  19727295.398   -18863203.790 7 -14361164.80621
  22177300.6944   -7519703.47746  -5605861.15661
 91  5  8 22 50 14.9950000  0  4G 2G 6G13G15
  19554548.6944  -13163198.68248
  18991065.3664  -24608001.47847 -19071149.70063
  19718345.1714  -18910233.36847 -14397811.16061
  22177787.2024   -7517151.80845  -5603872.83761
 91  5  8 22 50 29.9950000  0  4G 2G 6G13G15
  19554524.8274  -13163322.32648
  18988280.2184  -24622642.42247 -19082558.22263
  19709420.491   -18957138.659 7 -14434360.66321
  22178301.9524   -7514461.06146  -5601776.15561
 91  5  8 22 50 44.9950000  0  4G 2G 6G13G15
  19554508.2654  -13163410.13848
  18985512.8194  -24637181.78647 -19093887.59363
  19700515.046   -19003933.352 7 -14470823.98721
  22178836.155    -7511645.096 5  -5599581.88921
 91  5  8 22 50 59.9950000  0  4G 2G 6G13G15
  19554500.0624  -13163444.99548
  18982768.6164  -24651601.90547 -19105124.04263
  19691634.640   -19050599.879 7 -14507187.43721
  22179398.1324   -7508686.77746  -5597276.71061
 91  5  8 22 51 14.9950000  0  4G 2G 6G13G15
  19554499.2184  -13163442.87248
  18980044.0074  -24665918.59647 -19116279.89963
  19682777.093   -19097154.089 7 -14543463.37221
  22179986.9834   -7505602.36146  -5594873.26661
 91  5  8 22 51 29.9950000  0  4G 2G 6G13G15
  19554511.9294  -13163400.47548
  18977339.5544  -24680128.43047 -19127352.49263
  19673939.905   -19143592.684 7 -14579649.21321
  22180598.1634   -7502388.60946  -5592369.02861
 91  5  8 22 51 44.9950000  0  4G 2G 6G13G15
  19554525.6554  -13163316.48348
  18974655.9914  -24694229.80947 -19138340.57663
  19665124.648   -19189913.856 7 -14615743.55521
  22181235.4054   -7499044.20646  -5589763.00761
 91  5  8 22 51 59.9950000  0  4G 2G 6G13G15
  19554554.4054  -13163179.09448
  18971995.6794  -24708210.86647 -19149234.90563
  19656334.937   -19236105.849 7 -14651737.24221
  22181897.5384   -7495557.50846  -5587046.10461
 91  5  8 22 52 14.9950000  0  4G 2G 6G13G15
  19554589.8824  -13162991.88048
  18969358.3584  -24722074.84647 -19160038.00063
  19647568.3044  -19282171.78347 -14687632.70361
  22182585.5234   -7491932.15446  -5584221.15361
 91  5  8 22 52 29.9950000  0  4G 2G 6G13G15
  19554632.2734  -13162757.88748 -10032218.27564
  18966741.8984  -24735824.77047 -19170752.22863
  19638826.148   -19328114.925 7 -14723432.47521
  22183302.2654   -7488171.14845  -5581290.49761
 91  5  8 22 52 44.9950000  0  4G 2G 6G13G15
  19554680.3824  -13162492.59348 -10032011.55364
  18964144.6014  -24749476.00347 -19181389.55063
  19630103.319   -19373950.507 7 -14759148.43721
  22184042.101    -7484290.128 5  -5578266.31421
 91  5  8 22 52 59.9950000  0  4G 2G 6G13G15
  19554743.5854  -13162177.43248 -10031765.97464
  18961568.2964  -24763009.63547 -19191935.23663
  19621404.835   -19419659.794 7 -14794765.98521
  22184803.101    -7480270.772 5  -5575134.36621
 91  5  8 22 53 14.9950000  0  4G 2G 6G13G15
  19554813.7494  -13161805.91448 -10031476.48464
  18959016.2334  -24776419.01447 -19202384.10163
  19612732.648   -19465235.971 7 -14830279.81321
  22185599.8584   -7476106.78745  -5571889.69961
 91  5  8 22 53 29.9950000  0  4G 2G 6G13G15
  19554892.1944  -13161390.86548 -10031153.07364
  18956486.2494  -24789716.94847 -19212746.12763
  19604082.327   -19510691.860 7 -14865699.91422
  22186415.5154   -7471810.91245  -5568542.27961
 91  5  8 22 53 44.9950000  0  4G 2G 6G13G15
  19554979.7574  -13160928.49148 -10030792.78464
  18953977.6404  -24802899.18847 -19223017.99463
  19595455.2104  -19556023.27547 -14901023.02562
  22187260.1554   -7467379.34745  -5565089.11361
 91  5  8 22 53 59.9950000  0  4G 2G 6G13G15
  19555074.0544  -13160440.02148 -10030412.16164
  18951486.1164  -24815986.76047 -19233216.10163
  19586849.827   -19601251.561 7 -14936265.77321
  22188120.858    -7462833.499 5  -5561546.90021
 91  5  8 22 54 14.9950000  0  4G 2G 6G13G15
  19555178.3514  -13159900.52148 -10029991.77964
  18949019.1714  -24828954.70047 -19243320.98563
  19578267.312   -19646351.321 7 -14971408.36921
  22189013.4134   -7458148.45845  -5557896.22761
 91  5  8 22 54 29.9950000  0  4G 2G 6G13G15
  19555288.5074  -13159315.87948 -10029536.21764
  18946572.9524  -24841808.63347 -19253337.03563
  19569708.3194  -19691328.45447 -15006455.41762
  22189934.7804   -7453330.30845  -5554141.81861
 91  5  8 22 54 44.9950000  0  4G 2G 6G13G15
  19555407.3514  -13158683.32648 -10029043.32764
  18944149.7264  -24854545.58347 -19263261.92663
  19561172.8434  -19736179.83347 -15041404.47562
  22190876.6554   -7448376.37045  -5550281.59761
 91  5  8 22 54 59.9950000  0  4G 2G 6G13G15
  19555538.1484  -13158003.45648 -10028513.56364
  18941748.6084  -24867166.08247 -19273096.07763
  19552661.7184  -19780906.25047 -15076256.16161
  22191842.2654   -7443287.46945  -5546316.22461
 91  5  8 22 55 14.9950000  0  4G 2G 6G13G15
  19555675.2264  -13157273.49548 -10027944.76464
  18939369.6484  -24879667.18047 -19282837.19363
  19544175.155   -19825504.711 7 -15111008.13622
  22192836.523    -7438061.078 5  -5542243.70921
 91  5  8 22 55 29.9950000  0  4G 2G 6G13G15
  19555821.6324  -13156501.59048 -10027343.28664
  18937011.8274  -24892056.80647 -19292491.44263
  19535711.6404  -19869983.27947 -15145666.69461
  22193854.6244   -7432705.31545  -5538070.36361
 91  5  8 22 55 44.9950000  0  4G 2G 6G13G15
  19555977.7654  -13155688.24848 -10026709.51864
  18934674.7334  -24904335.33047 -19302059.11862
  19527271.140   -19914342.196 7 -15180232.01422
  22194902.7804   -7427220.99145  -5533796.86161
 91  5  8 22 55 59.9950000  0  4G 2G 6G13G15
  19556140.1714  -13154824.22147 -10026036.25664
  18932361.4524  -24916493.43647 -19311532.96962
  19518854.6874  -19958572.08647 -15214696.80161
  22195971.843    -7421599.033 5  -5529416.10321
 91  5  8 22 56 14.9950000  0  4G 2G 6G13G15
  19556316.2654  -13153910.10148 -10025323.96564
  18930070.8194  -24928531.37547 -19320913.17762
  19510460.6084  -20002673.22847 -15249061.26562
  22197068.1404   -7415839.80245  -5524928.39161
 91  5  8 22 56 29.9950000  0  4G 2G 6G13G15
  19556500.8824  -13152937.73348 -10024566.28064
  18927803.8434  -24940440.92347 -19330193.34362
  19502094.4134  -20046637.44147 -15283319.03062
  22198194.8434   -7409935.30245  -5520327.46561
 91  5  8 22 56 44.9950000  0  4G 2G 6G13G15
  19556693.6794  -13151925.74248 -10023777.72664
  18925559.6484  -24952240.43147 -19339387.76162
  19493750.5074  -20090483.37447 -15317484.62761
  22199336.2734   -7403904.24545  -5515627.94261
 91  5  8 22 56 59.9950000  0  4G 2G 6G13G15
  19556895.7024  -13150866.49148 -10022952.34564
  18923335.5694  -24963922.04147 -19348490.30862
  19485430.8744  -20134202.88247 -15351551.71561
  22200511.8124   -7397739.06345  -5510823.89561
 91  5  8 22 57 14.9950000  0  4G 2G 6G13G15
  19557108.4604  -13149752.58548 -10022084.37364
  18921136.8664  -24975478.15047 -19357495.06162
  19477136.2414  -20177788.44147 -15385514.42761
  22201712.2184   -7391432.38745  -5505909.60161
 91  5  8 22 57 29.9950000  0  4G 2G 6G13G15
  19557327.2104  -13148601.74748 -10021187.62464
  18918958.0154  -24986926.43547 -19366415.79563
  19468865.3194  -20221257.76747 -15419386.56562
  22202931.382    -7385002.400 5  -5500899.21321
 91  5  8 22 57 44.9950000  0  4G 2G 6G13G15
  19557554.6714  -13147405.65448 -10020255.60964
  18916802.0154  -24998258.47847 -19375245.95263
  19460616.5154  -20264602.76747 -15453161.83162
  22204187.7964   -7378441.15245  -5495786.54261
 91  5  8 22 57 59.9950000  0  4G 2G 6G13G15
  19557789.2964  -13146167.79848 -10019291.05064
  18914666.6014  -25009477.40447 -19383987.96763
  19452390.4054  -20307826.26447 -15486842.41662
  22205455.7104   -7371752.02345  -5490574.23461
 91  5  8 22 58 14.9950000  0  4G 2G 6G13G15
  19558035.7734  -13144873.24247 -10018282.31064
  18912556.8434  -25020568.25347 -19392630.18163
  19444191.9994  -20350913.42547 -15520416.76761
  22206758.062    -7364920.440 5  -5485250.90321
 91  5  8 22 58 29.9950000  0  4G 2G 6G13G15
  19558289.5774  -13143542.52948 -10017245.39664
  18910465.6944  -25031551.34647 -19401188.43463
  19436015.7334  -20393884.62347 -15553900.75661
  22208077.663    -7357966.658 5  -5479832.35721
 91  5  8 22 58 44.9950000  0  4G 2G 6G13G15
  19558552.6324  -13142158.33347 -10016166.80264
  18908399.6874  -25042409.32947 -19409649.20363
  19427863.1714  -20436722.44247 -15587280.81461
  22209427.5544   -7350873.63645  -5474305.32861
 91  5  8 22 58 59.9950000  0  4G 2G 6G13G15
  19558824.8274  -13140724.00447 -10015049.14263
  18906357.6484  -25053145.22247 -19418014.82763
  19419735.7104  -20479429.97347 -15620559.34762
  22210804.515    -7343644.785 5  -5468672.45221
 91  5  8 22 59 14.9950000  0  4G 2G 6G13G15
  19559107.2574  -13139237.82847 -10013891.09063
  18904337.9834  -25063757.22247 -19426283.91763
  19411634.2414  -20522005.56147 -15653735.06961
  22212207.257    -7336278.826 5  -5462932.72421
 91  5  8 22 59 29.9950000  0  4G 2G 6G13G15
  19559397.4054  -13137715.89047 -10012705.16563
  18902338.8584  -25074261.42347 -19434469.00863
  19403554.5694  -20564465.03647 -15686820.31561
  22213632.5544   -7328791.94345  -5457098.80061
 91  5  8 22 59 44.9950000  0  4G 2G 6G13G15
  19559697.2104  -13136135.15647 -10011473.42763
  18900365.2804  -25084634.47447 -19442551.90163
  19395501.7734  -20606785.21547 -15719797.02062
  22215084.616    -7321161.002 5  -5451152.58521
 91  5  8 22 59 59.9950000  0  4G 2G 6G13G15
  19560006.1164  -13134516.97547 -10010212.50864
  18898412.3124  -25094897.60747 -19450549.14463
  19387470.7024  -20648987.54547 -15752681.89562
  22216558.983    -7313407.594 5  -5445110.96221
 91  5  8 23  0 14.9950000  0  4G 2G 6G13G15
  19560323.6014  -13132850.77447 -10008914.17263
  18896481.3904  -25105040.19347 -19458452.45563
  19379464.4834  -20691061.19047 -15785466.49561
  22218058.2334   -7305521.36645  -5438965.84361
 91  5  8 23  0 29.9950000  0  4G 2G 6G13G15
  19560649.4054  -13131139.13548 -10007580.43264
  18894573.8824  -25115064.47847 -19466263.58663
  19371481.8584  -20733008.59247 -15818152.72062
  22219583.4294   -7297504.95145  -5432719.27261
 91  5  8 23  0 44.9950000  0  4G 2G 6G13G15
  19560984.4374  -13129379.96048 -10006209.65164
  18892690.2654  -25124968.24147 -19473980.80063
  19363523.007   -20774827.700 7 -15850738.98622
  22221136.390    -7289356.407 5  -5426369.75821
 91  5  8 23  0 59.9950000  0  4G 2G 6G13G15
  19561331.3984  -13127554.19948 -10004786.97664
  18890831.4374  -25134732.30647 -19481589.15863
  19355593.8514  -20816499.13747 -15883210.17362
  22222716.2884   -7281057.02245  -5419902.68261
 91  5  8 23  1 14.9950000  0  4G 2G 6G13G15
  19561684.0774  -13125701.47348 -10003343.29564
  18888992.4214  -25144396.11247 -19489119.39763
  19347684.694   -20858062.328 7 -15915597.02221
  22224314.335    -7272646.438 5  -5413348.96221
 91  5  8 23  1 29.9950000  0  4G 2G 6G13G15
  19562044.8664  -13123804.61048 -10001865.22163
  18887175.9444  -25153942.53247 -19496558.16463
  19339799.0304  -20899500.36847 -15947886.34862
  22225942.8584   -7264107.92345  -5406695.56861
 91  5  8 23  1 44.9950000  0  4G 2G 6G13G15
  19562416.2964  -13121857.49348 -10000347.98564
  18885382.9604  -25163365.22047 -19503900.51763
  19331937.9134  -20940806.87947 -15980073.18362
  22227589.8044   -7255435.02445  -5399937.44461
 91  5  8 23  1 59.9950000  0  4G 2G 6G13G15
  19562794.3514  -13119862.54448  -9998793.48163
  18883613.0934  -25172666.30547 -19511148.11562
  19324102.4994  -20981984.08047 -16012159.25562
  22229267.9374   -7246630.50645  -5393076.77861
 91  5  8 23  2 14.9950000  0  4G 2G 6G13G15
  19563184.5304  -13117818.40148  -9997200.64463
  18881866.6084  -25181844.40247 -19518299.88063
  19316291.9294  -21023030.54447 -16044143.45662
  22230965.3434   -7237693.30345  -5386112.71961
 91  5  8 23  2 29.9950000  0  4G 2G 6G13G15
  19563584.5304  -13115717.30548  -9995563.43063
  18880145.0854  -25190891.42647 -19525349.51063
  19308507.5074  -21063938.32947 -16076019.59762
  22232694.038    -7228615.576 5  -5379039.15421
 91  5  8 23  2 44.9950000  0  4G 2G 6G13G15
  19563993.7414  -13113568.80548  -9993889.27764
  18878445.4764  -25199816.95647 -19532304.46663
  19300747.2414  -21104716.99747 -16107795.12462
  22234446.4134   -7219407.06845  -5371863.69761
 91  5  8 23  2 59.9950000  0  4G 2G 6G13G15
  19564410.6084  -13111372.23348  -9992177.65963
  18876771.5234  -25208620.20847 -19539164.14363
  19293012.554   -21145365.710 7 -16139469.39122
  22236223.655    -7210067.421 5  -5364586.03021
 91  5  8 23  3 14.9950000  0  4G 2G 6G13G15
  19564839.6714  -13109117.98647  -9990421.10963
  18875121.6324  -25217291.28447 -19545920.82763
  19285302.8434  -21185874.67547 -16171034.76362
  22238027.4684   -7200586.92945  -5357198.62561
 91  5  8 23  3 29.9950000  0  4G 2G 6G13G15
  19565278.3354  -13106810.59448  -9988623.14463
  18873495.6794  -25225834.73647 -19552578.06363
  19277620.5304  -21226248.45147 -16202494.78862
  22239856.5384   -7190970.64145  -5349705.40661
 91  5  8 23  3 44.9950000  0  4G 2G 6G13G15
  19565726.3824  -13104458.41748  -9986790.28663
  18871892.8274  -25234258.65947 -19559142.16163
  19269961.8824  -21266495.41147 -16233856.00362
  22241712.4214   -7181226.92945  -5342112.90861
 91  5  8 23  3 59.9950000  0  4G 2G 6G13G15
  19566184.8824  -13102047.90347  -9984911.96963
  18870315.2494  -25242549.45947 -19565602.52563
  19262329.616   -21306601.836 7 -16265107.70422
  22243591.874    -7171342.270 6  -5334410.55921
 91  5  8 23  4 14.9950000  0  4G 2G 6G13G15
  19566651.8984  -13099595.76647  -9983001.21963
  18868758.5774  -25250723.58747 -19571971.98263
  19254721.3664  -21346584.17947 -16296262.72162
  22245499.905    -7161333.810 6  -5326611.75121
 91  5  8 23  4 29.9940000  0  4G 2G 6G13G15
  19567129.2684  -13097086.73447  -9981046.13763
  18867228.7294  -25258765.15047 -19578238.13463
  19247139.6354  -21386424.48447 -16327307.05762
  22247429.0574   -7151187.20545  -5318705.30561
 91  5  8 23  4 44.9940000  0  4G 2G 6G13G15
  19567614.8384  -13094534.22947  -9979057.17563
  18865720.9944  -25266688.86147 -19584412.46063
  19239582.135   -21426141.769 7 -16358255.53922
  22249384.1974   -7140915.03545  -5310701.01861
 91  5  8 23  4 59.9940000  0  4G 2G 6G13G15
  19568110.3544  -13091929.82047  -9977027.77063
  18864238.3854  -25274485.23547 -19590487.55763
  19232049.775   -21465724.322 7 -16389099.03222
  22251364.6974   -7130509.06645  -5302592.46861
 91  5  8 23  5 14.9940000  0  4G 2G 6G13G15
  19568614.4004  -13089276.16847  -9974959.99863
  18862777.0334  -25282156.75447 -19596465.36963
  19224542.486   -21505174.613 7 -16419839.46422
  22253367.025    -7119972.389 5  -5294382.06421
 91  5  8 23  5 29.9940000  0  4G 2G 6G13G15
  19569131.2134  -13086568.97948  -9972850.50763
  18861341.5334  -25289699.18447 -19602342.59063
  19217060.807   -21544488.532 7 -16450473.63822
  22255397.6114   -7109300.95745  -5286066.66261
 91  5  8 23  5 44.9940000  0  4G 2G 6G13G15
  19569655.1584  -13083810.56347  -9970701.10363
  18859931.5104  -25297114.69247 -19608120.90863
  19209605.6584  -21583668.60147 -16481003.50462
  22257452.760    -7098497.116 5  -5277648.09321
 91  5  8 23  5 59.9940000  0  4G 2G 6G13G15
  19570191.2914  -13080998.53247  -9968509.91863
  18858544.8384  -25304400.85247 -19613798.44063
  19202174.385   -21622712.193 7 -16511427.03422
  22259537.7604   -7087558.69645  -5269124.66161
 91  5  8 23  6 14.9940000  0  4G 2G 6G13G15
  19570734.6194  -13078137.39147  -9966280.46463
  18857182.7294  -25311561.75647 -19619378.36963
  19194770.330   -21661623.376 7 -16541747.38722
  22261642.3694   -7076490.39145  -5260500.01361
 91  5  8 23  6 29.9940000  0  4G 2G 6G13G15
  19571287.3464  -13075236.16747  -9964019.77963
  18855841.5884  -25318606.59047 -19624867.85163
  19187389.877   -21700411.292 7 -16571971.68422
  22263770.533    -7065301.657 5  -5251781.53621
 91  5  8 23  6 44.9940000  0  4G 2G 6G13G15
  19571848.4164  -13072286.08547  -9961721.02663
  18854526.0024  -25325526.28747 -19630259.82363
  19180032.955   -21739067.204 7 -16602093.12122
  22265926.033    -7053983.786 5  -5242962.43121
 91  5  8 23  6 59.9940000  0  4G 2G 6G13G15
  19572420.736   -13069282.557 7  -9959380.62523
  18853232.5574  -25332316.17947 -19635550.64863
  19172703.096   -21777586.363 7 -16632108.00022
  22268105.2444   -7042532.14045  -5234039.08561
 91  5  8 23  7 14.9940000  0  4G 2G 6G13G15
  19573000.3384  -13066234.50847  -9957005.52663
  18851963.2834  -25338985.25447 -19640747.32962
  19165397.018   -21815977.766 7 -16662023.33222
  22270307.7524   -7030956.06345  -5225018.76361
 91  5  8 23  7 29.9940000  0  4G 2G 6G13G15
  19573589.5884  -13063137.55447  -9954592.32364
  18850719.8464  -25345528.86347 -19645846.24863
  19158116.963   -21854236.761 7 -16691835.48522
  22272532.0654   -7019251.44445  -5215898.30061
 91  5  8 23  7 44.9940000  0  4G 2G 6G13G15
  19574189.5884  -13059984.13447  -9952135.12463
  18849498.9864  -25351939.25547 -19650841.35862
  19150864.658   -21892355.722 7 -16721538.52322
  22274788.2214   -7007410.93345  -5206671.93161
 91  5  8 23  7 59.9940000  0  4G 2G 6G13G15
  19574797.3854  -13056791.61147  -9949647.44963
  18848300.6434  -25358233.82447 -19655746.21862
  19143633.221   -21930351.980 7 -16751145.94722
  22277063.361    -6995452.042 5  -5197353.30921
 91  5  8 23  8 14.9940000  0  4G 2G 6G13G15
  19575414.9714  -13053549.00947  -9947120.75863
  18847126.3694  -25364401.24947 -19660552.00763
  19136428.854   -21968214.271 7 -16780648.98922
  22279362.0024   -6983363.51645  -5187933.68561
 91  5  8 23  8 29.9940000  0  4G 2G 6G13G15
  19576042.1664  -13050250.36747  -9944550.39864
  18845978.5654  -25370435.56647 -19665254.07362
  19129249.869   -22005936.769 7 -16810043.09022
  22281685.6504   -6971139.69445  -5178408.63961
 91  5  8 23  8 44.9940000  0  4G 2G 6G13G15
  19576680.416   -13046896.770 7  -9941937.21724
  18844854.3384  -25376337.82247 -19669853.23762
  19122099.158   -22043520.487 7 -16839329.05822
  22284043.510    -6958782.205 5  -5168779.41921
 91  5  8 23  8 59.9940000  0  4G 2G 6G13G15
  19577329.5494  -13043491.36547  -9939283.66763
  18843755.9474  -25382110.98547 -19674351.81063
  19114971.565   -22080968.446 7 -16868509.24022
  22286417.760    -6946294.393 5  -5159048.65821
 91  5  8 23  9 14.9940000  0  4G 2G 6G13G15
  19577985.0884  -13040040.75847  -9936594.88964
  18842681.6114  -25387761.49147 -19678754.79862
  19107869.643   -22118287.258 7 -16897588.78922
  22288817.510    -6933683.039 5  -5149221.65421
 91  5  8 23  9 29.9940000  0  4G 2G 6G13G15
  19578652.307   -13036533.096 7  -9933861.65723
  18841632.0574  -25393277.60647 -19683053.07562
  19100796.744   -22155465.004 7 -16926558.41522
  22291244.3464   -6920936.64745  -5139289.41461
 91  5  8 23  9 44.9940000  0  4G 2G 6G13G15
  19579326.1904  -13032985.50047  -9931097.31064
  18840605.9864  -25398676.14647 -19687259.73162
  19093744.565   -22192518.661 7 -16955431.34222
  22293693.3934   -6908072.20145  -5129265.15961
 91  5  8 23  9 59.9940000  0  4G 2G 6G13G15
  19580012.5654  -13029387.05047  -9928293.33363
  18839601.4794  -25403946.29347 -19691366.33762
  19086720.455   -22229437.469 7 -16984199.20522
  22296163.4004   -6895079.05845  -5119140.63161
 91  5  8 23 10 14.9940000  0  4G 2G 6G13G15
  19580710.3774  -13025726.60647  -9925441.04963
  18838625.0334  -25409076.52747 -19695363.92862
  19079721.979   -22266210.206 7 -17012853.24122
  22298663.8774   -6881946.35245  -5108907.36061
 91  5  8 23 10 29.9940000  0  4G 2G 6G13G15
  19581414.8464  -13022011.85347  -9922546.44963
  18837674.7914  -25414074.61447 -19699258.54362
  19072749.869   -22302844.387 7 -17041399.31122
  22301186.0574   -6868681.96445  -5098571.47561
 91  5  8 23 10 44.9940000  0  4G 2G 6G13G15
  19582131.8614  -13018253.06047  -9919617.52763
  18836747.5804  -25418950.60447 -19703058.01862
  19065803.190   -22339350.260 7 -17069845.40322
  22303733.6504   -6855296.57645  -5088141.30061
 91  5  8 23 10 59.9940000  0  4G 2G 6G13G15
  19582857.9474  -13014434.38847  -9916641.94963
  18835844.0184  -25423688.71747 -19706750.05362
  19058884.541   -22375712.167 7 -17098179.30922
  22306308.8384   -6841774.51045  -5077604.63461
 91  5  8 23 11 14.9940000  0  4G 2G 6G13G15
  19583592.8154  -13010571.62747  -9913632.01463
  18834967.3154  -25428304.46247 -19710346.74563
  19051988.307   -22411945.614 7 -17126413.11922
  22308902.9634   -6828131.58445  -5066973.78461
 91  5  8 23 11 29.9940000  0  4G 2G 6G13G15
  19584336.4474  -13006660.33047  -9910584.26063
  18834112.9244  -25432793.27547 -19713844.52362
  19045118.893   -22448045.900 7 -17154543.17122
  22311519.9944   -6814363.51645  -5056245.42661
 91  5  8 23 11 44.9940000  0  4G 2G 6G13G15
  19585094.502   -13002682.233 7  -9907484.45223
  18833286.1824  -25437136.92747 -19717229.19462
  19038277.455   -22483994.889 7 -17182555.32422
  22314169.7294   -6800452.37245  -5045405.59261
 91  5  8 23 11 59.9940000  0  4G 2G 6G13G15
  19585859.1434  -12998654.80347  -9904346.20663
  18832485.3384  -25441352.87947 -19720514.35763
  19031462.393   -22519810.153 7 -17210463.28122
  22316842.8304   -6786416.21545  -5034468.33461
 91  5  8 23 12 14.9940000  0  4G 2G 6G13G15
  19586635.557   -12994580.978 7  -9901171.80523
  18831704.1744  -25445443.94947 -19723702.20762
  19024672.580   -22555494.340 7 -17238269.09622
  22319534.400    -6772257.995 5  -5023435.97521
 91  5  8 23 12 29.9940000  0  4G 2G 6G13G15
  19587421.8224  -12990453.49147  -9897955.59063
  18830950.1584  -25449402.64847 -19726786.91463
  19017907.932   -22591040.146 7 -17265967.08422
  22322255.8464   -6757970.48445  -5012302.84161
 91  5  8 23 12 44.9940000  0  4G 2G 6G13G15
  19588217.619   -12986268.452 7  -9894694.53523
  18830225.0414  -25453225.01247 -19729765.38363
  19011171.0724  -22626443.65347 -17293554.19362
  22324995.3774   -6743550.01945  -5001066.12461
 91  5  8 23 12 59.9940000  0  4G 2G 6G13G15
  19589024.7444  -12982027.58747  -9891389.97663
  18829523.0414  -25456912.73847 -19732638.94562
  19004460.018   -22661706.771 7 -17321031.89822
  22327763.5574   -6728998.53445  -4989727.30261
 91  5  8 23 13 14.9940000  0  4G 2G 6G13G15
  19589841.150   -12977729.185 7  -9888040.58623
  18828847.6664  -25460463.99947 -19735406.16362
  18997777.033   -22696827.655 7 -17348398.78122
  22330561.908    -6714314.583 5  -4978285.26721
 91  5  8 23 13 29.9940000  0  4G 2G 6G13G15
  19590670.1824  -12973376.82147  -9884649.14263
  18828196.9004  -25463882.38447 -19738069.85062
  18991119.533   -22731809.981 7 -17375657.69222
  22333377.5654   -6699502.20045  -4966743.15861
 91  5  8 23 13 44.9940000  0  4G 2G 6G13G15
  19591507.354   -12968977.007 7  -9881220.73023
  18827571.0574  -25467174.33247 -19740635.01062
  18984488.869   -22766660.060 7 -17402813.55722
  22336225.5804   -6684567.88545  -4955106.02261
 91  5  8 23 13 59.9940000  0  4G 2G 6G13G15
  19592356.7524  -12964513.66447  -9877742.81063
  18826972.5414  -25470323.33947 -19743088.78862
  18977885.041   -22801361.672 7 -17429853.72622
  22339090.8074   -6669495.69345  -4943361.47361
 91  5  8 23 14 14.9940000  0  4G 2G 6G13G15
  19593215.6354  -12959998.77347  -9874224.72063
  18826397.4554  -25473341.65747 -19745440.73362
  18971306.994   -22835926.756 7 -17456787.51822
  22341980.3224   -6654297.91445  -4931519.05461
 91  5  8 23 14 29.9940000  0  4G 2G 6G13G15
  19594087.0024  -12955424.30247  -9870660.20963
  18825848.5654  -25476221.03847 -19747684.41562
  18964756.3934  -22870347.30547 -17483608.68562
  22344898.4404   -6638966.96945  -4919572.86761
 91  5  8 23 14 44.9940000  0  4G 2G 6G13G15
  19594967.4794  -12950802.72347  -9867058.99263
  18825322.9244  -25478973.85647 -19749829.47862
  18958232.854   -22904635.787 7 -17510326.94422
  22347841.8304   -6623515.40745  -4907532.68261
 91  5  8 23 14 59.9940000  0  4G 2G 6G13G15
  19595856.8544  -12946124.64047  -9863413.74263
  18824825.5254  -25481590.61947 -19751868.52162
  18951734.369   -22938782.889 7 -17536935.02922
  22350804.5884   -6607934.12245  -4895391.41261
 91  5  8 23 15 14.9940000  0  4G 2G 6G13G15
  19596759.0494  -12941377.11347  -9859714.37863
  18824358.6044  -25484058.29147 -19753791.39263
  18945266.315   -22972775.442 7 -17563422.68922
  22353798.838    -6592210.288 5  -4883139.05921
 91  5  8 23 15 29.9940000  0  4G 2G 6G13G15
  19597673.229   -12936578.979 7  -9855975.58623
  18823911.5884  -25486395.73347 -19755612.78362
  18938823.096   -23006632.432 7 -17589804.71622
  22356812.315    -6576363.121 5  -4870790.62021
 91  5  8 23 15 44.9940000  0  4G 2G 6G13G15
  19598599.4714  -12931708.60447  -9852180.49863
  18823496.3854  -25488581.20547 -19757315.75962
  18932410.408   -23040332.233 7 -17616064.25622
  22359855.8154   -6560371.03445  -4858329.24461
 91  5  8 23 15 59.9940000  0  4G 2G 6G13G15
  19599535.3544  -12926790.75447  -9848348.41863
  18823104.4794  -25490639.52347 -19758919.65062
  18926022.6274  -23073899.60347 -17642220.61162
  22362922.986    -6544259.254 5  -4845774.59821
 91  5  8 23 16 14.9940000  0  4G 2G 6G13G15
  19600481.650   -12921816.019 7  -9844472.01223
  18822739.9404  -25492560.95847 -19760416.88163
  18919661.0104  -23107325.13947 -17668266.44762
  22366011.924    -6528018.616 5  -4833119.56421
 91  5  8 23 16 29.9940000  0  4G 2G 6G13G15
  19601438.3544  -12916795.19947  -9840559.69563
  18822396.0334  -25494356.39947 -19761815.93263
  18913326.182   -23140619.384 7 -17694209.97222
  22369126.9864   -6511660.01945  -4820372.58761
 91  5  8 23 16 44.9940000  0  4G 2G 6G13G15
  19602402.8934  -12911720.81247  -9836605.63863
  18822082.3934  -25496018.22647 -19763110.86963
  18907016.3074  -23173774.86547 -17720045.37162
  22372262.8694   -6495176.13145  -4807528.01161
 91  5  8 23 16 59.9940000  0  4G 2G 6G13G15
  19603380.0654  -12906588.78447  -9832606.66763
  18821790.1744  -25497542.39947 -19764298.54663
  18900734.2134  -23206787.51447 -17745769.47362
  22375421.8544   -6478563.32045  -4794582.98161
 91  5  8 23 17 14.9940000  0  4G 2G 6G13G15
  19604369.0964  -12901395.21547  -9828559.74063
  18821527.6584  -25498924.78447 -19765375.73963
  18894480.6354  -23239653.47547 -17771379.27762
  22378609.713    -6461817.524 5  -4781534.29721
 91  5  8 23 17 29.9940000  0  4G 2G 6G13G15
  19605370.0414  -12896128.19347  -9824455.57663
  18821295.9794  -25500153.49647 -19766333.18863
  18888256.1904  -23272360.94347 -17796865.57462
  22381824.8614   -6444927.50845  -4768373.22861
 91  5  8 23 17 44.9940000  0  3G 2G 6G13
  19606381.5884  -12890805.02847  -9820307.66163
  18821087.861   -25501245.886 7 -19767184.40923
  18882059.080   -23304927.366 7 -17822241.96922
 91  5  8 23 17 59.9940000  0  3G 2G 6G13
  19607405.8774  -12885429.27047  -9816118.76763
  18820904.8464  -25502205.30847 -19767932.02363
  18875887.9864  -23337355.87147 -17847510.89362
 91  5  8 23 18 14.9940000  0  3G 2G 6G13
  19608438.0884  -12880001.82147  -9811889.59263
  18820747.4324  -25503032.71047 -19768576.76163
  18869742.5654  -23369647.63747 -17872673.26862
 91  5  8 23 18 29.9940000  0  3G 2G 6G13
  19609482.0184  -12874517.57047  -9807616.15763
  18820615.6664  -25503722.94947 -19769114.62163
  18863624.049   -23401797.450 7 -17897725.03022
 91  5  8 23 18 44.9940000  0  3G 2G 6G13
  19610537.6824  -12868970.80747  -9803294.01463
  18820510.7054  -25504269.88947 -19769540.81862
  18857534.9864  -23433799.62047 -17922661.74962
 91  5  8 23 18 59.9940000  0  3G 2G 6G13
  19611603.7444  -12863364.03247  -9798925.10663
  18820434.5024  -25504676.23747 -19769857.46162
  18851472.6584  -23465656.42447 -17947485.19362
 91  5  8 23 19 14.9940000  0  3G 2G 6G13
  19612679.6274  -12857717.64747  -9794525.33763
  18820381.6664  -25504962.47147 -19770080.51563
  18845434.3384  -23497388.49147 -17972211.44262
 91  5  8 23 19 29.9940000  0  3G 2G 6G13
  19613766.0724  -12852013.88047  -9790080.85463
  18820351.3464  -25505110.67947
  18839423.0494  -23528978.07747 -17996826.66662
 91  5  8 23 19 44.9940000  0  3G 2G 6G13
  19614861.3934  -12846256.19747  -9785594.35663
  18820348.3074  -25505124.27447
  18833438.604   -23560428.526 7 -18021333.47022
 91  5  8 23 19 59.9940000  0  3G 2G 6G13
  19615966.4794  -12840439.27847  -9781061.70563
  18820372.4714  -25504997.95547
  18827481.3614  -23591734.67247 -18045727.83362
 91  5  8 23 20 14.9940000  0  3G 2G 6G13
  19617087.6044  -12834555.95247  -9776477.30363
  18820425.0574  -25504724.33647
  18821551.8074  -23622889.56347 -18070004.33862
 91  5  8 23 20 29.9940000  0  3G 2G 6G13
  19618218.307   -12828614.760 7  -9771847.81423
  18820501.9714  -25504311.86547 -19769573.59763
  18815650.8854  -23653901.47147 -18094169.42062
 91  5  8 23 20 44.9940000  0  3G 2G 6G13
  19619359.0334  -12822613.69447  -9767171.67263
  18820609.9794  -25503758.59247 -19769142.48863
  18809777.5884  -23684768.20247 -18118221.38362
 91  5  8 23 20 59.9940000  0  3G 2G 6G13
  19620514.4324  -12816549.29647  -9762446.17763
  18820740.4084  -25503061.05447 -19768598.96363
  18803931.1974  -23715486.49547 -18142157.67762
 91  5  8 23 21 14.9940000  0  3G 2G 6G13
  19621677.5884  -12810431.90247  -9757679.38863
  18820900.440   -25502229.608 7 -19767951.09423
  18798112.7134  -23746066.74847 -18165986.40862
 91  5  8 23 21 29.9940000  0  3G 2G 6G13
  19622852.150   -12804258.067 7  -9752868.61923
  18821085.2294  -25501260.67347 -19767196.09063
  18792319.5334  -23776505.43447 -18189704.82462
 91  5  8 23 21 44.9940000  0  3G 2G 6G13
  19624039.229   -12798026.547 7  -9748012.90223
  18821293.8694  -25500152.97647 -19766332.95963
  18786554.7684  -23806801.24447 -18213311.91762
 91  5  8 23 21 59.9940000  0  3G 2G 6G13
  19625233.221   -12791750.904 7  -9743122.80623
  18821529.9554  -25498920.06247 -19765372.25963
  18780814.9084  -23836967.95147 -18236818.40262
 91  5  8 23 22 14.9940000  0  3G 2G 6G13
  19626436.486   -12785412.893 7  -9738184.10923
  18821793.6744  -25497543.57847 -19764299.68763
  18775100.963   -23866987.195 7 -18260209.98322
 91  5  8 23 22 29.9940000  0  3G 2G 6G13
  19627654.541   -12779015.759 7  -9733199.34323
  18822080.479   -25496026.689 7 -19763117.70923
  18769416.932   -23896862.237 7 -18283489.20022
 91  5  8 23 22 44.9940000  0  3G 2G 6G13
  19628884.065   -12772564.366 7  -9728172.30323
  18822394.2294  -25494374.19347 -19761830.05863
  18763758.4324  -23926597.83447 -18306659.75362
 91  5  8 23 22 59.9940000  0  3G 2G 6G13
  19630122.846   -12766057.236 7  -9723101.82823
  18822733.424   -25492584.864 7 -19760435.79223
  18758126.8694  -23956192.80947 -18329720.74062
 91  5  8 23 23 14.9940000  0  3G 2G 6G13
  19631373.619   -12759488.070 7  -9717983.01523
  18823101.0724  -25490652.30447 -19758929.91263
  18752522.1434  -23985640.93947 -18352667.29862
 91  5  8 23 23 29.9940000  0  3G 2G 6G13
  19632633.971   -12752859.376 7  -9712817.81223
  18823495.5964  -25488578.76847 -19757314.18163
  18746945.7214  -24014944.58047 -18375501.27062
 91  5  8 23 23 44.9940000  0  3G 2G 6G13
  19633904.979   -12746178.333 7  -9707611.81923
  18823917.369   -25486371.531 7 -19755594.27023
  18741396.0964  -24044111.03047 -18398228.33962
 91  5  8 23 23 59.9940000  0  3G 2G 6G13
  19635184.861   -12739445.794 7  -9702365.70023
  18824363.963   -25484031.446 7 -19753770.84023
  18735872.1354  -24073141.18947 -18420849.21062
 91  5  8 23 24 14.9940000  0  3G 2G 6G13
  19636478.221   -12732650.313 7  -9697070.54123
  18824837.2524  -25481546.97947 -19751834.90163
  18730376.0494  -24102023.69347 -18443355.01962
 91  5  8 23 24 29.9940000  0  3G 2G 6G13
  19637784.447   -12725798.433 7  -9691731.43323
  18825332.5414  -25478924.65447 -19749791.54462
  18724906.3464  -24130765.02747 -18465750.83162
 91  5  8 23 24 44.9940000  0  3G 2G 6G13
  19639098.260   -12718891.840 7  -9686349.69023
  18825858.908   -25476166.053 7 -19747642.00222
  18719463.2524  -24159366.93447 -18488037.99762
 91  5  8 23 24 59.9940000  0  3G 2G 6G13
  19640422.143   -12711931.509 7  -9680926.07423
  18826412.010   -25473272.422 7 -19745387.23322
  18714046.9944  -24187830.56147 -18510217.41662
 91  5  8 23 25 14.9940000  0  3G 2G 6G13
  19641759.377   -12704911.457 7  -9675455.92323
  18826985.6044  -25470237.44947 -19743022.33062
  18708657.9714  -24216149.76047 -18532284.28862
 91  5  8 23 25 29.9940000  0  3G 2G 6G13
  19643103.674   -12697833.300 7  -9669940.49423
  18827593.682   -25467062.792 7 -19740548.58723
  18703296.1904  -24244326.01147 -18554239.77662
 91  5  8 23 25 44.9940000  0  3G 2G 6G13
  19644462.588   -12690703.988 7  -9664385.20823
  18828220.1504  -25463755.59747 -19737971.56163
  18697961.0574  -24272366.42147 -18576089.41262
 91  5  8 23 25 59.9940000  0  3G 2G 6G13
  19645827.697   -12683519.375 7  -9658786.82623
  18828878.354   -25460311.466 7 -19735287.83922
  18692651.5184  -24300267.09647 -18597830.16562
 91  5  8 23 26 14.9940000  0  3G 2G 6G13
  19647205.643   -12676291.095 7  -9653154.41823
  18829554.846   -25456742.018 7 -19732506.46222
  18687365.4794  -24328039.60947 -18619471.04862
 91  5  8 23 26 29.9940000  0  3G 2G 6G13
  19648591.893   -12669002.730 7  -9647475.19523
  18830261.2914  -25453030.87047 -19729614.67063
  18682109.0574  -24355667.49547 -18640999.24062
 91  5  8 23 26 44.9940000  0  3G 2G 6G13
  19649987.815   -12661657.684 7  -9641751.80523
  18830995.6974  -25449181.40847 -19726615.10262
  18676878.6274  -24383154.31947 -18662417.50862
 91  5  8 23 26 59.9940000  0  3G 2G 6G13
  19651394.502   -12654269.981 7  -9635995.16623
  18831751.471   -25445207.728 7 -19723518.73923
  18671670.8224  -24410514.17847 -18683736.84662
 91  5  8 23 27 14.9940000  0  3G 2G 6G13
  19652811.361   -12646828.099 7  -9630196.31723
  18832531.1974  -25441098.20347 -19720316.52763
  18666491.9164  -24437735.43347 -18704948.18162
 91  5  8 23 27 29.9940000  0  3G 2G 6G13
  19654239.861   -12639331.867 7  -9624355.12223
  18833338.4244  -25436852.82947 -19717008.45363
  18661337.6274  -24464818.15647 -18726051.56862
 91  5  8 23 27 44.9940000  0  3G 2G 6G13
  19655673.869   -12631794.885 7  -9618482.16823
  18834169.1824  -25432484.90847 -19713604.89063
  18656208.2134  -24491775.81047 -18747057.50262
 91  5  8 23 27 59.9940000  0  3G 2G 6G13
  19657117.525   -12624204.340 7  -9612567.47823
  18835025.6584  -25427981.76247 -19710095.95763
  18651104.5334  -24518595.77247 -18767956.13862
 91  5  8 23 28 14.9940000  0  3G 2G 6G13
  19658570.744   -12616572.201 7  -9606620.37523
  18835906.6904  -25423355.41947 -19706491.02563
  18646024.4554  -24545290.15247 -18788756.92562
 91  5  8 23 28 29.9940000  0  3G 2G 6G13
  19660032.111   -12608888.880 7  -9600633.38923
  18836813.744   -25418596.176 7 -19702782.53723
  18640969.3934  -24571849.29347 -18809452.32662
 91  5  8 23 28 44.9940000  0  3G 2G 6G13
  19661502.815   -12601155.366 7  -9594607.28823
  18837745.2604  -25413705.12447 -19698971.34063
  18635941.5494  -24598274.20247 -18830043.12962
 91  5  8 23 28 59.9940000  0  3G 2G 6G13
  19662982.502   -12593369.825 7  -9588540.64723
  18838703.658   -25408680.355 7 -19695055.95022
  18630940.0494  -24624562.86347 -18850527.76862
 91  5  8 23 29 14.9940000  0  3G 2G 6G13
  19664473.791   -12585543.960 7  -9582442.59023
  18839681.440   -25403533.540 7 -19691045.45923
  18625960.7294  -24650727.15947 -18870915.50062
 91  5  8 23 29 29.9940000  0  3G 2G 6G13
  19665974.783   -12577660.843 7  -9576299.91823
  18840684.510   -25398247.976 7 -19686926.85222
  18621007.8614  -24676750.62547 -18891193.49562
 91  5  8 23 29 44.9940000  0  3G 2G 6G13
  19667483.1354  -12569718.87147  -9570111.38463
  18841721.9324  -25392821.96447 -19682698.80663
  18616084.2754  -24702631.60547 -18911360.45562
 91  5  8 23 29 59.9940000  0  3G 2G 6G13
  19669008.502   -12561717.096 7  -9563876.25123
  18842777.854   -25387254.590 7 -19678360.60623
  18611185.5414  -24728369.33447 -18931415.79762
 91  5  8 23 30 14.9940000  0  3G 2G 6G13
  19670538.643   -12553669.479 7  -9557605.39423
  18843862.822   -25381559.656 7 -19673923.00822
  18606312.5964  -24753977.72147 -18951370.35162
 91  5  8 23 30 29.9940000  0  3G 2G 6G13
  19672082.025   -12545564.454 7  -9551289.80423
  18844972.338   -25375725.636 7 -19669377.03522
  18601467.0494  -24779445.07947 -18971215.01162
 91  5  8 23 30 44.9940000  0  3G 2G 6G13
  19673632.463   -12537409.187 7  -9544935.06423
  18846110.768   -25369759.800 7 -19664728.35022
  18596644.9864  -24804778.77447 -18990955.51862
 91  5  8 23 30 59.9940000  0  3G 2G 6G13
  19675198.158   -12529194.494 7  -9538534.02023
  18847268.338   -25363652.942 7 -19659969.77622
  18591851.8464  -24829969.60847 -19010584.71262
 91  5  8 23 31 14.9940000  0  3G 2G 6G13
  19676766.260   -12520945.393 7  -9532106.16223
  18848454.143   -25357430.055 7 -19655120.79123
  18587080.9554  -24855042.58647 -19030122.06462
 91  5  8 23 31 29.9940000  0  3G 2G 6G13
  19678345.002   -12512642.728 7  -9525636.57023
  18849666.486   -25351072.217 7 -19650166.64722
  18582335.2214  -24879978.87547 -19049552.90262
 91  5  8 23 31 44.9940000  0  3G 2G 6G13
  19679934.533   -12504291.150 7  -9519128.86323
  18850898.018   -25344583.932 7 -19645110.86122
  18577614.7604  -24904783.15647 -19068880.88262
 91  5  8 23 31 59.9940000  0  3G 2G 6G13
  19681536.635   -12495884.566 7  -9512578.29223
  18852157.447   -25337958.977 7 -19639948.57423
  18572921.5254  -24929449.24447 -19088101.17762
 91  5  8 23 32 14.9940000  0  3G 2G 6G13
  19683145.275   -12487429.268 7  -9505989.76523
  18853443.408   -25331203.767 7 -19634684.79123
  18568251.8464  -24953983.51147 -19107218.75162
 91  5  8 23 32 29.9940000  0  3G 2G 6G13
  19684765.854   -12478915.817 7  -9499355.92123
  18854754.979   -25324308.967 7 -19629312.24023
  18563610.5254  -24978376.60447 -19126226.33262
 91  5  8 23 32 44.9940000  0  3G 2G 6G13
  19686397.3544  -12470342.99147  -9492675.80663
  18856093.229   -25317273.259 7 -19623829.88823
  18558995.2214  -25002627.39847 -19145123.02062
 91  5  8 23 32 59.9940000  0  3G 2G 6G13
  19688039.729   -12461713.241 7  -9485951.34123
  18857459.229   -25310099.115 7 -19618239.66423
  18554406.9634  -25026738.48847 -19163910.85162
 91  5  8 23 33 14.9940000  0  3G 2G 6G13
  19689690.315   -12453032.743 7  -9479187.33323
  18858850.533   -25302792.758 7 -19612546.41823
  18549844.6114  -25050716.22847 -19182594.77662
 91  5  8 23 33 29.9940000  0  3G 2G 6G13
  19691351.744   -12444293.317 7  -9472377.41023
  18860269.838   -25295346.048 7 -19606743.80523
  18545308.7994  -25074552.39547 -19201168.38262
 91  5  8 23 33 44.9940000  0  3G 2G 6G13
  19693025.791   -12435494.826 7  -9465521.45923
  18861715.307   -25287758.904 7 -19600831.76123
  18540799.6744  -25098246.99547 -19219631.68062
 91  5  8 23 33 59.9940000  0  3G 2G 6G13
  19694709.635   -12426649.540 7  -9458629.04823
  18863181.072   -25280043.569 7 -19594819.83023
  18536315.611   -25121812.287 7 -19237994.21722
 91  5  8 23 34 14.9940000  0  3G 2G 6G13
  19696405.854   -12417748.227 7  -9451692.98023
  18864672.604   -25272190.896 7 -19588700.88323
  18531858.354   -25145239.172 7 -19256248.90722
 91  5  8 23 34 29.9940000  0  3G 2G 6G13
  19698104.861   -12408802.540 7  -9444722.33423
  18866195.541   -25264212.566 7 -19582484.02523
  18527423.525   -25168539.638 7 -19274405.08922
 91  5  8 23 34 44.9940000  0  3G 2G 6G13
  19699820.666   -12399799.153 7  -9437706.72223
  18867736.877   -25256095.409 7 -19576158.98623
  18523015.940   -25191700.504 7 -19292452.49522
 91  5  8 23 34 59.9940000  0  3G 2G 6G13
  19701544.713   -12390728.791 7  -9430638.93023
  18869311.346   -25247830.084 7 -19569718.49323
  18518637.5724  -25214712.18547 -19310383.64662
 91  5  8 23 35 14.9940000  0  3G 2G 6G13
  19703282.463   -12381611.888 7  -9423534.86723
  18870906.736   -25239436.954 7 -19563178.41323
  18514281.604   -25237595.285 7 -19328214.60822
 91  5  8 23 35 29.9940000  0  3G 2G 6G13
  19705020.822   -12372458.130 7  -9416402.08623
  18872529.830   -25230925.862 7 -19556546.41223
  18509950.1114  -25260359.60647 -19345953.01462
 91  5  8 23 35 44.9940000  0  3G 2G 6G13
  19706775.307   -12363256.505 7  -9409232.00823
  18874169.705   -25222285.768 7 -19549813.90322
  18505643.0804  -25282994.36047 -19363590.46162
 91  5  8 23 35 59.9940000  0  3G 2G 6G13
  19708536.174   -12353999.235 7  -9402018.57123
  18875840.580   -25213508.862 7 -19542974.76922
  18501362.5184  -25305491.84847 -19381120.94562
 91  5  8 23 36 14.9940000  0  3G 2G 6G13
  19710306.572   -12344681.028 7  -9394757.65323
  18877541.908   -25204590.234 7 -19536025.20722
  18497107.791   -25327847.008 7 -19398540.52322
 91  5  8 23 36 29.9940000  0  3G 2G 6G13
  19712091.666   -12335312.040 7  -9387457.16323
  18879261.760   -25195539.860 7 -19528972.99122
  18492879.010   -25350069.962 7 -19415857.09022
 91  5  8 23 36 44.9940000  0  3G 2G 6G13
  19713881.900   -12325901.980 7  -9380124.66723
  18881004.682   -25186367.350 7 -19521825.60423
  18488673.822   -25372170.392 7 -19433078.18122
 91  5  8 23 36 59.9940000  0  3G 2G 6G13
  19715684.111   -12316440.528 7  -9372752.13022
  18882774.963   -25177062.683 7 -19514575.23923
  18484493.072   -25394138.080 8 -19450195.83322
 91  5  8 23 37 14.9940000  0  3G 2G 6G13
  19717495.5254  -12306918.29747
  18884572.932   -25167616.313 7
  18480340.1584  -25415963.81147 -19467202.87062
 91  5  8 23 37 29.9940000  0  3G 2G 6G13
  19719316.5574  -12297348.48947
  18886394.104   -25158041.759 7
  18476211.635   -25437661.102 7 -19484109.82522
 91  5  8 23 37 44.9940000  0  3G 2G 6G13
  19721147.666   -12287725.276 7  -9350376.67522
  18888242.166   -25148333.150 7 -19492188.65123
  18472107.736   -25459223.939 8 -19500912.01522
 91  5  8 23 37 59.9940000  0  3G 2G 6G13
  19722987.307   -12278056.281 7  -9342842.41123
  18890115.361   -25138497.827 7 -19484524.78923
  18468028.4404  -25480660.23947 -19517615.59662
 91  5  8 23 38 14.9940000  0  3G 2G 6G13
  19724835.588   -12268335.707 7  -9335267.96223
  18892013.557   -25128530.328 7 -19476757.93023
  18463974.9324  -25501964.33847 -19534216.17062
 91  5  8 23 38 29.9940000  0  3G 2G 6G13
  19726694.432   -12258566.136 7  -9327655.33123
  18893936.494   -25118433.242 7 -19468890.09423
  18459945.275   -25523138.774 7 -19550715.70322
 91  5  8 23 38 44.9930000  0  3G 2G 6G13
  19728566.482   -12248736.767 7  -9319996.10623
  18895882.044   -25108195.625 7 -19460912.75423
  18455943.153   -25544170.730 7 -19567104.21422
 91  5  8 23 38 59.9930000  0  3G 2G 6G13
  19730448.427   -12238849.744 7  -9312291.95523
  18897854.607   -25097819.931 7 -19452827.81923
  18451966.380   -25565066.892 7 -19583386.91122
 91  5  8 23 39 14.9930000  0  3G 2G 6G13
  19732335.388   -12228923.394 7  -9304557.15923
  18899856.700   -25087324.516 7 -19444649.60023
  18448013.294   -25585843.281 7 -19599576.28522
 91  5  8 23 39 29.9930000  0  3G 2G 6G13
  19734237.919   -12218940.545 7  -9296778.33923
  18901876.028   -25076692.157 7 -19436364.66623
  18444085.3964  -25606483.14747 -19615659.27062
 91  5  8 23 39 44.9930000  0  3G 2G 6G13
  19736144.341   -12208908.266 7  -9288961.00123
  18903927.263   -25065930.187 7 -19427978.74123
  18440181.739   -25626993.772 7 -19631641.55222
 91  5  8 23 39 59.9930000  0  3G 2G 6G13
  19738067.060   -12198820.480 7  -9281100.40922
  18905998.458   -25055032.469 7 -19419487.03623
  18436305.411   -25647369.005 7 -19647518.33222
 91  5  8 23 40 14.9930000  0  3G 2G 6G13
  19739994.482   -12188671.458 7  -9273192.10123
  18908101.130   -25043993.160 7 -19410885.00223
  18432454.403   -25667603.315 7 -19663285.30222
 91  5  8 23 40 29.9930000  0  3G 2G 6G13
  19741940.403   -12178467.016 7  -9265240.60922
  18910225.567   -25032818.447 7 -19402177.45523
  18428629.521   -25687702.717 8 -19678947.15122
 91  5  8 23 40 44.9930000  0  3G 2G 6G13
  19743890.411   -12168217.037 7  -9257253.63723
  18912375.794   -25021518.244 7 -19393372.12923
  18424829.419   -25707677.084 8 -19694511.56622
 91  5  8 23 40 59.9930000  0  3G 2G 6G13
  19745846.778   -12157921.084 7  -9249230.84122
  18914553.224   -25010092.115 7 -19384468.67823
  18421051.247   -25727526.012 8 -19709978.24022
 91  5  8 23 41 14.9930000  0  3G 2G 6G13
  19747816.888   -12147576.525 7  -9241170.17222
  18916750.599   -24998537.508 7 -19375465.11023
  18417297.724   -25747247.135 8 -19725345.32622
 91  5  8 23 41 29.9930000  0  3G 2G 6G13
  19749794.435   -12137182.731 7  -9233071.13322
  18918972.130   -24986853.782 7 -19366360.93623
  18413570.419   -25766839.792 8 -19740612.30522
 91  5  8 23 41 44.9930000  0  4G 2G 6G13G12
  19751787.185   -12126719.194 7  -9224917.75123
  18921223.333   -24975020.512 7 -19357140.23023
  18409870.044   -25786283.858 8 -19755763.50322
  22232026.0444     -61111.39645
 91  5  8 23 41 59.9930000  0  4G 2G 6G13G12
  19753789.739   -12116194.118 7  -9216716.41823
  18923502.497   -24963045.857 7 -19347809.35623
  18406197.216   -25805587.418 8 -19770805.21722
  22220400.6224    -122202.75645
 91  5  8 23 42 14.9930000  0  4G 2G 6G13G12
  19755804.302   -12105610.085 7  -9208469.14223
  18925807.325   -24950932.648 7 -19338370.52023
  18402549.669   -25824753.415 8 -19785739.73522
  22208781.0604    -183277.02945
 91  5  8 23 42 29.9930000  0  4G 2G 6G13G12
  19757826.278   -12094981.015 7  -9200186.77423
  18928136.021   -24938695.015 7 -19328834.72723
  18398925.896   -25843795.845 8 -19800577.97422
  22197157.6614    -244347.82745
 91  5  8 23 42 44.9930000  0  4G 2G 6G13G12
  19759861.560   -12084287.430 7  -9191854.13522
  18930493.130   -24926313.360 7 -19319186.71222
  18395329.388   -25862695.479 8 -19815304.93622
  22185539.2004    -305395.34545
 91  5  8 23 42 59.9930000  0  4G 2G 6G13G12
  19761906.888   -12073529.445 7  -9183471.30822
  18932877.3494  -24913787.93147 -19309426.66362
  18391760.099   -25881452.627 8 -19829920.87422
  22173927.372     -366419.385 5        -0.48531
 91  5  8 23 43 14.9930000  0  4G 2G 6G13G12
  19763960.7244  -12062730.76847  -9175056.78162
  18935284.614   -24901142.575 7 -19299573.16322
  18388213.997   -25900090.908 8 -19844444.18822
  22162313.5444    -427443.41345    -47551.58761
 91  5  8 23 43 29.9930000  0  4G 2G 6G13G12
  19766026.411   -12051882.913 7  -9166603.92322
  18937715.1534  -24888368.80647 -19289619.60762
  18384690.864   -25918601.941 8 -19858868.35222
  22150704.357     -488458.732 5    -95095.92021
 91  5  8 23 43 44.9930000  0  4G 2G 6G13G12
  19768103.974   -12040974.350 7  -9158103.77022
  18940170.0214  -24875455.29147 -19279557.15463
  18381194.716   -25936974.360 8 -19873184.50622
  22139098.1534    -549453.60645   -142624.35561
 91  5  8 23 43 59.9930000  0  4G 2G 6G13G12
  19770187.997   -12030008.897 7  -9149559.28522
  18942656.528   -24862405.872 7 -19269388.80323
  18377723.802   -25955212.076 8 -19887395.69222
  22127493.849     -610431.621 5   -190139.59121
 91  5  8 23 44 14.9930000  0  4G 2G 6G13G12
  19772283.8804  -12019006.14547  -9140985.73962
  18945159.9894  -24849240.10547 -19259129.79262
  18374275.333   -25973334.774 8 -19901517.25522
  22115890.2324    -671412.02245   -237656.70761
 91  5  8 23 44 29.9930000  0  4G 2G 6G13G12
  19774386.974   -12007945.321 7  -9132366.93922
  18947691.817   -24835937.358 7 -19248764.04023
  18370852.505   -25991321.805 8 -19915533.10522
  22104288.810     -732373.746 5   -285159.27421
 91  5  8 23 44 44.9930000  0  4G 2G 6G13G12
  19776501.427   -11996837.650 7  -9123711.63722
  18950246.685   -24822509.002 7 -19238300.41723
  18367452.888   -26009184.723 7 -19929452.24622
  22092688.3024    -793327.83545   -332655.90261
 91  5  8 23 44 59.9930000  0  4G 2G 6G13G12
  19778625.7324  -11985668.05347  -9115008.08462
  18952829.357   -24808940.017 7 -19227727.20522
  18364080.638   -26026908.692 8 -19943263.11122
  22081094.427     -854258.884 5   -380134.56221
 91  5  8 23 45 14.9930000  0  4G 2G 6G13G12
  19780763.4894  -11974450.99047  -9106267.54062
  18955434.857   -24795244.721 7 -19217055.57323
  18360731.099   -26044508.063 7 -19956976.89122
  22069501.575     -915180.905 5   -427606.19521
 91  5  8 23 45 29.9930000  0  4G 2G 6G13G12
  19782909.8334  -11963153.15247  -9097464.06462
  18958072.372   -24781390.255 7 -19206259.91323
  18357412.841   -26061949.802 7 -19970567.84022
  22057914.653     -976060.689 5   -475044.91421
 91  5  8 23 45 44.9930000  0  4G 2G 6G13G12
  19785071.396   -11951801.467 7  -9088618.62022
  18960734.5134  -24767403.49847 -19195361.16963
  18354117.935   -26079261.060 7 -19984057.11322
  22046333.7714   -1036924.90845   -522471.49561
 91  5  8 23 45 59.9930000  0  4G 2G 6G13G12
  19787241.185   -11940404.736 7  -9079738.07622
  18963418.364   -24753293.476 7 -19184366.37523
  18350846.708   -26096450.782 8 -19997451.68122
  22034751.0214   -1097782.06445   -569892.57961
 91  5  8 23 46 14.9930000  0  4G 2G 6G13G12
  19789419.4584  -11928959.64847  -9070819.85562
  18966126.2864  -24739056.70747 -19173272.81963
  18347599.357   -26113515.507 8 -20010748.85422
  22023174.567    -1158628.382 5   -617305.22921
 91  5  8 23 46 29.9930000  0  4G 2G 6G13G12
  19791610.1694  -11917442.80947  -9061845.72562
  18968866.0524  -24724669.89047 -19162062.34263
  18344380.763   -26130432.026 8 -20023930.53922
  22011604.2864   -1219440.25945   -664691.03061
 91  5  8 23 46 44.9930000  0  4G 2G 6G13G12
  19793812.0054  -11905863.90847  -9052823.23762
  18971631.208   -24710143.049 7 -19150742.75223
  18341187.919   -26147210.483 8 -20037004.64322
  22000035.403    -1280227.277 5   -712057.47921
 91  5  8 23 46 59.9930000  0  4G 2G 6G13G12
  19796024.396   -11894242.111 7  -9043767.31822
  18974418.2944  -24695495.50047 -19139329.10363
  18338018.146   -26163870.184 8 -20049986.21122
  21988468.700    -1341008.383 5   -759419.29721
 91  5  8 23 47 14.9930000  0  4G 2G 6G13G12
  19798247.2944  -11882560.89747  -9034665.10062
  18977231.3884  -24680710.79447 -19127808.58362
  18334873.122   -26180394.710 8 -20062862.44722
  21976906.169    -1401766.787 5   -806763.44521
 91  5  8 23 47 29.9930000  0  4G 2G 6G13G12
  19800481.4744  -11870823.14847  -9025518.83362
  18980070.9824  -24665791.74447 -19116183.38063
  18331754.083   -26196787.022 8 -20075635.65722
  21965347.544    -1462505.197 5   -854091.98721
 91  5  8 23 47 44.9930000  0  4G 2G 6G13G12
  19802726.4274  -11859025.60247  -9016325.96662
  18982933.911   -24650735.187 7 -19104451.02522
  18328660.021   -26213044.144 8 -20088303.52622
  21953793.036    -1523219.804 5   -901402.01121
 91  5  8 23 47 59.9930000  0  4G 2G 6G13G12
  19804980.4894  -11847185.39047  -9007099.86162
  18985821.0604  -24635558.65547 -19092625.18562
  18325588.716   -26229183.399 8 -20100879.55222
  21942241.4194   -1583927.85045   -948706.90461
 91  5  8 23 48 14.9930000  0  4G 2G 6G13G12
  19807243.9034  -11835292.81347  -8997832.94362
  18988734.7324  -24620252.24347 -19080698.13962
  18322542.341   -26245195.137 8 -20113356.21722
  21930692.2394   -1644619.13345   -995998.74561
 91  5  8 23 48 29.9930000  0  4G 2G 6G13G12
  19809515.4114  -11823342.63747  -8988521.14962
  18991675.5754  -24604811.06147 -19068666.07962
  18319520.294   -26261074.566 8 -20125729.78322
  21919146.552    -1705288.244 5  -1043273.30121
 91  5  8 23 48 44.9930000  0  4G 2G 6G13G12
  19811801.4114  -11811342.80347  -8979170.66262
  18994636.1074  -24589243.01147 -19056535.16563
  18316521.825   -26276829.453 8 -20138006.30122
  21907603.833    -1765942.618 5  -1090536.37521
 91  5  8 23 48 59.9930000  0  4G 2G 6G13G12
  19814096.1614  -11799277.00647  -8969768.77662
  18997625.161   -24573531.773 7 -19044292.66922
  18313550.778   -26292443.581 8 -20150173.13922
  21896067.786    -1826565.917 5  -1137775.23521
 91  5  8 23 49 14.9930000  0  4G 2G 6G13G12
  19816400.333   -11787162.360 7  -8960328.81722
  19000641.2784  -24557694.89247 -19031952.27562
  18310602.872   -26307934.603 8 -20162244.05322
  21884533.849    -1887175.059 5  -1185003.06721
 91  5  8 23 49 29.9930000  0  4G 2G 6G13G12
  19818720.6384  -11774981.58247  -8950837.34362
  19003679.0524  -24541715.00247 -19019500.44462
  18307681.966   -26323285.187 7 -20174205.52922
  21873008.825    -1947752.474 5  -1232206.18721
 91  5  8 23 49 44.9930000  0  4G 2G 6G13G12
  19821048.9584  -11762739.05847  -8941297.74062
  19006750.0994  -24525596.51747 -19006940.62162
  18304785.817   -26338499.637 7 -20186060.92722
  21861486.4894   -2008302.02045  -1279387.57161
 91  5  8 23 49 59.9930000  0  4G 2G 6G13G12
  19823391.7864  -11750432.35747  -8931708.13362
  19009840.9894  -24509337.30247 -18994271.13662
  18301918.114   -26353575.925 8 -20197808.66722
  21849968.4744   -2068821.17945  -1326545.28761
 91  5  8 23 50 14.9930000  0  4G 2G 6G13G12
  19825747.5674  -11738050.91747  -8922060.28862
  19012965.8334  -24492926.82247 -18981483.78362
  18299076.607   -26368503.669 7 -20209440.66122
  21838460.3964   -2129299.07445  -1373670.86161
 91  5  8 23 50 29.9930000  0  4G 2G 6G13G12
  19828112.9744  -11725613.80247  -8912369.06462
  19016114.2554  -24476384.36947 -18968593.59162
  18296260.622   -26383302.154 7 -20220971.92822
  21826957.4744   -2189754.71445  -1420779.08061
 91  5  8 23 50 44.9930000  0  4G 2G 6G13G12
  19830491.7944  -11713124.17247  -8902636.91562
  19019284.3104  -24459713.14247 -18955603.05862
  18293469.302   -26397974.593 7 -20232404.97822
  21815457.763    -2250190.802 5  -1467872.06321
 91  5  8 23 50 59.9930000  0  4G 2G 6G13G12
  19832882.5214  -11700563.98547  -8892849.78962
  19022484.7864  -24442895.07247 -18942498.10362
  18290703.724   -26412503.149 8 -20243725.91522
  21803963.9034   -2310589.00845  -1514935.52961
 91  5  8 23 51 14.9930000  0  4G 2G 6G13G12
  19835281.5134  -11687948.22047  -8883019.36062
  19025712.2474  -24425945.51747 -18929290.69062
  18287964.583   -26426903.131 8 -20254946.66422
  21792473.380    -2370964.170 5  -1561981.03221
 91  5  8 23 51 29.9930000  0  4G 2G 6G13G12
  19837691.9354  -11675278.26147  -8873146.69662
  19028962.0994  -24408865.82747 -18915981.87362
  18285247.763   -26441176.167 8 -20266068.48922
  21780988.177    -2431317.286 5  -1609009.36121
 91  5  8 23 51 44.9930000  0  4G 2G 6G13G12
  19840114.0524  -11662553.23947  -8863231.13262
  19032238.0214  -24391655.17147 -18902571.00762
  18282555.786   -26455321.328 8 -20277090.67822
  21769508.4424   -2491647.11946  -1656019.56061
 91  5  8 23 51 59.9930000  0  4G 2G 6G13G12
  19842547.7164  -11649759.14147  -8853261.73862
  19035541.0054  -24374299.84547 -18889047.40862
  18279891.185   -26469324.826 8 -20288002.47322
  21758035.817    -2551939.572 6  -1703000.61221
 91  5  8 23 52 14.9930000  0  4G 2G 6G13G12
  19844995.2244  -11636892.83747  -8843236.07762
  19038870.3724  -24356796.78147 -18875408.69462
  18277253.880   -26483183.787 8 -20298801.63922
  21746569.8334   -2612191.22346  -1749949.87061
 91  5  8 23 52 29.9930000  0  4G 2G 6G13G12
  19847456.2784  -11623964.59447  -8833162.16062
  19042228.0994  -24339156.51647 -18861663.05662
  18274641.528   -26496908.835 8 -20309496.45922
  21735108.5754   -2672412.07746  -1796875.14361
 91  5  8 23 52 44.9930000  0  4G 2G 6G13G12
  19849928.8334  -11610978.64047  -8823043.26562
  19045609.1384  -24321383.29547 -18847813.83463
  18272054.833   -26510504.044 8 -20320090.10922
  21723656.075    -2732606.125 6  -1843779.51721
 91  5  8 23 52 59.9930000  0  4G 2G 6G13G12
  19852412.9974  -11597925.25847  -8812871.82962
  19049018.0054  -24303467.42547 -18833853.45263
  18269494.513   -26523959.992 8 -20330575.25122
  21712209.263    -2792763.185 6  -1890655.07121
 91  5  8 23 53 14.9930000  0  4G 2G 6G13G12
  19854904.6304  -11584835.99447  -8802672.43862
  19052448.5054  -24285440.77847 -18819806.74763
  18266953.942   -26537308.462 8 -20340976.63522
  21700760.2784   -2852914.71946  -1937526.33961
 91  5  8 23 53 29.9930000  0  4G 2G 6G13G12
  19857407.6854  -11571675.13547  -8792417.25562
  19055907.0524  -24267267.63347 -18805645.88963
  18264441.833   -26550513.900 8 -20351266.57122
  21689323.872    -2913024.611 6  -1984365.15021
 91  5  8 23 53 44.9930000  0  4G 2G 6G13G12
  19859923.5284  -11558449.89247  -8782111.90762
  19059393.5754  -24248955.39147 -18791376.64063
  18261953.630   -26563583.940 8 -20361450.99722
  21677890.317    -2973099.912 6  -2031176.98621
 91  5  8 23 53 59.9930000  0  4G 2G 6G13G12
  19862454.6224  -11545161.80847  -8771757.58462
  19062902.0604  -24230505.87147 -18777000.42363
  18259492.357   -26576520.063 8 -20371531.07622
  21666464.278    -3033141.874 6  -2077962.86421
 91  5  8 23 54 14.9930000  0  4G 2G 6G13G12
  19864994.0754  -11531810.16447  -8761353.74462
  19066440.6224  -24211918.16047 -18762516.53163
  18257056.482   -26589321.645 8 -20381506.31522
  21655044.9894   -3093149.34646  -2124721.86761
 91  5  8 23 54 29.9930000  0  4G 2G 6G13G12
  19867549.5054  -11518385.57447  -8750893.05762
  19070005.5364  -24193183.31147 -18747917.98462
  18254647.177   -26601979.709 8 -20391369.71922
  21643634.677    -3153112.689 6  -2171446.47921
 91  5  8 23 54 44.9930000  0  4G 2G 6G13G12
  19870112.5214  -11504914.24847  -8740395.96162
  19073592.1384  -24174327.43947 -18733225.13363
  18252261.474   -26614520.411 8 -20401141.67822
  21632227.2474   -3213057.81246  -2218156.91361
 91  5  8 23 54 59.9930000  0  4G 2G 6G13G12
  19872687.6224  -11491386.94947  -8729855.23962
  19077204.7164  -24155341.51647 -18718430.93963
  18249898.614   -26626934.693 8 -20410815.12522
  21620825.357    -3272975.303 6  -2264845.79421
 91  5  8 23 55 14.9930000  0  4G 2G 6G13G12
  19875274.5834  -11477782.00747  -8719254.02162
  19080847.9504  -24136204.16347 -18703518.74363
  18247564.482   -26639200.920 8 -20420373.21022
  21609433.817    -3332843.107 6  -2311495.96521
 91  5  8 23 55 29.9930000  0  4G 2G 6G13G12
  19877874.4034  -11464133.12247  -8708618.56562
  19084510.8644  -24116948.96747 -18688514.73563
  18245252.521   -26651353.458 8 -20429842.70522
  21598044.3174   -3392694.70846  -2358133.52261
 91  5  8 23 55 44.9930000  0  4G 2G 6G13G12
  19880483.6694  -11450411.36447  -8697926.32062
  19088204.3024  -24097547.31147 -18673396.59863
  18242966.575   -26663363.363 8 -20439201.05522
  21586664.333    -3452500.907 6  -2404735.67321
 91  5  8 23 55 59.9930000  0  4G 2G 6G13G12
  19883102.8174  -11436649.63047  -8687202.92662
  19091918.5914  -24078032.20647 -18658190.06162
  18240702.021   -26675263.700 8 -20448474.02722
  21575284.146    -3512294.254 6  -2451327.84421
 91  5  8 23 56 14.9930000  0  4G 2G 6G13G12
  19885735.5364  -11422814.04147  -8676421.98662
  19095658.8334  -24058370.00947 -18642868.90462
  18238464.747   -26687020.823 8 -20457635.40622
  21563917.224    -3572040.763 6  -2497883.49521
 91  5  8 23 56 29.9930000  0  4G 2G 6G13G12
  19888378.0604  -11408932.77147  -8665605.44862
  19099422.4974  -24038588.99947 -18627455.16462
  18236249.411   -26698663.183 8 -20466707.35922
  21552549.896    -3631768.207 6  -2544424.30321
 91  5  8 23 56 44.9930000  0  4G 2G 6G13G12
  19891028.3414  -11395003.14347  -8654751.22962
  19103210.1534  -24018686.52147 -18611946.77862
  18234056.0134  -26710188.21248 -20475687.88662
  21541187.7394   -3691473.67646  -2590947.98061
 91  5  8 23 56 59.9930000  0  4G 2G 6G13G12
  19893694.0214  -11380997.00647  -8643837.39262
  19107027.8574  -23998634.63347 -18596321.97062
  18231890.138   -26721567.833 8 -20484555.11222
  21529836.403    -3751128.604 6  -2637432.28821
 91  5  8 23 57 14.9930000  0  4G 2G 6G13G12
  19896369.3174  -11366933.78347  -8632879.07662
  19110867.6534  -23978452.78747 -18580595.88962
  18229749.286   -26732821.745 8 -20493324.37822
  21518490.294    -3810752.023 6  -2683892.03121
 91  5  8 23 57 29.9930000  0  4G 2G 6G13G12
  19899055.6924  -11352821.28347  -8621882.36162
  19114730.7084  -23958149.25747 -18564774.99862
  18227629.8024  -26743957.87248 -20502001.87062
  21507148.9114   -3870351.72946  -2730333.30161
 91  5  8 23 57 44.9930000  0  4G 2G 6G13G12
  19901753.0134  -11338647.70747  -8610838.04862
  19118618.8644  -23937712.26747 -18548850.10562
  18225535.435   -26754964.827 8 -20510578.70522
  21495813.763    -3929915.580 6  -2776746.63621
 91  5  8 23 57 59.9930000  0  4G 2G 6G13G12
  19904460.3804  -11324420.91547  -8599752.27362
  19122531.9824  -23917149.72047 -18532827.37962
  18223463.771   -26765850.535 8 -20519061.06322
  21484483.567    -3989451.087 6  -2823137.87921
 91  5  8 23 58 14.9930000  0  4G 2G 6G13G12
  19907180.4114  -11310124.04647  -8588611.89262
  19126473.3174  -23896445.11547 -18516693.95862
  18221418.739   -26776598.478 8 -20527436.07022
  21473163.4744   -4048941.13546  -2869493.70361
 91  5  8 23 58 29.9930000  0  4G 2G 6G13G12
  19909912.2394  -11295766.79747  -8577424.46462
  19130438.5994  -23875608.17047 -18500457.41562
  18219397.7714  -26787218.55248 -20535711.44062
  21461850.060    -4108395.064 6  -2915821.38321
 91  5  8 23 58 44.9930000  0  4G 2G 6G13G12
  19912654.3964  -11281355.51347  -8566194.92662
  19134427.5994  -23854645.35647 -18484122.79162
  18217399.896   -26797717.181 8 -20543892.17922
  21450541.989    -4167818.970 6  -2962125.66321
 91  5  8 23 58 59.9930000  0  4G 2G 6G13G12
  19915409.2944  -11266881.63147  -8554916.61362
  19138440.2864  -23833548.44747 -18467683.68462
  18215426.888   -26808086.180 8 -20551971.90622
  21439241.200    -4227204.167 6  -3008399.80321
 91  5  8 23 59 14.9930000  0  4G 2G 6G13G12
  19918174.6854  -11252346.32047  -8543590.43862
  19142481.8724  -23812318.82647 -18451141.16262
  18213477.3574  -26818327.06048 -20559951.80362
  21427947.466    -4286551.652 6  -3054644.53121
 91  5  8 23 59 29.9930000  0  4G 2G 6G13G12
  19920950.4664  -11237757.71247  -8532222.72662
  19146545.5364  -23790964.57747 -18434501.52862
  18211552.0134  -26828448.05248 -20567838.28162
  21416661.411    -4345869.052 6  -3100865.82721
 91  5  8 23 59 44.9930000  0  4G 2G 6G13G12
  19923738.4504  -11223108.06747  -8520807.45362
  19150633.0134  -23769478.19747 -18417758.93462
  18209650.497   -26838441.296 8 -20575625.21022
  21405379.091    -4405148.260 6  -3147057.36421
 91  5  8 23 59 59.9930000  0  4G 2G 6G13G12
  19926538.2324  -11208394.28147  -8509342.20162
  19154748.5754  -23747856.55947 -18400910.94362
  18207773.255   -26848303.999 8 -20583310.41922
  21394106.7944   -4464385.84146  -3193216.45761
 91  5  9  0  0 14.9930000  0  4G 2G 6G13G12
  19929351.5054  -11193615.11447  -8497826.00762
  19158887.2324  -23726098.73647 -18383956.83062
  18205921.8804  -26858035.19748 -20590893.16262
  21382843.411    -4523580.238 6  -3239341.91421
 91  5  9  0  0 29.9930000  0  4G 2G 6G13G12
  19932174.7164  -11178779.96147  -8486266.18362
  19163053.8174  -23704214.37247 -18366904.12162
  18204092.7394  -26867644.42848 -20598380.86362
  21371584.8414   -4582740.61546  -3285440.84261
 91  5  9  0  0 44.9930000  0  4G 2G 6G13G12
  19935012.3574  -11163866.35747  -8474645.23162
  19167245.575   -23682180.990 7 -18349735.29522
  18202292.513   -26877109.473 8 -20605756.20922
  21360337.8574   -4641844.25846  -3331495.57061
 91  5  9  0  0 59.9930000  0  4G 2G 6G13G12
  19937862.7944  -11148890.02647  -8462975.40362
  19171462.950   -23660014.555 7 -18332462.78922
  18200514.599   -26886446.267 8 -20613031.62122
  21349099.0754   -4700906.62346  -3377518.13261
 91  5  9  0  1 14.9930000  0  4G 2G 6G13G12
  19940726.0754  -11133841.18847  -8451249.07362
  19175709.5214  -23637705.51447 -18315079.16062
  18198765.661   -26895645.351 8 -20620199.72322
  21337869.591    -4759917.580 6  -3423500.64421
 91  5  9  0  1 29.9930000  0  4G 2G 6G13G12
  19943598.7394  -11118740.43347  -8439482.28462
  19179978.880   -23615274.730 7 -18297600.66722
  18197035.880   -26904727.651 8 -20627276.82722
  21326645.6614   -4818897.62146  -3469459.05961
 91  5  9  0  1 44.9930000  0  4G 2G 6G13G12
  19946485.8574  -11103572.60847  -8427663.23862
  19184271.7084  -23592707.03647 -18280015.49462
  18195332.567   -26913678.101 8 -20634251.19222
  21315431.013    -4877831.075 6  -3515381.17921
 91  5  9  0  1 59.9930000  0  4G 2G 6G13G12
  19949384.4894  -11088337.98447  -8415792.13662
  19188593.4114  -23570002.96047 -18262324.04562
  18193655.1074  -26922497.11248 -20641123.13662
  21304225.833    -4936717.963 6  -3561267.01621
 91  5  9  0  2 14.9930000  0  4G 2G 6G13G12
  19952297.247   -11073036.592 7  -8403869.01322
  19192938.380   -23547162.753 7 -18244526.52622
  18192001.3644  -26931185.01248 -20647892.91862
  21293027.4194   -4995558.00646  -3607116.33361
 91  5  9  0  2 29.9930000  0  4G 2G 6G13G12
  19955224.4424  -11057652.03947  -8391881.08662
  19197313.450   -23524170.114 6 -18226610.23022
  18190376.5054  -26939725.62848 -20654547.93662
  21281841.708    -5054334.454 6  -3652916.10621
 91  5  9  0  2 44.9930000  0  4G 2G 6G13G12
  19958162.0524  -11042220.40947  -8379856.47262
  19201711.1384  -23501061.36346 -18208603.44862
  18188772.4664  -26948155.28148 -20661116.48962
  21270663.2474   -5113083.19046  -3698694.28461
 91  5  9  0  2 59.9930000  0  4G 2G 6G13G12
  19961109.5214  -11026730.48247  -8367786.43862
  19206132.974   -23477825.498 6 -18190497.62222
  18187191.8884  -26956463.04748 -20667590.06362
  21259491.278    -5171792.832 6  -3744442.00621
 91  5  9  0  3 14.9930000  0  4G 2G 6G13G12
  19964071.7324  -11011164.52247  -8355657.16062
  19210582.294   -23454444.865 7 -18172278.99422
  18185637.005   -26964631.309 8 -20673954.93122
  21248329.458    -5230445.238 6  -3790145.11621
 91  5  9  0  3 29.9930000  0  4G 2G 6G13G12
  19967044.2244  -10995538.89747  -8343481.38762
  19215057.1464  -23430936.04946 -18153960.47862
  18184105.3174  -26972676.51448 -20680223.91162
  21237177.036    -5289056.432 6  -3835816.13121
 91  5  9  0  3 44.9930000  0  4G 2G 6G13G12
  19970030.5674  -10979840.88647  -8331249.20762
  19219556.3644  -23407286.51846 -18135532.31062
  18182601.0914  -26980586.02448 -20686387.15462
  21226033.825    -5347613.334 6  -3881444.82721
 91  5  9  0  3 59.9930000  0  4G 2G 6G13G12
  19973030.521   -10964076.773 7  -8318965.52622
  19224083.200   -23383502.431 6 -18116999.29722
  18181120.3804  -26988366.25548 -20692449.66462
  21214899.802    -5406121.629 6  -3927035.64821
 91  5  9  0  4 14.9930000  0  4G 2G 6G13G12
  19976040.7164  -10948258.85547  -8306639.90962
  19228631.9894  -23359596.42346 -18098371.28462
  18179663.0914  -26996029.91348 -20698421.33362
  21203772.3334   -5464593.53246  -3972598.11561
 91  5  9  0  4 29.9930000  0  4G 2G 6G13G12
  19979063.5284  -10932376.98947  -8294264.46962
  19233205.0994  -23335558.74446 -18079640.66462
  18178227.3174  -27003567.26348 -20704294.58562
  21192654.286    -5523018.847 6  -4018124.28621
 91  5  9  0  4 44.9930000  0  4G 2G 6G13G12
  19982099.7714  -10916421.84147  -8281831.92762
  19237808.0054  -23311380.20346 -18060800.28562
  18176819.1074  -27010969.34048 -20710062.43062
  21181547.294    -5581387.848 6  -4063606.57021
 91  5  9  0  4 59.9930000  0  4G 2G 6G13G12
  19985147.607   -10900405.280 7  -8269351.53222
  19242432.911   -23287072.905 6 -18041859.57422
  18175433.4034  -27018247.96448 -20715734.07862
  21170448.958    -5639711.956 6  -4109053.87621
 91  5  9  0  5 14.9930000  0  4G 2G 6G13G12
  19988206.810   -10884330.182 7  -8256825.52922
  19247082.0674  -23262639.72946 -18022820.77662
  18174071.7004  -27025406.09248 -20721311.83062
  21159357.333    -5697993.679 6  -4154468.15521
 91  5  9  0  5 29.9930000  0  4G 2G 6G13G12
  19991276.9354  -10868197.96047  -8244255.00062
  19251755.505   -23238082.335 6 -18003685.18722
  18172732.4744  -27032445.65748 -20726797.20362
  21148274.528    -5756234.190 6  -4199850.32121
 91  5  9  0  5 44.9930000  0  4G 2G 6G13G12
  19994359.1694  -10851998.01647  -8231631.70262
  19256454.0914  -23213390.48346 -17984444.82462
  18171417.7164  -27039356.49448 -20732182.26462
  21137202.341    -5814422.681 6  -4245191.95621
 91  5  9  0  5 59.9930000  0  4G 2G 6G13G12
  19997455.8334  -10835724.15147  -8218950.80962
  19261179.560   -23188557.934 6 -17965094.83022
  18170127.6074  -27046132.19548 -20737462.02262
  21126142.435    -5872552.502 6  -4290487.86921
 91  5  9  0  6 14.9930000  0  4G 2G 6G13G12
  20000564.2864  -10819391.05847  -8206223.76562
  19265928.6774  -23163599.79646 -17945646.96962
  18168861.0524  -27052788.09648 -20742648.43162
  21115088.669    -5930638.218 6  -4335749.41621
 91  5  9  0  6 29.9930000  0  4G 2G 6G13G12
  20003685.2944  -10802992.89247  -8193446.01662
  19270703.2084  -23138510.40246 -17926096.83262
  18167618.7634  -27059318.61848 -20747737.14262
  21104044.396    -5988673.785 6  -4380971.89021
 91  5  9  0  6 44.9930000  0  4G 2G 6G13G12
  20006817.5524  -10786527.49247  -8180615.86462
  19275502.646   -23113287.702 6 -17906442.82522
  18166400.2474  -27065721.53548 -20752726.41962
  21093010.255    -6046656.515 6  -4426153.18321
 91  5  9  0  6 59.9930000  0  4G 2G 6G13G12
  20009961.810   -10770005.806 7  -8167741.87922
  19280326.1924  -23087942.73046 -17886693.53262
  18165204.3884  -27072007.89748 -20757624.87462
  21081985.021    -6104596.995 6  -4471301.56321
 91  5  9  0  7 14.9930000  0  4G 2G 6G13G12
  20013118.0134  -10753421.71847  -8154819.25462
  19285172.614   -23062469.690 6 -17866844.45822
  18164030.9824  -27078171.80448 -20762427.91162
  21070967.161    -6162488.885 6  -4516412.08521
 91  5  9  0  7 29.9930000  0  4G 2G 6G13G12
  20016287.9744  -10736763.87347  -8141839.15862
  19290047.5364  -23036857.36646 -17846886.83862
  18162883.4894  -27084202.20348 -20767126.91462
  21059963.1074   -6220320.53846  -4561475.67261
 91  5  9  0  7 44.9930000  0  4G 2G 6G13G12
  20019469.8494  -10720038.09746  -8128806.12662
  19294946.6774  -23011111.69746 -17826825.32362
  18161760.1464  -27090105.13448 -20771726.59362
  21048969.4504   -6278097.33846  -4606496.50561
 91  5  9  0  7 59.9930000  0  4G 2G 6G13G12
  20022666.646   -10703245.679 7  -8115721.16222
  19299871.1924  -22985234.31846 -17806661.17362
  18160660.357   -27095882.207 8 -20776228.19822
  21037981.872    -6335820.272 6  -4651475.36321
 91  5  9  0  8 14.9930000  0  4G 2G 6G13G12
  20025872.9584  -10686389.67047  -8102586.65162
  19304819.278   -22959228.264 6 -17786396.75522
  18159583.8174  -27101536.59348 -20780634.20562
  21027008.8964   -6393492.12846  -4696414.43261
 91  5  9  0  8 29.9930000  0  4G 2G 6G13G12
  20029089.9114  -10669479.36047  -8089409.82762
  19309791.825   -22933103.326 6 -17766039.70622
  18158530.3494  -27107078.04748 -20784952.21262
  21016041.911    -6451121.933 6  -4741320.72421
 91  5  9  0  8 44.9930000  0  4G 2G 6G13G12
  20032320.3334  -10652505.53047  -8076183.51062
  19314787.599   -22906850.610 6 -17745583.08422
  18157498.2164  -27112497.57548 -20789175.20962
  21005087.489    -6508700.353 6  -4786186.98921
 91  5  9  0  8 59.9930000  0  4G 2G 6G13G12
  20035564.7244  -10635464.53547  -8062904.84962
  19319807.5524  -22880466.39246 -17725023.99462
  18156491.341   -27117791.730 8 -20793300.51822
  20994139.317    -6566223.310 6  -4831010.01721
 91  5  9  0  9 14.9930000  0  4G 2G 6G13G12
  20038820.3024  -10618356.11547  -8049573.65462
  19324853.942   -22853950.507 6 -17704362.31122
  18155507.5914  -27122960.19648 -20797327.88562
  20983202.1924   -6623689.97146  -4875789.19361
 91  5  9  0  9 29.9930000  0  4G 2G 6G13G12
  20042087.864   -10601185.074 7  -8036193.66622
  19329921.747   -22827308.163 6 -17683602.08622
  18154546.3574  -27128008.18748 -20801261.37862
  20972277.755    -6681105.085 6  -4920528.19221
 91  5  9  0  9 44.9930000  0  4G 2G 6G13G12
  20045369.0284  -10583938.90847  -8022755.13362
  19335020.099   -22800526.959 6 -17662733.65622
  18153611.8644  -27132923.23448 -20805091.27662
  20961363.169    -6738455.622 6  -4965216.87721
 91  5  9  0  9 59.9930000  0  4G 2G 6G13G12
  20048662.435   -10566635.225 7  -8009271.79022
  19340139.677   -22773624.649 6 -17641770.86222
  18152697.4824  -27137723.49847 -20808831.73362
  20950460.552    -6795758.886 6  -5009868.72721
 91  5  9  0 10 14.9930000  0  4G 2G 6G13G12
  20051966.0444  -10549278.16047  -7995746.83762
  19345280.333   -22746605.715 6 -17620717.19022
  18151805.7084  -27142413.49248 -20812486.26862
  20939563.060    -6853018.772 6  -5054486.77021
 91  5  9  0 10 29.9930000  0  4G 2G 6G13G12
  20055279.6224  -10531862.53347  -7982176.26462
  19350445.161   -22719465.351 6 -17599568.90022
  18150934.9974  -27146988.14047 -20816050.91662
  20928677.739    -6910229.863 6  -5099066.79721
 91  5  9  0 10 44.9930000  0  4G 2G 6G13G12
  20058607.1074  -10514379.01347  -7968552.77962
  19355635.153   -22692194.133 6 -17578318.64322
  18150088.0604  -27151438.28547 -20819518.55462
  20917800.614    -6967382.407 6  -5143601.19421
 91  5  9  0 10 59.9930000  0  4G 2G 6G13G12
  20061946.4194  -10496833.09847  -7954880.67562
  19360848.091   -22664798.068 6 -17556971.10622
  18149263.6074  -27155769.71148 -20822893.68262
  20906935.505    -7024481.679 6  -5188094.08521
 91  5  9  0 11 14.9930000  0  4G 2G 6G13G12
  20065298.208   -10479218.149 7  -7941154.79022
  19366087.411   -22637270.585 6 -17535521.16422
  18148463.3644  -27159976.14347 -20826171.41862
  20896081.6304   -7081520.56246  -5232539.91161
 91  5  9  0 11 29.9930000  0  4G 2G 6G13G12
  20068662.4114  -10461535.51147  -7927376.15462
  19371349.575   -22609613.032 6 -17513969.87122
  18147687.0054  -27164058.90947 -20829352.78762
  20885238.708    -7138500.074 6  -5276939.48821
 91  5  9  0 11 44.9930000  0  4G 2G 6G13G12
  20072039.9424  -10443783.03147  -7913543.09062
  19376638.591   -22581823.597 6 -17492315.81222
  18146933.2394  -27168016.08647 -20832436.29962
  20874407.396    -7195417.651 6  -5321290.79521
 91  5  9  0 11 59.9930000  0  4G 2G 6G13G12
  20075431.560   -10425965.990 7  -7899659.72322
  19381949.919   -22553907.882 6 -17470563.35322
  18146203.4114  -27171853.23647 -20835426.28062
  20863586.607    -7252278.437 6  -5365597.84621
 91  5  9  0 12 14.9930000  0  4G 2G 6G13G12
  20078832.1774  -10408087.99847  -7885728.85861
  19387287.232   -22525869.637 6 -17448715.41622
  18145495.8104  -27175574.40447 -20838325.88162
  20852775.333    -7309085.888 6  -5409863.33821
 91  5  9  0 12 29.9930000  0  4G 2G 6G13G12
  20082245.2944  -10390157.11147  -7871756.77562
  19392643.810   -22497717.291 6 -17426778.57122
  18144808.4114  -27179187.84448 -20841141.54062
  20841975.005    -7365847.606 6  -5454093.19221
 91  5  9  0 12 44.9930000  0  4G 2G 6G13G12
  20085668.560   -10372161.792 7  -7857734.48521
  19398023.622   -22469439.460 6 -17404743.94522
  18144143.2634  -27182682.08348 -20843864.32162
  20831185.114    -7422551.548 6  -5498278.02821
 91  5  9  0 12 59.9920000  0  4G 2G 6G13G12
  20089105.0704  -10354100.51046  -7843660.79562
  19403429.758   -22441035.260 6 -17382610.85222
  18143500.8054  -27186054.47248 -20846492.14862
  20820406.500    -7479190.844 6  -5542412.49121
 91  5  9  0 13 14.9920000  0  4G 2G 6G13G12
  20092556.258   -10335973.240 6  -7829535.69822
  19408858.180   -22412503.571 6 -17360378.41422
  18142881.2274  -27189307.98348 -20849027.34662
  20809638.3834   -7535775.10746  -5586504.06661
 91  5  9  0 13 29.9920000  0  4G 2G 6G13G12
  20096017.9454  -10317783.05946  -7815361.56961
  19414311.430   -22383848.677 6 -17338049.97722
  18142285.0784  -27192444.55648 -20851471.42762
  20798881.6564   -7592302.30946  -5630551.17861
 91  5  9  0 13 44.9920000  0  4G 2G 6G13G12
  20099492.3674  -10299527.56746  -7801136.54961
  19419788.336   -22355068.277 6 -17315623.73722
  18141710.1494  -27195462.21348 -20853822.84462
  20788138.0084   -7648769.79146  -5674551.76261
 91  5  9  0 13 59.9920000  0  4G 2G 6G13G12
  20102977.320   -10281209.609 6  -7786862.85921
  19425288.313   -22326165.396 6 -17293102.06222
  18141158.5784  -27198364.09748 -20856084.04962
  20777402.375    -7705179.909 6  -5718507.64121
 91  5  9  0 14 14.9920000  0  4G 2G 6G13G12
  20106472.774   -10262839.952 6  -7772548.88621
  19430809.508   -22297150.835 6 -17270493.36522
  18140627.2344  -27201161.06048 -20858263.49362
  20766678.172    -7761542.957 6  -5762426.85021
 91  5  9  0 14 29.9920000  0  4G 2G 6G13G12
  20109980.0554  -10244414.85546  -7758191.70461
  19436354.641   -22268021.328 6 -17247795.09622
  18140115.0474  -27203849.66348 -20860358.50362
  20755960.891    -7817855.147 6  -5806306.43321
 91  5  9  0 14 44.9920000  0  4G 2G 6G13G12
  20113496.984   -10225925.464 6  -7743784.43021
  19441919.656   -22238768.298 6 -17225000.57822
  18139624.8594  -27206421.17748 -20862362.27762
  20745255.8204   -7874107.26046  -5850139.19261
 91  5  9  0 14 59.9920000  0  4G 2G 6G13G12
  20117028.1884  -10207370.78946  -7729326.28061
  19447509.602   -22209390.733 6 -17202109.02322
  18139159.4924  -27208874.93048 -20864274.28962
  20734563.180    -7930297.726 6  -5893923.92121
 91  5  9  0 15 14.9920000  0  4G 2G 6G13G12
  20120573.2584  -10188747.43346  -7714814.61661
  19453124.984   -22179885.342 6 -17179117.86322
  18138713.4224  -27211207.66047 -20866091.99362
  20723883.836    -7986422.900 6  -5937657.77221
 91  5  9  0 15 29.9920000  0  4G 2G 6G13G12
  20124126.766   -10170069.345 6  -7700260.30821
  19458761.672   -22150266.781 6 -17156038.51422
  18138291.1334  -27213433.80647 -20867826.64962
  20713212.742    -8042496.615 6  -5981351.51821
 91  5  9  0 15 44.9920000  0  4G 2G 6G13G12
  20127694.719   -10151324.539 6  -7685654.00721
  19464420.078   -22120522.901 6 -17132861.51622
  18137890.2504  -27215541.44247 -20869468.95662
  20702553.7274   -8098506.37646  -6024995.44261
 91  5  9  0 15 59.9920000  0  4G 2G 6G13G12
  20131272.484   -10132522.262 6  -7671002.93121
  19470103.805   -22090663.144 6 -17109594.22122
  18137509.7584  -27217540.07347 -20871026.32662
  20691905.524    -8154461.094 6  -6068596.46621
 91  5  9  0 16 14.9920000  0  4G 2G 6G13G12
  20134862.7114  -10113651.14146  -7656298.20461
  19475810.234   -22060676.801 6 -17086228.29222
  18137151.5474  -27219418.89447 -20872490.33662
  20681272.469    -8210349.065 6  -6112145.47721
 91  5  9  0 16 29.9920000  0  4G 2G 6G13G12
  20138465.500   -10094716.130 6  -7641543.69821
  19481538.930   -22030568.842 6 -17062767.59722
  18136816.7504  -27221182.78247 -20873864.79362
  20670647.8674   -8266174.92646  -6155646.08861
 91  5  9  0 16 44.9920000  0  4G 2G 6G13G12
  20142078.984   -10075729.304 6  -7626748.81321
  19487289.477   -22000351.342 6 -17039221.54622
  18136499.4224  -27222844.11347 -20875159.33462
  20660033.445    -8321950.482 6  -6199107.52121
 91  5  9  0 16 59.9920000  0  4G 2G 6G13G12
  20145704.899   -10056677.965 6  -7611903.66021
  19493062.336   -21970012.170 6 -17015580.68322
  18136205.9924  -27224390.55047 -20876364.33962
  20649431.570    -8377662.743 6  -6242519.61521
 91  5  9  0 17 14.9920000  0  4G 2G 6G13G12
  20149341.180   -10037567.402 6  -7597012.36221
  19498858.399   -21939556.792 6 -16991849.27222
  18135932.2274  -27225827.30847 -20877483.89062
  20638841.453    -8433316.517 6  -6285886.14421
 91  5  9  0 17 29.9920000  0  4G 2G 6G13G12
  20152992.6254  -10018387.22646  -7582066.81461
  19504677.399   -21908975.002 6 -16968019.36222
  18135680.3834  -27227144.43447 -20878510.21762
  20628265.055    -8488901.251 6  -6329198.87421
 91  5  9  0 17 44.9920000  0  4G 2G 6G13G12
  20156653.477    -9999142.560 6  -7567071.01621
  19510520.219   -21878272.158 6 -16944095.12022
  18135452.9384  -27228347.51247 -20879447.67862
  20617698.641    -8544421.753 6  -6372461.55321
 91  5  9  0 17 59.9920000  0  4G 2G 6G13G12
  20160328.844    -9979829.500 6  -7552021.92221
  19516385.984   -21847444.515 6 -16920073.62722
  18135245.3284  -27229432.78647 -20880293.34262
  20607145.945    -8599873.644 6  -6415670.77221
 91  5  9  0 18 14.9920000  0  4G 2G 6G13G12
  20164013.000    -9960465.642 6  -7536933.25521
  19522273.555   -21816509.890 6 -16895968.78222
  18135058.2274  -27230417.96847 -20881061.01462
  20596604.516    -8655274.223 6  -6458840.00521
 91  5  9  0 18 29.9920000  0  4G 2G 6G13G12
  20167709.164    -9941045.754 6  -7521800.91821
  19528180.844   -21785463.202 6 -16871776.61322
  18134891.5164  -27231298.09748 -20881746.82262
  20586072.867    -8710617.738 6  -6501964.77621
 91  5  9  0 18 44.9920000  0  4G 2G 6G13G12
  20171415.524    -9921570.833 6  -7506625.70121
  19534110.531   -21754305.958 6 -16847498.28922
  18134743.9064  -27232074.51848 -20882351.82362
  20575552.805    -8765905.008 6  -6545045.71721
 91  5  9  0 18 59.9920000  0  4G 2G 6G13G12
  20175134.445    -9902028.349 6  -7491397.83821
  19540062.3364  -21723025.59946 -16823124.04562
  18134616.7584  -27232734.76247 -20882866.29562
  20565044.297    -8821123.105 6  -6588072.76421
 91  5  9  0 19 14.9920000  0  4G 2G 6G13G12
  20178865.875    -9882421.129 6  -7476119.53121
  19546037.445   -21691625.252 6 -16798656.29022
  18134512.0554  -27233282.13748 -20883292.81662
  20554549.594    -8876274.660 6  -6631047.95421
 91  5  9  0 19 29.9920000  0  4G 2G 6G13G12
  20182607.141    -9862751.880 6  -7460792.89821
  19552036.414   -21660107.935 6 -16774097.39722
  18134430.6334  -27233719.53248 -20883633.64362
  20544066.5944   -8931361.92946  -6673973.06561
 91  5  9  0 19 44.9920000  0  4G 2G 6G13G12
  20186362.875    -9843018.996 6  -7445416.66921
  19558055.891   -21628472.407 6 -16749446.38622
  18134367.0944  -27234045.62148 -20883887.73762
  20533596.9694   -8986382.93546  -6716846.53161
 91  5  9  0 19 59.9920000  0  4G 2G 6G13G12
  20190128.789    -9823229.201 6  -7429996.10321
  19564096.781   -21596725.480 6 -16724708.57522
  18134325.9064  -27234267.33048 -20884060.49062
  20523137.4224   -9041344.02246  -6759673.31061
 91  5  9  0 20 14.9920000  0  4G 2G 6G13G12
  20193905.289    -9803383.040 6  -7414531.60921
  19570159.250   -21564868.000 6 -16699884.61622
  18134305.4224  -27234385.51548
  20512690.8834   -9096245.36346  -6802453.54161
 91  5  9  0 20 29.9920000  0  4G 2G 6G13G12
  20197696.2744   -9783467.30546  -7399012.89561
  19576245.688   -21532886.858 6 -16674964.30022
  18134303.8754  -27234387.02747
  20502257.984    -9151073.478 7  -6845176.70221
 91  5  9  0 20 44.9920000  0  4G 2G 6G13G12
  20201499.2274   -9763482.31146  -7383440.22961
  19582355.383   -21500782.715 6 -16649948.14222
  18134323.5314  -27234272.65148
  20491837.7194   -9205828.33546  -6887842.78561
 91  5  9  0 20 59.9920000  0  4G 2G 6G13G12
  20205312.750    -9743445.770 6  -7367827.39221
  19588483.203   -21468573.432 6 -16624850.05122
  18134363.2894  -27234060.27648
  20481427.703    -9260527.253 6  -6930465.28421
 91  5  9  0 21 14.9920000  0  4G 2G 6G13G12
  20209135.891    -9723346.685 6  -7352165.82421
  19594634.742   -21436248.273 6 -16599661.67022
  18134427.7114  -27233739.13748
  20471034.0474   -9315158.89547  -6973035.35761
 91  5  9  0 21 29.9920000  0  4G 2G 6G13G12
  20212968.883    -9703197.662 6  -7336465.33621
  19600806.1804  -21403820.34446 -16574393.21462
  18134505.3054  -27233322.28348 -20883324.07262
  20460646.3204   -9369735.65147  -7015562.66661
 91  5  9  0 21 44.9920000  0  4G 2G 6G13G12
  20216813.2584   -9682993.37746  -7320721.79161
  19606998.2584  -21371284.43446 -16549040.61062
  18134605.6094  -27232804.38847 -20882920.51562
  20450272.3524   -9424251.69847  -7058042.66961
 91  5  9  0 21 59.9920000  0  4G 2G 6G13G12
  20220671.414    -9662730.342 6  -7304932.47221
  19613211.6884  -21338637.11146 -16523601.19062
  18134722.7274  -27232182.23348 -20882435.71462
  20439911.0084   -9478703.23847  -7100472.40861
 91  5  9  0 22 14.9920000  0  4G 2G 6G13G12
  20224538.727    -9642409.614 6  -7289098.18721
  19619443.1724  -21305879.77946 -16498076.06262
  18134862.0084  -27231457.20548 -20881870.75662
  20429560.6804   -9533090.94747  -7142852.40661
 91  5  9  0 22 29.9920000  0  4G 2G 6G13G12
  20228417.828    -9622023.079 6  -7273212.62921
  19625698.789   -21273004.935 6 -16472459.35222
  18135019.7114  -27230621.59548 -20881219.63362
  20419225.2034   -9587406.46147  -7185176.15361
 91  5  9  0 22 44.9920000  0  4G 2G 6G13G12
  20232309.625    -9601568.801 6  -7257274.28621
  19631978.539   -21240010.383 6 -16446749.36422
  18135200.7034  -27229673.47148 -20880480.84062
  20408902.7194   -9641647.47347  -7227441.84261
 91  5  9  0 22 59.9920000  0  4G 2G 6G13G12
  20236214.141    -9581053.076 6  -7241288.05721
  19638278.359   -21206902.787 6 -16420951.29522
  18135401.2894  -27228619.45948 -20879659.52062
  20398593.7664   -9695819.93847  -7269654.12261
 91  5  9  0 23 14.9920000  0  4G 2G 6G13G12
  20240126.445    -9560491.946 6  -7225266.45021
  19644597.7584  -21173698.48046 -16395077.86862
  18135617.5944  -27227475.67348 -20878768.25662
  20388295.6644   -9749939.48547  -7311825.15961
 91  5  9  0 23 29.9920000  0  4G 2G 6G13G12
  20244050.149    -9539873.612 6  -7209200.26321
  19650935.367   -21140385.986 6 -16369120.13121
  18135855.6334  -27226230.82348 -20877798.23862
  20378009.7744   -9803994.00347  -7353945.52261
 91  5  9  0 23 44.9920000  0  4G 2G 6G13G12
  20247985.945    -9519190.417 6  -7193083.54521
  19657297.1334  -21106958.10746 -16343072.49262
  18136112.9384  -27224877.64448 -20876743.80962
  20367736.6804   -9857975.62547  -7396009.08761
 91  5  9  0 23 59.9920000  0  4G 2G 6G13G12
  20251935.055    -9498440.251 6  -7176914.63921
  19663680.774   -21073412.729 6 -16316933.29422
  18136390.8994  -27223414.42048 -20875603.63262
  20357479.6334   -9911881.81446  -7438013.87861
 91  5  9  0 24 14.9920000  0  4G 2G 6G13G12
  20255894.359    -9477628.763 6  -7160697.94521
  19670085.820   -21039755.562 6 -16290706.98421
  18136689.6884  -27221846.56248 -20874381.92262
  20347235.8524   -9965717.72546  -7479963.90161
 91  5  9  0 24 29.9920000  0  4G 2G 6G13G12
  20259865.4694   -9456760.49146  -7144437.01561
  19676509.2814  -21005991.54646 -16264397.41861
  18137006.5634  -27220178.94248 -20873082.47562
  20337001.703   -10019487.576 6  -7521862.44521
 91  5  9  0 24 44.9920000  0  4G 2G 6G13G12
  20263848.9774   -9435825.06946  -7128123.75961
  19682957.055   -20972110.787 6 -16237996.88221
  18137344.6024  -27218401.77548 -20871697.67062
  20326784.7114  -10073180.73546  -7563701.22661
 91  5  9  0 24 59.9920000  0  4G 2G 6G13G12
  20267844.4454   -9414833.92346  -7111767.08361
  19689424.570   -20938124.941 6 -16211514.46221
  18137702.0784  -27216526.60048 -20870236.49062
  20316578.6414  -10126808.22446  -7605488.84361
 91  5  9  0 25 14.9920000  0  4G 2G 6G13G12
  20271850.313    -9393781.306 6  -7095362.50421
  19695913.859   -20904028.305 6 -16184945.71121
  18138078.8524  -27214547.68548 -20868694.47962
  20306389.320   -10180364.136 6  -7647220.68521
 91  5  9  0 25 29.9920000  0  4G 2G 6G13G12
  20275868.3054   -9372672.99146  -7078914.52561
  19702421.3444  -20869827.01946 -16158295.41861
  18138474.6094  -27212471.32248 -20867076.53662
  20296210.2584  -10233853.67146  -7688900.80661
 91  5  9  0 25 44.9920000  0  4G 2G 6G13G12
  20279897.016    -9351502.833 6  -7062418.35321
  19708950.3524  -20835515.14846 -16131558.95661
  18138888.9614  -27210291.90948 -20865378.28762
  20286045.3524  -10287270.32746  -7730524.13361
 91  5  9  0 25 59.9920000  0  4G 2G 6G13G12
  20283939.1644   -9330259.05146  -7045864.81661
  19715503.641   -20801081.156 6 -16104727.32521
  18139325.3754  -27207997.55548 -20863590.48062
  20275895.8754  -10340601.95546  -7772081.20361
 91  5  9  0 26 14.9920000  0  4G 2G 6G13G12
  20287990.6884   -9308968.94046  -7029275.17961
  19722074.9694  -20766552.53546 -16077821.97161
  18139778.0394  -27205615.68548 -20861734.47362
  20265757.609   -10393875.458 6  -7813592.98721
 91  5  9  0 26 29.9920000  0  4G 2G 6G13G12
  20292055.6954   -9287613.30546  -7012634.48261
  19728667.5164  -20731910.46546 -16050828.20961
  18140250.7664  -27203127.49048 -20859795.61762
  20255636.164   -10447071.368 7  -7855044.29721
 91  5  9  0 26 44.9920000  0  4G 2G 6G13G12
  20296129.3594   -9266200.79046  -6995949.46961
  19735279.3754  -20697163.66946 -16023752.84161
  18140743.4924  -27200541.73248 -20857780.74262
  20245526.899   -10500197.861 7  -7896441.53021
 91  5  9  0 26 59.9920000  0  4G 2G 6G13G12
  20300215.1724   -9244724.17946  -6979214.50261
  19741912.5704  -20662305.45146 -15996590.65861
  18141255.8674  -27197851.62048 -20855684.54762
  20235431.0314  -10553247.53447  -7937778.89461
 91  5  9  0 27 14.9920000  0  4G 2G 6G13G12
  20304311.9304   -9223191.62946  -6962435.95661
  19748564.8994  -20627343.97246 -15969348.00562
  18141785.9064  -27195065.52848 -20853513.56462
  20225348.2664  -10606228.06647  -7979062.39061
 91  5  9  0 27 29.9920000  0  4G 2G 6G13G12
  20308422.328    -9201599.074 6  -6945610.64121
  19755239.0474  -20592275.76446 -15942022.19261
  18142335.5004  -27192179.66848 -20851264.83862
  20215281.4534  -10659135.22547  -8020288.70861
 91  5  9  0 27 44.9920000  0  4G 2G 6G13G12
  20312541.5084   -9179946.68246  -6928738.71561
  19761932.9534  -20557101.12346 -15914613.44862
  18142903.2664  -27189194.81048 -20848938.97262
  20205228.0634  -10711968.85447  -8061457.73861
 91  5  9  0 27 59.9920000  0  4G 2G 6G13G12
  20316675.7504   -9158232.97546  -6911818.99861
  19768645.4614  -20521818.76046 -15887120.76361
  18143490.5314  -27186109.36648 -20846534.73062
  20195187.891   -10764726.853 7  -8102567.82021
 91  5  9  0 28 14.9920000  0  4G 2G 6G13G12
  20320817.500    -9136464.990 6  -6894856.98221
  19775378.9534  -20486436.05146 -15859549.88761
  18144094.7744  -27182930.59948 -20844057.76362
  20185160.8524  -10817416.02747  -8143624.27661
 91  5  9  0 28 29.9920000  0  4G 2G 6G13G12
  20324971.461    -9114641.333 6  -6877851.59221
  19782131.8834  -20450951.87046 -15831899.93861
  18144717.9384  -27179657.60948 -20841507.37962
  20175147.7034  -10870034.67947  -8184625.78661
 91  5  9  0 28 44.9920000  0  4G 2G 6G13G12
  20329136.8054   -9092750.35046  -6860793.74661
  19788906.3914  -20415354.63446 -15804161.89961
  18145360.3594  -27176278.84448 -20838874.58362
  20165151.3364  -10922570.77547  -8225562.95961
 91  5  9  0 28 59.9920000  0  4G 2G 6G13G12
  20333315.7974   -9070784.44646  -6843677.50961
  19795701.6494  -20379637.12046 -15776330.14661
  18146025.1724  -27172786.81248 -20836153.51062
  20155170.7894  -10975016.27647  -8266429.55061
 91  5  9  0 29 14.9920000  0  4G 2G 6G13G12
  20337508.461    -9048756.697 6  -6826513.08321
  19802521.1644  -20343812.65646 -15748415.04261
  18146708.4064  -27169194.89548 -20833354.61462
  20145205.352   -11027383.872 7  -8307235.43121
 91  5  9  0 29 29.9920000  0  4G 2G 6G13G12
  20341711.0164   -9026670.09646  -6809302.80561
  19809357.1414  -20307884.55946 -15720419.18261
  18147409.7974  -27165506.54648 -20830480.57262
  20135255.2664  -11079676.34447  -8347982.77261
 91  5  9  0 29 44.9920000  0  4G 2G 6G13G12
  20345927.805    -9004515.851 6  -6792039.80521
  19816215.656   -20271844.284 6 -15692335.92522
  18148132.3284  -27161713.14847 -20827524.67562
  20125319.4614  -11131884.46247  -8388664.38961
 91  5  9  0 29 59.9920000  0  4G 2G 6G13G12
  20350153.555    -8982308.015 6  -6774735.06421
  19823092.2034  -20235706.24446 -15664176.48161
  18148870.6024  -27157828.77648 -20824497.89562
  20115397.719   -11184021.840 7  -8429290.87221
 91  5  9  0 30 14.9920000  0  4G 2G 6G13G12
  20354391.078    -8960030.628 6  -6757376.11921
  19829990.0554  -20199454.55046 -15635928.47561
  18149630.8284  -27153838.16948 -20821388.32762
  20105493.5394  -11236072.11647  -8469849.49561
 91  5  9  0 30 29.9920000  0  4G 2G 6G13G12
  20358643.703    -8937688.562 6  -6739966.77221
  19836909.399   -20163094.507 6 -15607596.04521
  18150409.9384  -27149746.25048 -20818199.82362
  20095603.7274  -11288039.93347  -8510343.86161
 91  5  9  0 30 44.9920000  0  4G 2G 6G13G12
  20362906.969    -8915282.414 6  -6722507.48721
  19843848.695   -20126626.892 6 -15579179.79321
  18151207.1724  -27145553.88048 -20814933.04062
  20085730.8204  -11339925.54447  -8550774.17061
 91  5  9  0 30 59.9920000  0  4G 2G 6G13G12
  20367183.0864   -8892811.09446  -6704997.42261
  19850809.3754  -20090050.75546 -15550678.97361
  18152024.3834  -27141260.17748 -20811587.29662
  20075873.9064  -11391727.42847  -8591139.23761
 91  5  9  0 31 14.9920000  0  4G 2G 6G13G12
  20371473.1254   -8870274.49546  -6687436.50061
  19857789.9064  -20053366.52046 -15522093.92561
  18152860.2504  -27136865.46148 -20808162.84262
  20066031.6414  -11443445.15247  -8631438.72561
 91  5  9  0 31 29.9920000  0  4G 2G 6G13G12
  20375772.1804   -8847673.42246  -6669825.32661
  19864791.6094  -20016575.21746 -15493425.44861
  18153716.0634  -27132370.61448 -20804660.36962
  20056206.4224  -11495079.16047  -8671672.98461
 91  5  9  0 31 44.9920000  0  4G 2G 6G13G12
  20380081.789    -8825022.847 6  -6652175.58621
  19871810.9614  -19979691.90946 -15464685.28261
  18154587.3524  -27127790.97248 -20801091.82062
  20046392.9614  -11546643.99447  -8711853.33961
 91  5  9  0 31 59.9920000  0  4G 2G 6G13G12
  20384404.813    -8802310.252 6  -6634477.51621
  19878849.8204  -19942704.52546 -15435864.00661
  18155477.8134  -27123114.29748 -20797447.65862
  20036596.6644  -11598126.75547  -8751969.73961
 91  5  9  0 32 14.9920000  0  4G 2G 6G13G12
  20388738.227    -8779538.407 6  -6616733.27121
  19885905.281   -19905616.021 6 -15406963.94721
  18156385.4694  -27118343.50348 -20793730.15462
  20026814.9924  -11649529.84247  -8792024.05961
 91  5  9  0 32 29.9920000  0  4G 2G 6G13G12
  20393081.938    -8756714.441 6  -6598948.42321
  19892981.899   -19868433.846 6 -15377990.89221
  18157310.4454  -27113485.96148 -20789945.05762
  20017047.2894  -11700860.09247  -8832021.62361
 91  5  9  0 32 44.9920000  0  4G 2G 6G13G12
  20397437.438    -8733823.398 6  -6581111.29021
  19900078.156   -19831143.241 6 -15348933.35021
  18158254.1644  -27108527.06448 -20786080.98362
  20007296.3204  -11752102.12047  -8871950.43961
 91  5  9  0 32 59.9920000  0  4G 2G 6G13G12
  20401806.078    -8710869.618 6  -6563225.28021
  19907194.344   -19793748.818 6 -15319794.91821
  18159215.9694  -27103471.53148 -20782141.61162
  19997561.7034  -11803259.93947  -8911813.63561
 91  5  9  0 33 14.9920000  0  4G 2G 6G13G12
  20406183.6564   -8687863.55246  -6545298.53661
  19914327.399   -19756261.351 6 -15290583.97121
  18160194.2274  -27098329.93448 -20778135.17162
  19987840.0244  -11854343.66047  -8951619.09961
 91  5  9  0 33 29.9920000  0  4G 2G 6G13G12
  20410573.844    -8664799.085 6  -6527326.27421
  19921480.688   -19718674.884 6 -15261295.89021
  18161190.3054  -27093096.35548 -20774057.06562
  19978134.4844  -11905346.69747  -8991361.69561
 91  5  9  0 33 44.9920000  0  4G 2G 6G13G12
  20414972.320    -8641678.457 6  -6509310.26121
  19928652.625   -19680992.005 6 -15231932.68421
  18162202.9224  -27087773.32048 -20769909.24562
  19968444.4454  -11956271.04847  -9031042.97761
 91  5  9  0 33 59.9920000  0  4G 2G 6G13G12
  20419383.0244   -8618504.51546  -6491252.70061
  19935839.594   -19643216.090 6 -15202496.97621
  18163231.8754  -27082364.10248 -20765694.27162
  19958767.9844  -12007119.26747  -9070664.93061
 91  5  9  0 34 14.9920000  0  4G 2G 6G13G12
  20423804.781    -8595263.471 6  -6473142.85621
  19943048.250   -19605333.252 6 -15172977.96121
  18164280.8834  -27076854.99748 -20761401.46762
  19949108.3284  -12057876.96047  -9110216.34862
 91  5  9  0 34 29.9920000  0  4G 2G 6G13G12
  20428240.508    -8571957.702 6  -6454982.56021
  19950277.4064  -19567346.26046 -15143377.77761
  18165347.7744  -27071248.43348 -20757032.71462
  19939465.9924  -12108546.18747  -9149698.83362
 91  5  9  0 34 44.9920000  0  4G 2G 6G13G12
  20432684.7814   -8548592.48246  -6436775.96061
  19957526.1724  -19529260.62646 -15113700.73161
  18166432.3204  -27065549.98848 -20752592.36962
  19929840.5944  -12159131.88347  -9189116.22262
 91  5  9  0 34 59.9920000  0  4G 2G 6G13G12
  20437147.3914   -8525161.97046  -6418518.47661
  19964792.649   -19491070.871 6 -15083942.55621
  18167533.9924  -27059754.33948 -20748076.28262
  19920230.8834  -12209627.90347  -9228463.74362
 91  5  9  0 35 14.9920000  0  4G 2G 6G13G12
  20441615.4774   -8501677.29246  -6400218.79561
  19972077.109   -19452788.417 6 -15054112.14521
  18168654.0784  -27053872.83548 -20743493.30162
  19910637.4694  -12260045.06347  -9267749.81262
 91  5  9  0 35 29.9920000  0  4G 2G 6G13G12
  20446095.977    -8478131.227 6  -6381871.26521
  19979382.508   -19414406.241 6 -15024204.03221
  18169790.2894  -27047898.47548 -20738837.95562
  19901059.2344  -12310375.68247  -9306968.44762
 91  5  9  0 35 44.9920000  0  4G 2G 6G13G12
  20450586.8754   -8454529.60746  -6363480.45861
  19986703.859   -19375930.612 6 -14994223.10121
  18170943.7034  -27041837.47348 -20734115.09762
  19891497.6724  -12360625.26047  -9346123.93062
 91  5  9  0 35 59.9920000  0  4G 2G 6G13G12
  20455090.0474   -8430854.03546  -6345032.01661
  19994047.5784  -19337343.29446 -14964155.13361
  18172117.9304  -27035671.63448 -20729310.55462
  19881953.3204  -12410775.00847  -9385201.62562
 91  5  9  0 36 14.9920000  0  4G 2G 6G13G12
  20459609.8284   -8407119.47046  -6326537.61461
  20001408.484   -19298659.340 6 -14934011.87221
  18173308.1414  -27029415.86948 -20724435.93362
  19872428.2344  -12460839.31247  -9424212.74561
 91  5  9  0 36 29.9920000  0  4G 2G 6G13G12
  20464136.7974   -8383328.09846  -6307998.94561
  20008786.891   -19259881.398 6 -14903795.37121
  18174515.0004  -27023072.70748 -20719493.21262
  19862916.4844  -12510820.17747  -9463158.84662
 91  5  9  0 36 44.9920000  0  4G 2G 6G13G12
  20468676.5704   -8359467.63046  -6289406.43861
  20016187.234   -19220997.327 6 -14873496.16921
  18175741.0004  -27016630.28648 -20714473.14262
  19853422.570   -12560704.785 7  -9502029.94122
 91  5  9  0 36 59.9920000  0  4G 2G 6G13G12
  20473225.8914   -8335556.01946  -6270774.07861
  20023603.281   -19182025.458 6 -14843128.55921
  18176982.2584  -27010106.98448 -20709390.05162
  19843946.5474  -12610510.84847  -9540839.83662
 91  5  9  0 37 14.9920000  0  4G 2G 6G13G12
  20477785.2194   -8311601.90046  -6252108.59361
  20031033.797   -19142974.902 6 -14812699.62721
  18178237.6644  -27003511.56748 -20704250.76762
  19834482.281   -12660246.636 7  -9579594.96622
 91  5  9  0 37 29.9920000  0  4G 2G 6G13G12
  20482353.5704   -8287597.35446  -6233403.81061
  20038480.1954  -19103837.77746 -14782203.23461
  18179507.5394  -26996836.24848 -20699049.21962
  19825031.7894  -12709903.87047  -9618288.88562
 91  5  9  0 37 44.9920000  0  4G 2G 6G13G12
  20486930.9924   -8263532.11946  -6214651.74161
  20045945.938   -19064604.136 6 -14751631.63421
  18180795.5084  -26990070.83348 -20693777.46762
  19815599.2274  -12759471.82847  -9656913.23861
 91  5  9  0 37 59.9920000  0  4G 2G 6G13G12
  20491527.0084   -8239389.75746  -6195839.56961
  20053434.484   -19025257.940 6 -14720972.34121
  18182103.2034  -26983199.37848 -20688423.08662
  19806186.617   -12808933.837 7  -9695455.03922
 91  5  9  0 38 14.9920000  0  4G 2G 6G13G12
  20496129.1724   -8215201.10546  -6176991.33561
  20060937.0554  -18985830.13446 -14690249.44561
  18183424.6564  -26976252.92648 -20683010.26662
  19796790.2274  -12858320.27847  -9733937.95262
 91  5  9  0 38 29.9920000  0  4G 2G 6G13G12
  20500741.149    -8190961.195 6  -6158103.16721
  20068455.383   -18946316.200 6 -14659459.44821
  18184761.9454  -26969226.88248 -20677535.43362
  19787406.0164  -12907625.85347  -9772357.85462
 91  5  9  0 38 44.9920000  0  4G 2G 6G13G12
  20505365.7344   -8166664.01046  -6139170.36761
  20075993.242   -18906710.252 6 -14628597.74621
  18186115.4774  -26962115.38248 -20671994.00862
  19778040.9534  -12956844.09447  -9810709.69861
 91  5  9  0 38 59.9920000  0  4G 2G 6G13G12
  20510000.6564   -8142306.16046  -6120190.28461
  20083549.039   -18867009.129 6 -14597661.88721
  18187485.6024  -26954915.32048 -20666383.57462
  19768692.3834  -13005971.24247  -9848990.56961
 91  5  9  0 39 14.9920000  0  4G 2G 6G13G12
  20514640.9694   -8117911.90346  -6101181.85361
  20091117.352   -18827237.565 6 -14566671.12921
  18188867.7344  -26947651.25448 -20660723.26462
  19759356.2034  -13055031.20347  -9887219.07962
 91  5  9  0 39 29.9920000  0  4G 2G 6G13G12
  20519294.3364   -8093470.40546  -6082136.59461
  20098701.406   -18787384.885 6 -14535617.17521
  18190263.5554  -26940312.45648 -20655004.72162
  19750035.8444  -13104012.79947  -9925386.53062
 91  5  9  0 39 44.9920000  0  4G 2G 6G13G12
  20523957.3134   -8068969.22946  -6063044.83761
  20106303.313   -18747439.086 6 -14504490.65721
  18191677.0314  -26932886.68348 -20649218.40662
  19740731.1094  -13152903.07847  -9963482.82262
 91  5  9  0 39 59.9920000  0  4G 2G 6G13G12
  20528631.8994   -8044402.66246  -6043902.12661
  20113923.274   -18707394.598 6 -14473287.23221
  18193108.1174  -26925368.95648 -20643360.44262
  19731446.9924  -13201696.17247 -10001503.39062
 91  5  9  0 40 14.9920000  0  4G 2G 6G13G12
  20533315.188    -8019783.217 6  -6024718.21721
  20121558.281   -18667264.398 6 -14442017.03021
  18194552.7274  -26917772.01148 -20637440.74862
  19722177.0554  -13250404.32647 -10039457.76762
 91  5  9  0 40 29.9920000  0  4G 2G 6G13G12
  20538012.367    -7995108.849 6  -6005491.50221
  20129211.289   -18627046.526 6 -14410678.51021
  18196014.2504  -26910093.75748 -20631457.69362
  19712925.9774  -13299024.88647 -10077343.89062
 91  5  9  0 40 44.9920000  0  4G 2G 6G13G12
  20542723.9694   -7970358.93246  -5986205.91361
  20136884.461   -18586720.538 6 -14379255.73821
  18197495.1094  -26902313.80248 -20625395.39662
  19703693.9454  -13347536.76447 -10115145.32362
 91  5  9  0 40 59.9920000  0  4G 2G 6G13G12
  20547443.9224   -7945541.54046  -5966867.75661
  20144578.734   -18546295.075 6 -14347755.46021
  18198992.3754  -26894440.41248 -20619260.29362
  19694482.0554  -13395947.89647 -10152868.25462
 91  5  9  0 41 14.9920000  0  4G 2G 6G13G12
  20552174.789    -7920676.729 6  -5947492.64521
  20152287.227   -18505790.074 6 -14316193.20021
  18200505.1564  -26886493.74948 -20613068.09162
  19685284.7744  -13444277.73047 -10190527.83962
 91  5  9  0 41 29.9920000  0  4G 2G 6G13G12
  20556920.367    -7895757.664 6  -5928075.26621
  20160009.750   -18465199.263 6 -14284564.07521
  18202032.2344  -26878467.35448 -20606813.76162
  19676104.703   -13492519.229 7 -10228118.59222
 91  5  9  0 41 44.9920000  0  4G 2G 6G13G12
  20561671.6724   -7870780.55746  -5908612.65361
  20167751.102   -18424519.403 6 -14252865.56721
  18203575.9924  -26870357.97548 -20600494.77062
  19666942.305   -13540668.339 7 -10265637.35222
 91  5  9  0 41 59.9920000  0  4G 2G 6G13G12
  20566439.195    -7845731.358 6  -5889093.86721
  20175513.297   -18383736.384 6 -14221086.66721
  18205137.4144  -26862151.60648 -20594100.20062
  19657799.8674  -13588710.43147 -10303072.71962
 91  5  9  0 42 14.9920000  0  4G 2G 6G13G12
  20571214.6024   -7820633.53846  -5869537.20561
  20183289.422   -18342873.921 6 -14189245.87521
  18206712.7114  -26853871.91048 -20587648.49262
  19648674.1254  -13636668.42147 -10340442.55262
 91  5  9  0 42 29.9920000  0  4G 2G 6G13G12
  20576000.9844   -7795479.31946  -5849936.57461
  20191081.649   -18301924.450 6 -14157337.27221
  18208303.4224  -26845511.39848 -20581133.81262
  19639565.1724  -13684534.39147 -10377740.68562
 91  5  9  0 42 44.9920000  0  4G 2G 6G13G12
  20580799.078    -7770259.823 6  -5830285.09221
  20198891.531   -18260879.689 6 -14125354.42721
  18209911.9844  -26837061.70348 -20574549.63362
  19630477.4304  -13732299.22847 -10414960.00762
 91  5  9  0 42 59.9920000  0  4G 2G 6G13G12
  20585608.4304   -7744979.67746  -5810586.34861
  20206720.031   -18219744.401 6 -14093301.03621
  18211535.1094  -26828527.47048 -20567899.59062
  19621405.0554  -13779967.03347 -10452103.72262
 91  5  9  0 43 14.9920000  0  4G 2G 6G13G12
  20590428.6094   -7719657.89146  -5790855.14861
  20214561.594   -18178537.942 6 -14061192.18721
  18213172.5704  -26819928.06448 -20561198.76162
  19612349.2344  -13827556.52447 -10489186.41562
 91  5  9  0 43 29.9920000  0  4G 2G 6G13G12
  20595259.055    -7694279.821 6  -5771080.11921
  20222418.922   -18137245.940 6 -14029016.68521
  18214824.2344  -26811248.89048 -20554435.76562
  19603311.320   -13875052.590 7 -10526196.31622
 91  5  9  0 43 44.9920000  0  4G 2G 6G13G12
  20600099.781    -7668841.090 6  -5751257.79821
  20230294.5634  -18095864.31246 -13996771.34661
  18216491.9614  -26802485.99548 -20547607.54162
  19594291.5944  -13922450.53047 -10563129.74462
